GFSSW_con_sbcape_000.txt.gz
CAPE
44 20 7 0 2 10 8 5 4 10 9 26 26 96 100 74 51 10 1 0 0 0 0 0 0 0 0 0 0 0 0 0 0 0 0 0 0 0 0 0 0 0 0 0 0
84 37 15 0 0 5 9 8 5 6 13 25 27 64 93 73 20 9 0 0 0 8 0 0 0 0 0 0 0 0 0 0 0 0 0 0 0 0 0 0 0 0 0 0 0
79 73 24 8 0 1 9 13 11 12 23 29 13 42 50 44 2 0 1 16 43 43 0 0 0 0 0 0 0 0 0 0 0 0 0 0 0 0 0 0 0 0 0 0 0
65 87 64 22 1 3 10 12 12 21 20 16 19 14 36 19 3 0 0 0 22 15 0 0 0 0 0 0 0 0 0 0 0 0 0 0 0 0 0 0 0 0 0 0 0
103 101 101 45 8 3 11 7 11 12 6 24 31 22 39 2 0 0 0 0 0 0 2 2 1 0 0 0 0 0 0 0 0 0 0 0 0 0 0 0 0 0 0 0 0
95 124 141 89 33 11 7 5 10 5 28 20 55 11 0 0 0 0 0 0 0 0 0 0 1 0 0 0 0 0 0 0 0 0 0 0 0 0 0 0 0 0 0 0 0
119 144 160 120 73 16 11 11 11 1 15 18 49 0 0 0 0 0 0 0 0 0 0 0 0 11 9 0 0 0 0 0 0 0 0 0 0 0 0 0 0 0 0 0 0
29 100 108 129 102 67 36 25 39 51 60 29 51 9 0 0 0 0 0 0 0 0 0 0 0 2 3 0 0 4 1 0 0 0 0 0 0 0 0 0 0 0 0 0 0
17 24 95 119 131 104 86 64 48 19 36 47 0 0 0 0 0 0 0 0 0 0 0 0 0 0 0 0 0 0 0 0 0 0 0 0 0 0 0 0 0 0 0 0 0
22 7 14 100 143 108 124 66 58 36 18 0 1 0 0 0 0 0 0 0 0 0 0 0 0 0 3 0 0 0 1 0 1 0 0 0 0 0 0 0 0 0 0 0 0
38 51 5 32 128 108 45 0 0 18 31 0 0 0 0 0 0 0 0 0 0 0 0 0 2 5 0 0 0 0 0 1 0 0 0 0 0 0 0 0 0 0 0 0 0
53 29 27 6 174 63 0 0 0 0 0 0 0 0 0 0 0 0 0 0 0 0 0 1 1 0 0 0 2 7 10 2 0 0 0 0 0 0 0 0 0 0 0 0 0
56 38 31 5 125 12 0 0 0 0 0 0 0 0 0 0 0 0 0 0 0 0 0 0 0 0 0 0 0 0 0 0 0 0 0 0 0 0 0 0 0 0 0 0 0
69 25 31 29 61 2 2 0 0 0 0 0 1 0 0 0 2 0 0 0 0 0 0 0 0 0 0 0 0 1 0 0 0 0 0 0 0 0 0 0 0 0 0 0 0
77 31 31 26 16 2 0 0 0 0 0 0 0 0 0 0 0 0 0 5 0 0 0 0 0 0 0 0 0 0 0 0 5 16 9 0 7 0 0 0 0 0 0 0 0
108 59 69 26 10 0 0 0 0 0 0 0 0 25 14 3 18 0 2 7 3 1 1 0 0 0 0 0 0 1 0 0 0 14 6 0 0 0 0 0 0 0 0 0 0
156 102 104 27 10 0 1 5 0 0 0 1 4 12 13 16 11 9 4 12 16 14 11 17 1 0 0 0 0 0 9 0 12 8 0 0 0 0 0 0 0 0 0 0 0
135 105 56 31 58 0 2 0 0 0 0 0 0 3 3 6 10 10 16 21 15 5 11 0 0 0 0 0 0 0 0 0 0 3 0 0 0 0 0 0 0 0 0 0 0
130 77 58 0 29 0 1 0 0 0 0 0 1 2 3 0 0 9 16 7 0 7 11 3 0 0 0 0 1 24 1 0 0 0 1 0 0 0 0 0 0 0 0 0 0
47 6 7 16 34 25 0 0 0 0 0 0 0 0 0 1 0 5 0 0 7 1 1 0 6 0 0 0 0 9 0 12 3 0 0 0 0 0 0 0 0 0 0 0 0
29 19 44 32 50 20 0 0 0 0 0 0 0 0 0 0 0 3 0 0 0 0 0 0 3 0 4 1 1 4 9 1 4 0 0 0 0 0 0 0 0 0 0 0 0
10 0 54 75 15 15 1 0 0 0 0 5 0 1 0 0 0 0 0 0 0 0 0 6 42 1 0 0 0 0 0 0 0 0 0 0 0 0 3 0 0 0 0 0 0
28 92 63 47 3 4 0 0 0 0 0 0 0 0 2 0 0 0 0 0 0 0 0 1 32 5 0 1 2 19 0 0 0 0 0 0 0 0 0 0 0 0 0 0 0
20 15 38 41 23 0 0 0 0 0 0 9 11 0 1 7 0 0 0 0 0 0 1 2 33 3 0 2 4 15 5 0 2 2 0 0 0 0 0 0 0 0 0 0 0
17 7 2 1 15 0 2 0 0 0 0 10 24 12 9 24 2 0 0 0 0 0 22 15 6 5 2 0 4 16 10 2 2 0 0 0 0 0 0 0 0 0 0 0 0
17 2 0 0 0 0 0 0 0 0 16 13 2 0 5 22 0 0 0 0 0 0 3 12 3 1 3 14 5 16 10 18 8 0 0 0 0 0 0 0 0 0 0 0 0
5 5 4 10 8 0 0 0 0 5 1 0 1 12 9 4 3 0 0 0 0 1 8 6 3 9 0 6 12 7 0 3 3 0 0 0 0 0 0 0 0 0 0 0 0

GFSSW_con_sbcape_003.txt.gz
CAPE
98 95 75 24 3 0 3 6 13 9 3 0 14 30 115 77 48 5 0 0 0 0 0 0 0 0 0 0 0 0 0 0 0 0 0 0 0 0 0 0 0 0 0 0 0
97 90 123 58 11 0 0 3 8 8 2 0 14 33 93 79 5 5 0 0 2 11 0 0 0 0 0 0 0 0 1 0 0 0 0 0 0 0 0 0 0 0 0 0 0
87 84 111 93 20 1 0 0 11 9 13 0 2 11 43 71 8 1 7 43 34 58 0 0 0 0 0 0 0 0 0 0 0 0 0 0 0 0 0 0 0 0 0 0 0
95 73 120 132 66 9 0 2 6 12 10 6 0 5 35 3 0 0 0 0 73 5 0 0 0 0 0 0 0 0 0 0 0 0 0 0 0 0 0 0 0 0 0 0 0
24 75 104 112 113 26 0 0 5 1 6 0 0 1 4 12 0 0 0 0 0 0 3 0 0 0 0 0 0 0 0 0 0 0 0 0 0 0 0 0 0 0 0 0 0
15 41 55 79 121 90 27 0 0 0 15 0 3 0 0 0 0 0 0 0 0 4 0 0 0 0 0 0 0 0 0 0 0 0 0 0 0 0 0 0 0 0 0 0 0
18 32 23 66 64 119 14 0 0 0 17 17 10 0 0 0 0 0 0 0 0 0 0 0 0 0 0 0 0 0 0 0 0 0 0 0 0 0 0 0 0 0 0 0 0
30 16 25 7 68 117 98 32 7 40 43 18 28 0 0 0 0 0 0 0 0 0 0 0 0 0 0 0 0 0 0 0 0 0 0 0 0 0 0 0 0 0 0 0 0
32 17 26 9 12 97 106 129 88 38 43 60 0 0 0 0 0 0 0 0 0 0 0 0 0 0 0 0 0 0 0 0 0 0 0 0 0 0 0 0 0 0 0 0 0
35 38 34 16 12 48 94 107 70 25 3 0 1 0 0 0 0 0 0 0 0 0 0 0 0 0 0 0 0 0 0 0 0 0 0 0 0 0 0 0 0 0 0 0 0
52 61 70 37 41 35 36 14 13 12 2 0 0 0 0 0 0 0 0 0 0 0 0 0 0 1 0 0 0 0 0 0 1 0 0 0 0 0 0 0 0 0 0 0 0
74 66 77 72 82 10 7 0 0 0 0 0 0 0 0 0 0 0 0 0 0 0 0 1 2 0 0 0 0 0 0 0 0 0 0 0 0 0 0 0 0 0 0 0 0
131 93 67 79 105 13 2 0 0 0 0 0 0 0 0 0 0 0 0 0 0 0 0 0 0 0 0 0 5 3 5 2 2 0 0 0 0 0 0 0 0 0 0 0 0
125 56 91 90 62 48 2 0 0 0 0 0 0 0 0 0 0 0 0 0 0 0 0 1 0 0 0 0 0 4 0 0 0 9 4 0 0 0 0 0 0 0 0 0 0
119 139 124 113 45 83 0 0 0 0 0 0 0 1 3 0 0 0 0 1 0 0 0 0 0 0 0 0 0 0 0 0 0 13 8 4 14 0 0 0 0 0 0 0 0
57 103 117 105 86 0 3 0 0 0 0 0 1 27 21 2 22 0 10 25 2 2 0 0 0 0 0 0 0 0 0 0 0 4 16 0 2 0 0 0 0 0 0 0 0
14 29 54 86 29 30 19 10 2 0 0 3 7 34 13 10 14 6 7 11 12 7 3 2 1 0 0 0 0 0 17 10 17 22 1 0 0 0 0 0 0 0 0 0 0
94 94 43 74 40 8 5 4 0 0 0 0 2 18 9 6 9 7 0 14 10 1 1 0 0 0 0 1 0 0 0 2 0 0 0 0 0 0 0 0 0 0 0 0 0
109 28 96 27 8 31 15 0 0 0 0 1 5 7 4 1 1 10 14 5 1 1 3 0 0 0 0 0 0 28 6 0 2 0 1 0 0 0 0 0 0 0 0 0 0
76 54 27 5 26 57 4 0 0 0 0 0 0 0 2 1 1 9 9 0 0 0 2 3 5 0 0 0 0 1 1 7 7 5 0 0 0 0 0 0 0 0 0 0 0
17 44 26 24 39 9 1 1 0 0 0 0 0 0 0 1 0 2 0 0 0 0 0 4 8 0 8 5 0 8 29 17 13 11 1 0 0 0 0 0 0 0 0 0 0
22 12 42 8 0 3 3 0 0 0 0 0 0 0 0 0 0 0 0 0 0 0 1 0 9 13 0 0 0 0 0 0 3 0 0 0 0 0 0 0 0 0 0 0 0
14 119 64 0 7 7 1 0 0 0 0 0 0 0 0 0 0 0 0 0 0 0 0 0 42 0 0 0 1 12 0 0 0 0 0 0 0 0 0 0 0 0 0 0 0
19 30 36 40 8 0 0 0 0 0 0 0 0 0 0 4 0 0 0 0 0 0 0 1 20 0 0 0 4 11 2 3 5 3 0 0 0 0 0 0 0 0 0 0 0
30 6 1 3 6 0 0 0 0 0 0 0 10 9 0 24 10 2 0 0 0 0 0 5 2 3 5 1 0 14 5 2 9 0 0 0 0 0 0 0 0 0 0 0 0
15 19 0 0 0 0 0 0 0 0 2 10 0 1 12 20 0 0 0 0 0 0 1 14 11 3 1 8 5 5 31 4 2 0 0 0 0 0 0 0 0 0 0 0 0
12 3 4 2 1 0 0 0 0 0 0 1 0 11 12 3 1 0 0 0 1 0 3 10 2 6 0 1 14 5 3 7 16 5 0 2 0 0 0 0 0 0 0 0 0

GFSSW_con_sbcape_006.txt.gz
CAPE
78 109 96 88 60 5 0 0 0 6 3 6 11 30 49 68 63 35 9 0 0 0 0 0 0 0 0 0 0 0 0 0 0 0 0 0 0 0 0 0 0 0 0 0 0
37 101 93 117 90 20 0 0 0 5 1 3 14 23 51 58 23 18 4 12 7 6 0 0 0 0 0 0 0 1 2 0 0 0 0 0 0 0 0 0 0 0 0 0 0
26 26 83 107 83 61 2 0 0 2 6 9 5 18 40 46 36 11 25 60 67 54 4 0 0 0 0 0 0 0 0 0 0 0 0 0 0 0 0 0 0 0 0 0 0
15 25 46 43 93 102 19 0 0 8 9 0 0 3 47 29 19 0 13 23 117 70 9 2 0 0 0 0 1 0 0 0 0 1 0 0 0 0 0 0 0 0 0 0 0
14 16 27 20 46 100 92 2 0 6 5 0 0 0 41 24 1 0 0 0 34 67 13 10 1 0 0 0 0 2 0 1 2 0 0 0 0 1 0 0 0 0 0 0 0
16 25 22 29 11 83 123 68 0 8 1 0 0 0 0 13 0 0 0 0 34 83 21 4 12 0 0 0 0 0 0 0 0 0 0 0 0 3 0 0 0 0 0 0 0
23 41 27 12 16 7 107 66 10 4 11 13 0 0 0 0 0 0 0 0 0 77 29 6 6 4 7 14 9 0 0 0 0 0 0 0 0 0 0 0 0 0 0 0 0
24 46 44 12 27 17 69 146 73 61 29 12 0 0 0 0 0 0 0 0 0 0 46 59 51 10 1 5 3 1 0 0 0 0 0 0 0 0 0 0 0 0 0 0 0
42 28 48 36 24 21 8 117 88 90 29 29 0 0 0 0 0 0 0 0 0 0 0 17 0 0 0 0 0 0 0 0 0 0 0 0 0 0 0 0 0 0 0 0 0
55 40 42 58 36 17 6 109 87 52 40 0 0 1 0 0 0 0 0 0 0 0 0 5 10 9 1 5 0 0 0 0 0 0 0 0 0 0 0 0 0 0 0 0 0
49 69 57 57 50 23 13 102 2 28 13 0 0 0 0 0 0 0 0 0 0 6 16 12 10 3 0 0 0 0 0 0 0 0 0 0 0 0 0 0 0 0 0 0 0
112 139 93 71 62 37 46 1 0 0 2 1 0 0 0 0 0 0 0 0 0 3 11 7 5 0 0 0 0 0 0 0 0 0 0 0 0 0 0 0 0 0 0 0 0
79 123 138 102 68 22 20 14 0 0 0 10 2 1 0 0 0 0 0 0 0 7 5 0 0 0 0 1 1 0 1 0 0 0 0 0 0 0 0 0 0 0 0 0 0
126 136 104 87 46 14 21 47 0 0 0 0 9 1 0 0 0 0 0 0 0 0 3 3 0 0 1 2 0 1 0 0 5 6 1 0 0 0 0 0 0 0 0 0 0
123 88 59 58 52 52 60 12 0 0 4 0 9 14 12 0 0 2 0 0 4 0 0 0 0 2 3 1 3 0 0 1 6 12 5 0 8 0 0 0 0 0 0 0 0
50 48 44 29 33 18 84 0 0 1 2 14 28 25 25 10 8 7 15 17 6 11 8 4 0 0 2 0 1 1 9 12 9 4 16 0 1 0 0 0 0 0 0 0 0
68 72 49 34 13 37 111 2 1 10 0 14 21 28 9 11 28 11 28 24 13 18 18 5 4 1 0 5 7 16 19 8 11 29 1 0 9 0 0 0 0 0 0 0 0
67 152 50 13 38 52 50 7 5 2 0 2 20 13 17 14 25 13 17 24 16 5 9 3 0 2 2 3 1 7 8 7 0 2 12 10 2 0 0 0 0 0 0 0 0
87 136 101 58 57 74 11 5 13 0 1 2 21 14 13 5 14 6 8 6 2 4 6 4 1 0 0 0 4 10 16 1 33 11 57 19 1 3 0 0 0 0 0 0 0
1 146 179 174 63 34 7 19 0 0 0 0 2 1 1 7 8 6 15 0 5 0 2 7 8 0 0 1 0 13 7 25 53 23 37 21 0 2 4 1 0 0 0 0 0
11 22 66 114 6 6 18 5 4 0 0 0 1 2 0 6 3 5 2 0 0 0 6 13 4 6 10 11 1 8 11 46 38 60 22 20 2 20 9 5 106 7 0 0 0
15 11 111 50 11 6 10 2 4 0 0 0 0 0 0 1 2 4 2 0 0 0 10 2 15 19 5 0 0 5 10 8 38 17 43 28 7 8 0 0 1 7 0 0 0
26 28 63 52 39 39 7 4 29 3 0 0 0 0 0 0 0 1 0 0 0 0 1 12 41 7 0 1 1 10 0 8 22 26 17 56 15 0 0 0 0 0 0 0 0
4 9 37 0 34 1 2 7 5 0 1 0 0 0 0 0 0 0 0 0 0 0 0 3 17 6 0 1 6 49 4 12 22 24 2 21 0 1 0 0 0 0 0 1 0
17 17 4 11 21 18 4 0 1 0 0 1 0 0 0 1 3 1 0 0 0 0 0 17 22 12 4 5 9 19 17 30 10 1 8 0 0 1 0 0 0 0 0 1 0
6 19 12 23 4 4 0 0 0 0 0 0 0 2 1 3 1 4 0 2 1 0 2 18 15 14 4 3 9 11 13 24 28 22 13 13 2 3 0 0 0 5 0 0 8
11 5 33 6 9 15 1 0 0 0 0 0 2 2 4 1 0 5 1 0 0 8 10 8 11 18 1 3 3 12 6 6 6 8 11 5 0 0 0 0 0 0 1 4 6

GFSSW_con_sbcape_009.txt.gz
CAPE
10 35 58 126 113 94 41 0 1 0 2 5 3 6 21 54 66 41 9 1 15 10 0 1 0 0 0 0 0 0 20 0 0 0 0 0 0 0 0 0 0 0 0 0 0
10 9 22 59 82 92 87 14 1 0 5 4 4 4 15 75 47 17 0 0 0 0 0 3 0 0 0 0 0 3 1 0 0 0 0 0 0 0 0 0 0 0 0 0 0
9 9 7 23 41 71 96 65 3 1 10 8 4 0 1 83 30 14 68 20 21 0 0 6 7 0 0 0 0 0 0 0 0 0 0 0 0 0 0 0 0 0 0 0 0
14 9 15 15 23 26 91 136 43 8 13 9 0 0 8 81 57 20 6 14 78 57 20 17 7 5 3 0 0 0 0 0 0 0 0 0 0 0 0 0 0 0 0 0 0
10 9 22 17 13 14 15 101 95 7 15 6 0 0 47 72 16 0 0 0 49 67 18 18 15 16 12 1 2 3 0 0 0 0 0 0 0 0 1 0 0 0 0 0 0
15 5 17 24 6 8 19 36 131 13 16 7 0 0 7 68 0 0 0 2 7 85 4 30 17 12 17 15 0 4 0 0 0 0 1 1 0 0 0 0 0 0 0 0 0
15 19 4 18 17 5 12 17 104 33 25 27 0 0 2 4 0 0 0 0 43 69 29 17 3 22 23 10 10 0 0 0 0 0 0 0 0 0 0 0 0 0 0 0 0
19 17 28 13 23 8 4 15 7 134 42 35 0 0 1 0 0 0 0 1 28 38 39 34 14 18 10 12 0 0 0 0 0 0 0 0 0 0 0 0 0 0 0 0 0
17 30 38 28 22 19 12 12 5 78 87 59 0 3 3 0 0 0 0 10 0 0 15 15 29 15 10 5 0 0 0 0 0 0 0 0 0 0 0 0 0 0 0 0 0
67 32 60 58 38 44 22 15 2 68 75 29 3 1 0 0 0 0 0 11 2 1 0 0 3 7 3 7 0 0 0 0 0 0 0 0 0 0 0 0 0 0 0 0 0
88 100 33 79 69 63 39 0 62 65 59 13 0 0 0 0 0 0 0 5 11 4 1 7 7 1 1 2 0 0 0 0 0 0 0 0 0 0 0 0 0 0 0 0 0
137 144 132 114 109 76 63 21 24 3 21 8 0 2 0 0 0 1 0 2 11 9 7 3 8 0 2 0 0 0 0 0 0 0 0 0 0 0 0 0 0 0 0 0 0
185 165 124 138 87 87 63 0 10 0 13 13 3 6 1 0 1 1 0 1 5 7 5 6 0 0 0 0 0 0 0 0 0 0 0 0 0 0 0 0 0 0 0 0 0
109 93 106 42 83 2 8 74 36 0 1 22 13 7 0 0 1 2 0 1 3 3 2 9 1 0 0 0 0 0 0 0 0 1 0 0 0 0 0 0 0 0 0 0 0
48 46 62 20 43 49 61 83 32 5 13 6 6 6 14 0 0 6 5 2 4 0 0 0 0 1 0 0 0 0 0 0 2 8 0 0 1 0 0 0 0 0 0 0 0
41 56 87 40 46 27 50 54 37 7 6 26 9 14 12 11 12 12 16 12 4 4 5 0 0 0 0 0 0 0 1 3 3 1 6 0 0 0 0 0 0 0 0 0 0
57 73 65 12 20 22 66 29 12 20 2 13 9 21 15 7 15 14 10 14 1 11 7 5 1 3 0 1 4 2 2 6 12 28 0 0 0 0 0 0 0 0 0 0 0
116 56 102 100 0 17 33 84 53 34 5 3 19 23 23 6 0 6 3 9 8 3 3 2 5 3 1 2 2 6 5 1 0 0 0 0 1 0 0 0 0 0 0 0 0
18 37 189 43 12 44 9 38 7 15 4 13 11 18 22 3 14 23 10 16 8 7 2 3 0 0 0 0 1 8 11 2 15 7 14 0 0 0 0 0 0 0 0 0 0
15 53 162 120 53 50 29 53 7 4 3 2 6 6 3 7 11 11 11 3 4 4 4 1 1 0 2 0 3 2 1 10 30 7 5 0 0 0 0 2 1 2 0 0 11
24 14 165 177 41 7 31 8 17 7 0 4 1 3 1 3 1 2 4 1 6 6 4 4 1 1 3 3 0 3 16 19 7 19 17 12 0 0 2 9 62 162 102 107 103
10 17 112 106 5 17 70 3 14 8 0 0 1 0 0 0 4 4 3 0 0 2 5 4 10 5 0 0 0 0 0 4 29 0 5 31 3 0 0 15 7 8 1 11 0
19 23 48 67 92 58 7 2 14 25 43 28 1 0 0 0 0 3 2 0 0 0 7 2 17 6 1 0 0 3 0 1 11 16 20 46 1 0 0 0 0 0 0 1 0
3 46 35 19 43 39 14 15 25 40 35 9 0 0 0 0 0 3 1 0 0 0 1 13 11 14 0 12 1 19 6 6 9 35 7 8 1 0 29 27 23 28 13 1 0
5 35 34 40 9 22 14 27 24 12 10 0 0 0 0 0 2 1 2 0 0 1 0 10 32 15 4 3 4 3 6 4 3 21 18 0 5 2 10 9 17 34 3 8 37
4 8 7 4 19 21 9 20 19 14 9 0 0 1 0 7 8 6 6 3 5 0 3 15 26 25 6 2 0 13 2 5 9 8 22 14 9 0 0 0 0 0 0 32 0
10 4 8 5 9 17 23 8 12 14 3 1 9 12 15 19 11 4 5 2 6 12 12 14 20 11 1 0 0 5 1 4 4 4 7 11 0 5 4 1 0 0 0 0 1

GFSSW_con_sbcape_012.txt.gz
CAPE
2 1 5 8 20 20 100 113 57 6 2 0 8 0 2 24 43 44 34 0 0 45 0 0 0 0 0 0 0 0 0 0 0 0 0 0 0 0 0 0 0 0 0 0 116
8 5 3 4 10 22 21 99 136 40 3 3 8 1 6 35 44 15 0 14 18 30 0 0 0 0 0 0 0 0 0 0 0 0 0 0 0 0 0 0 0 0 0 0 0
11 9 8 8 6 16 23 20 132 85 5 3 8 1 9 16 52 1 85 15 28 3 0 0 0 0 0 0 0 0 0 0 0 0 0 0 0 0 0 0 0 0 0 0 0
25 11 9 7 20 8 11 18 36 167 16 2 6 0 6 41 20 34 45 78 65 22 0 0 0 0 0 0 0 0 0 0 0 0 0 0 0 0 0 0 0 0 0 0 0
23 24 18 9 8 13 8 11 13 85 15 4 0 0 0 79 35 29 21 31 76 72 38 9 3 1 0 0 0 0 0 0 0 0 0 0 0 0 0 0 0 0 0 0 0
41 37 37 27 18 14 10 8 12 58 78 13 0 0 0 59 30 0 0 1 17 90 54 20 31 20 13 11 4 3 4 1 0 0 0 0 0 0 0 0 0 0 0 0 0
76 55 44 47 42 32 17 17 9 31 113 46 0 0 2 1 0 0 0 0 13 89 73 42 27 20 10 19 5 3 0 0 0 0 0 0 0 0 0 0 0 0 0 0 0
140 115 44 25 50 30 31 17 13 13 12 69 33 0 6 0 0 0 0 0 17 116 83 36 13 2 5 1 2 0 0 0 0 0 0 0 0 0 0 0 0 0 0 0 0
145 159 145 69 48 55 36 34 18 11 44 82 0 3 0 0 0 0 0 11 28 32 75 49 35 3 1 0 0 0 0 0 0 0 0 0 0 0 0 0 0 0 0 0 0
147 154 152 101 70 87 62 55 9 5 134 62 25 16 0 0 0 0 0 7 3 42 11 21 2 0 0 0 0 0 0 0 0 0 0 0 0 0 0 0 0 0 0 0 0
170 184 154 122 123 111 81 73 58 111 41 15 0 0 0 0 0 0 0 4 11 20 2 4 0 0 0 0 0 0 0 0 0 0 0 0 0 0 0 0 0 0 0 0 0
179 169 162 155 161 158 93 51 32 37 16 16 5 7 0 0 0 0 0 0 5 7 0 0 0 0 0 0 0 0 0 0 0 0 0 0 0 0 0 0 0 0 0 0 0
116 124 123 89 90 123 43 43 48 2 28 10 15 16 2 0 0 0 0 1 1 3 3 0 0 0 0 0 0 0 0 0 0 0 0 0 0 0 0 0 0 0 0 0 0
90 47 30 70 117 64 46 90 2 22 1 15 8 17 2 5 3 0 0 0 4 1 2 0 0 0 0 0 0 0 0 0 0 0 0 0 0 0 0 0 0 0 0 0 0
33 9 12 36 39 34 64 72 28 31 5 8 7 8 0 1 0 4 1 0 3 2 0 0 0 0 0 0 0 0 0 0 0 0 0 0 0 0 0 0 0 0 0 0 0
26 60 84 38 69 13 45 49 0 5 4 14 4 3 10 28 8 1 8 2 0 0 0 0 0 0 0 0 0 0 0 0 0 0 0 0 0 0 0 0 0 0 0 0 0
37 84 104 88 3 34 10 10 6 6 9 29 19 16 9 19 21 13 8 5 0 1 0 0 0 0 0 0 0 1 0 0 0 1 0 0 0 0 0 0 0 0 0 0 0
139 141 62 96 1 8 2 12 5 1 28 0 11 15 6 12 11 18 12 18 5 0 0 0 0 0 0 0 0 2 0 0 0 0 0 0 0 0 0 0 0 0 0 0 0
117 100 48 67 26 6 2 21 11 15 5 6 16 20 4 12 4 11 10 4 0 1 0 0 0 0 0 0 0 1 0 0 0 0 0 0 0 0 0 0 0 0 0 0 0
58 111 61 11 9 5 15 82 21 8 2 5 0 2 1 4 6 9 11 1 1 0 0 0 0 0 0 0 0 0 0 1 5 0 0 0 0 0 0 0 0 0 0 0 0
41 47 64 85 62 20 18 9 7 1 0 0 0 1 0 2 5 1 0 0 0 0 3 0 0 0 0 1 0 0 2 3 0 0 0 0 0 0 0 0 0 0 0 0 2
14 26 45 70 16 5 22 5 7 2 24 2 2 0 0 0 3 0 0 0 0 0 1 0 2 0 0 0 0 0 0 0 4 0 0 0 0 0 0 0 0 0 0 0 0
29 47 56 58 12 10 2 7 6 13 14 0 0 1 0 0 0 1 0 0 0 0 1 0 2 0 0 0 0 1 0 0 0 0 0 0 0 0 0 0 0 0 0 0 0
10 3 7 7 6 7 5 15 35 32 27 4 0 0 0 2 1 1 0 0 0 0 2 3 5 0 0 0 0 0 0 0 0 4 0 0 0 0 0 0 0 0 0 0 0
4 5 6 45 35 2 7 12 22 10 14 0 0 0 0 3 0 2 0 0 0 0 0 1 0 0 0 0 0 0 0 0 0 2 4 0 1 0 0 3 0 0 0 0 98
8 3 0 1 32 1 10 11 11 14 13 0 0 2 0 0 7 0 4 0 1 0 0 0 7 0 0 0 0 0 0 0 0 0 9 9 4 0 2 0 0 0 0 0 0
4 5 5 0 4 6 10 3 10 4 2 0 10 4 15 7 0 1 1 0 4 0 0 12 6 0 0 0 0 0 0 0 3 0 3 6 0 0 1 2 0 0 0 0 0

GFSSW_con_sbcape_015.txt.gz
CAPE
21 19 17 8 10 21 32 34 61 150 32 0 0 3 3 9 28 41 2 0 0 20 0 0 0 0 0 0 0 0 0 0 0 0 0 0 0 0 0 0 0 0 0 20 193
31 29 23 17 12 10 28 23 41 72 138 5 0 1 3 36 19 37 0 39 20 0 0 0 0 0 0 0 0 0 0 0 0 0 0 0 0 0 0 0 0 0 0 0 135
33 28 36 29 17 16 9 24 25 53 157 57 2 0 1 9 3 0 34 26 31 20 0 0 0 0 0 0 0 0 0 0 0 0 0 0 0 0 0 0 0 0 0 0 0
52 47 51 53 40 31 23 11 19 22 107 134 18 4 0 8 1 15 107 137 49 2 0 0 0 0 0 0 0 0 0 0 0 0 0 0 0 0 0 0 0 0 0 0 0
64 67 67 60 47 50 28 31 11 15 73 174 63 11 0 29 0 40 164 118 51 39 0 0 0 0 0 0 0 0 0 0 0 0 0 0 0 0 0 0 0 0 0 0 0
98 96 85 53 48 28 36 27 17 20 17 105 77 36 2 9 0 9 0 17 60 55 36 34 0 0 1 0 0 0 0 0 0 0 0 0 0 0 0 0 0 0 0 0 0
124 124 129 116 61 66 26 21 24 12 23 15 121 11 2 0 0 0 0 0 3 58 42 64 20 32 5 0 0 0 0 0 0 0 0 0 0 0 0 0 0 0 0 0 0
144 160 178 145 111 61 32 21 18 3 10 9 111 32 3 0 0 0 0 1 0 9 54 26 10 5 15 0 0 0 0 0 0 0 0 0 0 0 0 0 0 0 0 0 0
161 165 150 153 117 73 67 47 24 9 10 10 54 20 1 0 0 0 0 6 75 31 68 42 22 1 1 2 0 0 0 0 0 0 0 0 0 0 0 0 0 0 0 0 0
151 149 169 166 133 115 118 82 21 16 0 59 41 24 0 0 0 0 0 16 16 77 79 36 11 0 0 0 1 0 0 0 0 0 0 0 0 0 0 0 0 0 0 0 0
110 105 115 156 145 145 60 10 37 79 20 29 1 0 0 0 0 0 0 4 11 7 0 1 0 0 0 0 0 0 0 0 0 0 0 0 0 0 0 0 0 0 0 0 0
48 64 82 91 92 119 45 18 44 28 25 57 4 6 0 0 0 0 0 3 7 0 0 0 0 0 0 0 0 0 0 0 0 0 0 0 0 0 0 0 0 0 0 0 0
27 38 41 34 65 44 8 7 40 17 26 18 27 4 0 1 0 0 0 0 0 1 0 0 0 0 0 0 0 0 0 0 0 0 0 0 0 0 0 0 0 0 0 0 0
28 32 41 28 2 0 26 72 6 3 4 13 16 25 6 1 0 0 0 1 10 3 0 0 0 0 0 0 0 0 0 0 0 0 0 0 0 0 0 0 0 0 0 0 0
55 58 86 83 10 0 19 43 0 0 0 16 7 3 11 0 0 1 0 3 1 0 0 0 0 0 0 0 0 0 0 0 0 0 0 0 0 0 0 0 0 0 0 0 0
70 89 137 68 35 2 9 8 4 0 0 16 1 34 19 15 4 0 0 0 0 0 0 0 0 0 0 0 0 0 0 0 0 0 0 0 0 0 0 0 0 0 0 0 0
84 101 202 84 4 6 4 1 0 1 4 15 24 15 8 12 4 4 4 0 0 0 0 0 0 0 0 0 0 0 0 0 0 0 0 0 0 0 0 0 0 0 0 0 0
57 209 25 48 0 0 0 6 0 21 16 6 16 15 19 12 5 14 5 0 0 0 0 0 0 0 0 0 0 0 0 0 0 0 0 0 0 0 0 0 0 0 0 0 0
88 0 4 44 1 0 0 0 3 13 10 6 12 37 13 13 2 14 9 1 0 0 0 0 0 0 0 0 0 0 0 0 0 0 0 0 0 0 0 0 0 0 0 0 0
5 22 35 17 0 0 0 36 6 9 12 4 1 0 14 16 0 5 10 0 0 0 0 0 0 0 0 0 0 0 0 0 0 0 0 0 0 0 0 0 0 0 0 0 0
0 13 24 0 0 0 16 3 10 3 1 1 0 0 0 7 0 0 0 0 0 0 0 0 0 0 0 0 0 0 0 0 0 0 0 0 0 0 0 0 0 0 0 0 0
0 10 0 4 2 2 11 7 11 0 0 8 0 0 0 0 0 0 0 0 0 0 0 0 0 0 0 0 0 0 0 0 0 0 0 0 0 0 0 0 0 0 0 0 0
0 10 7 4 5 6 4 7 3 19 17 3 1 0 0 0 0 0 0 0 0 0 0 0 0 0 1 0 0 0 0 0 0 0 0 0 0 0 0 0 0 0 0 0 0
0 0 0 0 0 3 4 11 0 0 2 0 0 0 0 0 0 0 0 0 0 0 5 0 0 0 0 0 0 0 0 0 0 0 0 0 0 0 0 0 0 0 0 0 0
0 0 0 0 0 0 2 9 0 0 1 0 0 0 0 0 0 0 0 0 0 0 0 0 0 0 0 0 0 0 0 0 0 0 1 0 0 0 0 2 0 0 0 0 0
0 3 0 0 0 0 0 0 0 0 0 0 0 0 0 0 0 0 0 0 0 0 0 0 0 0 0 0 0 0 0 0 0 0 0 0 0 0 1 6 3 0 0 0 0
1 3 6 0 0 0 0 1 0 0 0 0 0 0 1 0 0 0 1 0 0 0 0 2 0 0 0 0 0 0 0 0 0 0 2 3 0 0 0 0 0 0 0 0 0

GFSSW_con_sbcape_018.txt.gz
CAPE
33 24 25 27 27 13 5 8 23 28 71 167 65 0 12 7 22 28 7 0 0 6 0 0 0 0 0 0 0 0 0 0 0 0 0 0 0 0 0 0 0 0 0 0 37
39 33 28 23 21 27 16 11 22 20 28 99 146 19 21 29 20 13 0 0 0 18 4 0 0 0 0 0 0 0 0 0 0 0 0 0 0 0 0 0 0 0 0 0 14
58 55 47 61 68 41 24 18 12 4 4 21 181 76 34 35 13 0 0 0 92 48 0 0 0 0 0 0 0 0 0 0 0 0 0 0 0 0 0 0 0 0 1 0 0
129 81 66 56 55 50 23 36 21 7 4 14 17 119 53 36 0 1 139 254 192 22 0 0 0 0 0 0 0 0 0 0 0 0 0 0 0 0 0 0 0 0 0 0 0
147 143 129 92 77 80 49 18 20 17 0 1 10 142 15 24 1 6 280 315 53 1 0 0 0 0 0 0 0 0 0 0 0 0 0 0 0 0 0 0 0 0 0 0 0
138 138 140 150 152 104 61 34 11 4 0 0 3 70 10 10 0 49 63 93 73 6 0 0 0 0 0 0 0 0 0 0 0 0 0 0 0 0 0 0 0 0 0 0 0
172 195 189 180 134 117 39 28 9 13 2 0 3 39 9 0 0 7 41 41 71 47 0 0 7 5 0 0 0 0 0 0 0 0 0 0 0 0 0 0 0 0 0 0 0
134 140 158 148 132 113 77 48 19 9 6 2 3 53 1 0 0 0 0 0 2 32 39 36 0 0 0 0 0 0 0 0 0 0 0 0 0 0 0 0 0 0 0 0 0
81 77 86 117 143 124 117 71 40 18 13 7 18 28 0 0 0 0 0 2 69 56 48 40 28 12 0 0 0 0 0 0 0 0 0 0 0 0 0 0 0 0 0 0 0
72 73 78 80 120 128 144 100 57 16 6 9 47 3 0 0 0 0 0 15 52 70 27 50 6 1 0 0 0 0 0 0 0 0 0 0 0 0 0 0 0 0 0 0 0
46 48 64 78 96 93 25 0 15 2 5 19 20 0 0 0 0 0 0 14 63 6 3 2 0 0 0 0 0 0 0 0 0 0 0 0 0 0 0 0 0 0 0 0 0
52 44 52 60 49 73 10 0 35 1 0 3 4 0 0 0 0 0 0 5 59 0 0 0 0 0 0 0 0 0 0 0 0 0 0 0 0 0 0 0 0 0 0 0 0
33 50 50 75 92 5 4 28 27 4 14 12 9 1 4 0 0 0 0 0 9 0 0 0 0 0 0 0 0 0 0 0 0 0 0 0 0 0 0 0 0 0 0 0 0
52 47 73 100 14 0 13 109 35 0 0 25 16 4 22 8 0 0 1 0 0 0 0 0 0 0 0 0 0 0 0 0 0 0 0 0 0 0 0 0 0 0 0 0 0
98 123 119 171 17 4 19 0 0 0 0 2 21 11 12 0 0 1 0 0 0 0 0 0 0 0 0 0 0 0 0 0 0 0 0 0 0 0 0 0 0 0 0 0 0
88 119 212 132 57 11 0 0 0 0 0 3 7 12 21 1 0 3 4 0 0 2 0 0 0 0 0 0 0 0 0 0 0 0 0 0 0 0 0 0 0 0 0 0 0
112 89 108 103 38 8 0 1 0 0 3 12 12 12 14 10 0 14 0 0 0 0 4 0 0 0 0 0 0 0 0 0 0 0 0 0 0 0 0 0 0 0 0 0 0
84 3 35 12 1 0 2 1 0 1 8 14 8 9 7 5 9 9 1 0 0 0 0 0 0 0 0 0 0 0 0 0 0 0 0 0 0 0 0 0 0 0 0 0 0
21 0 41 0 0 0 0 0 0 6 15 22 5 2 5 0 7 0 0 0 0 0 0 0 0 0 0 0 0 0 0 0 0 0 0 0 0 0 0 0 0 0 0 0 0
0 1 9 0 0 0 0 12 8 8 3 0 2 0 3 1 1 1 1 0 0 0 0 0 0 0 0 0 0 0 0 0 0 0 0 0 0 0 0 0 0 0 0 0 0
0 0 0 0 0 0 7 2 9 12 3 4 0 0 0 0 0 0 0 0 0 0 0 0 0 0 0 0 0 0 0 0 0 0 0 0 0 0 0 0 0 0 0 0 0
0 0 0 0 1 6 5 5 3 0 0 0 0 0 0 0 0 0 0 0 0 0 0 0 0 0 0 0 0 0 0 0 0 0 0 0 0 0 0 0 0 0 0 0 0
0 0 0 0 0 7 1 1 0 6 0 0 0 0 0 0 0 0 0 0 0 0 0 0 0 0 0 0 0 0 0 0 0 0 0 0 0 0 0 0 0 0 0 0 0
0 0 0 0 0 0 0 0 0 0 0 0 0 0 0 0 0 0 0 0 0 0 4 0 0 0 0 0 0 0 0 0 0 0 0 0 0 0 0 0 0 0 0 0 0
0 0 0 0 0 0 0 0 0 0 0 0 0 0 0 0 0 0 0 0 0 12 3 0 0 0 0 0 0 0 0 0 0 0 0 0 0 0 0 0 0 1 0 0 0
0 2 0 0 0 0 0 0 0 0 0 0 0 0 0 0 0 0 0 0 0 0 0 0 0 0 1 0 0 0 0 0 0 0 0 0 0 0 0 0 0 0 0 0 0
0 0 3 0 0 0 0 0 0 0 0 0 0 0 0 0 0 0 0 0 0 0 0 0 0 0 0 0 0 0 0 0 0 0 0 0 0 0 0 0 0 0 0 0 0

GFSSW_con_sbcape_021.txt.gz
CAPE
50 38 40 29 30 38 39 10 2 0 0 4 6 126 3 15 17 24 5 0 0 0 0 0 0 0 0 0 0 0 0 0 0 0 0 0 0 0 0 0 0 0 0 0 0
80 88 83 36 44 41 34 22 11 0 0 0 1 45 48 78 24 10 0 0 0 0 46 0 0 0 0 0 0 0 0 0 0 0 0 0 0 0 0 0 0 0 0 10 2
79 98 128 142 109 90 45 30 42 13 0 0 3 13 107 47 8 0 0 0 2 19 23 0 0 0 0 0 0 0 0 0 0 0 0 0 0 0 0 0 0 0 0 0 13
96 122 122 132 202 122 93 48 26 16 11 0 0 7 43 19 0 0 96 47 117 11 8 0 0 0 0 0 0 0 0 0 0 0 0 0 0 0 0 0 0 0 0 0 0
94 93 121 97 141 180 152 82 20 14 11 1 0 1 15 11 0 0 255 347 109 43 0 0 0 0 0 0 0 0 0 0 0 0 0 0 0 0 0 0 0 0 0 0 0
75 79 87 101 125 136 139 89 33 4 10 7 0 5 23 2 0 0 108 234 143 2 0 0 0 0 0 0 0 0 0 0 0 0 0 0 0 0 0 0 0 0 0 0 0
77 67 47 38 63 105 135 105 55 13 14 17 4 12 29 0 0 0 154 203 82 0 0 0 0 0 0 0 0 0 0 0 0 0 0 0 0 0 0 0 0 0 0 0 0
64 70 55 41 49 85 146 126 97 37 11 17 12 18 6 0 0 0 0 37 88 55 17 23 23 4 0 0 0 0 0 0 0 0 0 0 0 0 0 0 0 0 0 0 0
64 55 57 52 63 81 117 153 119 59 18 30 7 45 1 0 0 0 0 25 17 45 70 56 11 4 0 0 0 0 0 0 0 0 0 0 0 0 0 0 0 0 0 0 0
51 40 28 38 66 74 94 146 112 63 13 16 12 11 0 0 0 0 0 92 135 108 105 85 34 2 0 1 0 0 0 0 0 0 0 0 0 0 0 0 0 0 0 0 0
50 22 15 13 53 56 11 0 0 1 4 0 23 0 0 0 2 0 0 29 118 81 57 0 16 5 0 0 0 0 0 0 0 0 0 0 0 0 0 0 0 0 0 0 0
14 17 58 77 97 129 0 0 46 15 0 0 22 2 6 7 0 0 0 54 71 6 0 0 1 0 0 0 0 1 1 0 0 0 0 0 0 0 0 0 0 0 0 0 0
75 115 107 106 92 2 3 4 10 18 15 1 2 14 12 12 0 0 0 5 1 0 0 2 0 0 0 0 0 0 0 0 0 0 0 0 0 0 0 0 0 0 0 0 0
87 100 104 148 30 3 0 51 40 0 0 1 3 9 16 1 0 0 1 1 0 0 9 1 0 0 0 0 0 0 0 0 0 0 0 0 0 0 0 0 0 0 0 0 0
56 72 112 87 9 10 0 0 0 0 0 5 2 24 6 0 0 1 0 0 0 0 0 0 0 0 0 0 0 0 0 0 0 0 0 0 0 0 0 0 0 0 0 0 0
150 100 70 83 36 10 0 0 0 0 0 3 23 20 19 1 5 1 2 0 0 0 0 0 0 0 0 0 0 0 0 0 0 0 0 0 0 0 0 0 0 0 0 0 0
32 66 18 26 16 1 0 0 0 0 4 11 22 15 9 17 20 3 1 0 0 1 4 0 0 0 0 0 0 0 0 0 0 0 0 0 0 0 0 0 0 0 0 0 0
26 4 0 0 0 0 0 2 0 5 0 10 13 12 5 13 14 9 0 0 0 0 0 0 0 0 0 0 0 0 0 0 0 0 0 0 0 0 0 0 0 0 0 0 0
0 0 3 0 0 0 0 0 0 2 4 19 2 1 13 1 5 5 2 0 0 0 0 0 0 0 0 0 0 0 0 0 0 0 0 0 0 0 0 0 0 0 0 0 0
0 0 0 0 0 0 0 8 5 8 1 0 0 0 5 0 1 0 0 0 0 0 0 0 0 0 0 0 0 0 0 0 0 0 0 0 0 0 0 0 0 0 0 0 0
0 0 0 0 0 0 4 2 7 12 1 0 0 0 0 0 0 0 0 0 0 0 0 0 0 0 0 0 0 0 0 0 0 0 0 0 0 0 0 0 0 0 0 0 0
0 0 0 0 0 2 2 3 0 3 0 0 0 0 0 0 0 0 0 0 0 0 0 0 0 0 0 0 0 0 0 0 0 0 0 0 0 0 0 0 0 0 0 0 0
0 0 0 0 0 1 0 0 0 4 0 0 0 0 0 0 0 0 0 0 0 0 0 0 0 0 0 0 0 0 0 0 0 0 0 0 0 0 0 0 0 0 0 0 0
0 0 0 0 0 0 0 0 0 0 0 0 0 0 0 0 0 0 0 0 0 0 0 0 0 0 0 0 0 0 0 0 0 0 0 0 0 0 0 0 0 0 0 0 0
0 0 1 1 0 0 0 0 0 0 0 0 0 0 0 0 0 0 0 0 0 16 0 0 0 0 0 0 0 0 0 0 0 0 0 0 0 0 0 0 0 0 0 0 0
0 0 0 0 0 0 0 0 0 0 0 0 0 0 0 0 0 0 0 0 0 0 0 0 0 0 0 0 0 0 0 0 0 0 0 0 0 0 0 0 0 0 0 0 0
0 0 1 0 0 0 0 0 0 0 0 0 0 0 0 0 0 0 0 0 0 0 0 0 0 0 0 0 0 0 0 0 0 0 0 0 0 0 0 0 0 0 0 0 0

GFSSW_con_sbcape_024.txt.gz
CAPE
72 67 65 86 89 55 47 30 13 12 11 0 0 10 35 113 27 13 9 0 0 0 36 0 0 0 0 0 0 0 0 0 0 0 0 0 0 0 0 0 0 0 0 0 0
66 76 81 93 90 103 114 97 39 4 3 8 0 2 21 76 28 8 0 0 1 0 8 0 0 0 0 0 0 0 0 0 0 0 0 0 0 0 0 0 0 0 0 0 91
75 84 86 83 94 112 121 153 111 9 0 0 3 2 3 17 3 0 0 0 2 3 31 0 0 0 0 0 0 0 0 0 0 0 0 0 0 0 0 0 0 0 0 0 0
63 71 75 97 78 85 132 191 165 108 11 3 5 6 3 45 0 2 15 0 8 4 14 18 0 0 0 0 0 0 0 0 0 0 0 0 0 0 0 0 0 0 0 0 0
60 74 73 73 79 85 97 160 187 129 45 16 17 13 1 46 0 0 24 473 1 49 27 15 2 0 0 0 0 0 0 0 0 0 0 0 0 0 0 0 0 0 0 0 0
68 64 60 53 51 51 72 102 129 106 39 21 24 21 16 30 0 0 4 306 24 119 7 0 0 0 0 0 0 0 0 0 0 0 0 0 0 0 0 0 0 0 0 0 0
98 70 61 64 64 60 90 117 151 133 74 15 20 15 23 19 0 0 107 282 259 84 0 0 0 0 0 0 0 0 0 0 0 0 0 0 0 0 0 0 0 0 0 0 0
96 72 41 59 52 72 93 151 169 172 92 19 12 32 31 0 0 0 0 151 123 22 2 0 0 0 0 0 0 0 0 0 0 0 0 0 0 0 0 0 0 0 0 0 0
90 77 50 31 58 68 104 145 170 185 115 44 25 17 54 3 0 0 0 98 116 56 55 61 44 32 0 0 0 0 0 0 0 0 0 0 0 0 0 0 0 0 0 0 0
96 66 28 38 47 80 103 155 160 107 50 40 11 102 16 0 0 0 0 59 87 115 84 60 57 23 0 1 0 0 0 0 0 0 0 0 0 0 0 0 0 0 0 0 0
55 110 108 61 114 132 23 0 0 0 1 0 4 5 4 0 5 5 3 71 53 27 20 56 31 14 4 0 0 0 0 0 0 0 0 0 0 0 0 0 0 0 0 0 0
50 81 103 130 115 135 0 0 32 0 0 0 0 52 3 16 0 0 11 86 74 37 4 9 24 0 0 0 0 0 0 0 0 0 0 0 0 0 0 0 0 0 0 0 0
36 47 66 114 120 5 0 0 0 35 5 39 5 32 21 15 7 0 44 11 12 23 5 3 0 2 0 0 4 0 1 0 0 0 0 0 0 0 0 0 0 0 0 0 0
204 99 46 49 8 0 0 2 3 0 0 0 9 21 16 22 4 0 34 0 11 2 1 0 0 5 0 0 0 0 0 0 0 0 0 0 0 0 0 0 0 0 0 0 0
54 79 115 55 2 8 2 0 0 0 0 0 0 26 17 3 0 2 0 0 0 1 7 2 0 0 0 0 0 0 0 0 0 0 0 0 0 0 0 0 0 0 0 0 0
51 56 18 13 3 12 0 0 0 0 0 4 11 29 8 1 0 0 0 0 0 0 0 0 0 0 0 0 0 0 0 0 0 0 0 0 0 0 0 0 0 0 0 0 0
13 7 0 0 1 0 0 0 0 0 2 10 7 6 0 17 14 7 0 0 3 1 2 0 0 0 0 0 0 0 0 0 0 0 0 0 0 0 0 0 0 0 0 0 0
0 0 0 0 0 0 0 0 0 2 1 8 8 5 2 15 14 6 0 0 0 0 0 0 0 0 0 0 0 0 0 0 0 0 0 0 0 0 0 0 0 0 0 0 0
0 0 0 0 0 0 0 0 0 1 4 6 0 7 16 0 13 6 0 0 0 0 0 0 0 0 0 0 0 0 0 0 0 0 0 0 0 0 0 0 0 0 0 0 0
0 0 0 0 0 0 0 3 2 5 0 0 0 0 1 2 0 2 0 0 0 0 0 0 0 0 0 0 0 0 0 0 0 0 0 0 0 0 0 0 0 0 0 0 0
0 0 0 0 0 0 1 0 10 7 0 0 0 0 0 0 0 0 0 0 0 0 0 0 0 0 0 0 0 0 0 0 0 0 0 0 0 0 0 0 0 0 0 0 0
0 0 0 0 0 1 1 2 0 0 0 0 0 0 0 0 0 0 0 0 0 0 0 0 0 0 0 0 0 0 0 0 0 0 0 0 0 0 0 0 0 0 0 0 0
0 0 0 0 0 0 0 0 0 0 0 0 0 0 0 0 0 0 0 0 0 0 0 0 0 0 0 0 0 0 0 0 0 0 0 0 0 0 0 0 0 0 0 0 0
0 0 0 0 0 0 0 0 0 0 0 0 0 0 0 0 0 0 0 0 0 0 0 0 0 0 0 0 0 0 0 0 0 0 0 0 0 0 0 0 0 0 0 0 0
0 0 1 0 0 0 0 0 0 0 0 0 0 0 0 0 0 0 0 0 0 2 0 0 0 0 0 0 0 0 0 0 0 0 0 0 0 0 0 0 0 0 0 0 0
0 0 0 0 0 0 0 0 0 0 0 0 0 0 0 0 0 0 0 0 0 0 0 0 0 0 0 0 0 0 0 0 0 0 0 0 0 0 0 0 0 0 0 0 0
0 0 7 0 0 0 0 0 0 0 0 0 0 0 0 0 0 0 0 0 0 0 0 0 0 0 0 0 0 0 0 0 0 0 0 0 0 0 0 0 0 0 0 0 0

GFSSW_con_sbcape_027.txt.gz
CAPE
74 71 70 72 72 85 85 84 70 13 0 8 6 4 6 17 76 11 22 0 0 20 77 0 0 0 0 0 0 0 0 0 0 0 0 0 0 0 0 0 0 0 0 0 60
58 70 72 78 88 76 81 70 81 51 17 0 4 5 11 14 3 9 0 0 12 8 7 0 1 0 0 0 0 0 0 0 0 0 0 0 0 0 0 0 0 0 0 0 245
64 67 73 78 81 70 77 56 41 58 65 84 17 23 8 5 28 1 63 17 10 64 5 11 0 0 0 0 0 0 0 0 0 0 0 0 0 0 0 0 0 0 0 0 135
62 60 94 94 84 66 59 55 93 140 183 158 74 22 25 35 73 2 22 115 38 21 77 0 0 0 0 0 0 0 0 0 0 0 0 0 0 0 0 0 0 0 0 0 10
83 78 85 91 93 64 46 56 74 99 163 143 65 13 38 86 18 0 0 18 12 56 104 7 0 0 0 0 0 0 0 0 0 0 0 0 0 0 0 0 0 0 0 0 0
73 110 105 109 94 105 77 89 78 93 158 109 12 27 42 51 0 0 0 246 0 112 70 5 6 0 0 0 0 0 0 0 0 0 0 0 0 0 0 0 0 0 0 0 0
103 149 131 82 108 103 105 89 71 111 188 162 98 17 37 5 0 0 0 134 10 186 72 6 0 0 0 0 0 0 0 0 0 0 0 0 0 0 0 0 0 0 0 0 0
152 178 164 134 66 105 104 171 142 168 217 148 67 34 9 46 2 2 0 203 160 270 147 1 0 0 0 0 0 0 0 0 0 0 0 0 0 0 0 0 0 0 0 0 0
104 119 38 76 55 88 157 189 193 219 223 139 20 27 21 83 3 1 0 24 253 117 25 46 7 24 0 0 0 0 0 0 0 0 0 0 0 0 0 0 0 0 0 0 0
93 54 54 82 85 120 218 224 189 163 117 89 32 24 0 9 15 0 0 112 179 196 110 109 43 24 3 0 0 0 0 0 0 0 0 0 0 0 0 0 0 0 0 0 0
196 33 64 84 135 141 19 0 0 0 25 0 0 1 47 34 4 39 32 89 94 32 18 38 27 1 10 3 0 0 0 0 0 0 0 0 0 0 0 0 0 0 0 0 0
122 109 13 59 34 50 0 0 2 0 0 0 0 0 0 60 11 18 35 129 0 16 29 40 36 0 2 0 0 0 0 0 0 0 0 0 0 0 0 0 0 0 0 0 0
89 77 0 42 19 0 0 0 0 0 1 42 52 0 9 19 11 1 56 46 0 6 2 8 20 0 0 0 0 0 0 0 0 0 0 0 0 0 0 0 0 0 0 0 0
96 71 44 18 0 0 0 2 0 0 0 11 35 36 30 13 21 37 48 5 13 7 18 3 0 0 1 0 0 0 0 0 0 0 0 0 0 0 0 0 0 0 0 0 0
28 38 39 0 0 0 0 0 0 0 0 0 5 1 39 0 6 9 0 10 0 1 0 2 0 10 3 2 0 0 0 0 0 0 0 0 0 0 0 0 0 0 0 0 0
0 4 9 0 2 1 0 0 0 0 0 3 3 15 5 18 1 13 3 9 5 10 0 0 4 0 4 0 0 0 0 0 0 0 0 0 0 0 0 0 0 0 0 0 0
0 0 0 0 0 0 0 0 0 0 0 9 15 14 16 28 5 5 4 0 3 3 2 0 0 0 0 0 0 0 0 0 0 0 0 0 0 0 0 0 0 0 0 0 0
0 0 0 0 0 0 0 0 0 0 0 5 10 4 17 11 10 1 0 0 0 0 0 0 3 0 0 0 0 0 0 0 0 0 0 0 0 0 0 0 0 0 0 0 0
0 0 0 0 0 0 0 0 0 0 2 5 1 1 10 3 12 7 0 0 0 0 0 0 0 0 0 0 0 0 0 0 0 0 0 0 0 0 0 0 0 0 0 0 0
0 0 0 0 0 0 0 2 2 4 0 0 0 0 0 6 3 0 0 0 0 0 0 0 0 0 0 0 0 0 0 0 0 0 0 0 0 0 0 0 0 0 0 0 0
0 0 0 0 0 0 1 0 3 0 0 0 0 0 0 0 0 0 0 0 0 0 0 0 0 0 0 0 0 0 0 0 0 0 0 0 0 0 0 0 0 0 0 0 0
0 0 0 0 0 0 1 2 0 0 0 0 0 0 0 0 0 0 0 0 0 0 0 0 0 0 0 0 0 0 0 0 0 0 0 0 0 0 0 0 0 0 0 0 0
0 0 0 0 0 0 0 0 0 0 0 0 0 0 0 0 0 0 0 0 0 0 0 0 0 0 0 0 0 0 0 0 0 0 0 0 0 0 0 0 0 0 0 0 0
0 0 0 0 0 0 0 0 0 0 0 0 0 0 0 0 0 0 0 0 0 0 0 0 0 0 0 0 0 0 0 0 0 0 0 0 0 0 0 0 0 0 0 0 0
0 1 1 0 0 0 0 0 0 0 0 0 0 0 0 0 0 0 0 0 0 0 0 0 0 0 0 0 0 0 0 0 0 0 0 0 0 0 0 0 0 0 0 0 0
0 1 0 0 0 0 0 0 0 0 0 0 0 0 0 0 0 0 0 0 0 0 0 0 0 0 0 0 0 0 0 0 0 0 0 0 0 0 0 0 0 0 0 0 0
0 0 4 0 0 0 0 0 0 0 0 0 0 0 0 0 0 0 0 0 0 0 0 0 0 0 0 0 0 0 0 0 0 0 0 0 0 0 0 0 0 0 0 0 0

GFSSW_con_sbcape_030.txt.gz
CAPE
53 43 57 64 76 78 88 80 88 89 63 3 0 2 6 10 0 2 25 3 0 38 24 0 101 165 0 0 0 0 0 2 0 0 0 0 0 0 0 0 0 0 0 1 25
69 64 62 67 98 93 93 101 87 94 74 12 0 1 2 15 0 0 27 15 4 5 191 0 160 93 1 0 0 0 0 0 0 0 0 0 0 0 0 0 0 0 0 228 395
69 90 81 79 105 104 105 110 102 76 63 38 70 0 4 6 16 0 259 136 145 38 30 7 218 95 9 0 0 0 0 0 0 0 0 0 0 0 0 0 0 0 0 114 415
98 107 88 103 132 113 79 79 76 65 71 86 49 13 0 16 11 64 126 586 281 27 33 85 162 88 28 0 0 0 0 0 0 0 0 0 0 0 0 0 0 0 0 0 302
107 117 141 128 84 143 104 85 96 56 76 60 63 2 0 29 0 15 14 23 259 37 109 65 54 88 37 5 0 0 0 0 0 0 0 0 0 0 0 0 0 0 0 0 0
104 141 176 182 140 139 140 120 126 87 80 83 37 10 12 7 0 1 0 6 306 32 139 98 11 57 35 15 0 0 0 0 0 0 0 0 0 0 0 0 0 0 0 0 0
76 96 139 73 184 159 117 122 140 129 102 130 84 23 16 1 131 103 15 12 252 82 215 140 37 37 15 7 0 0 0 0 0 0 0 0 0 0 0 0 0 0 0 0 0
131 130 76 27 30 75 86 137 160 178 172 182 157 38 12 0 0 11 10 60 172 268 332 240 36 33 3 0 0 0 0 0 0 0 0 0 0 0 0 0 0 0 0 0 0
160 182 64 85 61 78 122 203 238 220 207 141 107 46 2 62 53 44 30 54 226 290 367 210 78 67 5 1 2 1 0 0 0 0 0 0 0 0 0 0 0 0 0 0 0
123 151 25 22 37 90 153 109 196 254 222 134 62 31 0 21 96 26 2 33 226 325 326 154 79 79 31 8 0 0 0 0 0 0 0 0 0 0 0 0 0 0 0 0 0
130 124 6 15 16 15 11 9 47 109 83 0 0 2 82 78 90 4 1 37 281 205 51 56 60 22 5 8 0 0 0 0 0 0 0 0 0 0 0 0 0 0 0 0 0
79 33 0 18 2 11 1 3 28 3 1 0 0 0 0 1 66 25 93 87 86 55 48 64 46 36 20 10 2 0 0 0 0 0 0 0 0 0 0 0 0 0 0 0 0
36 5 0 7 14 1 2 11 30 2 35 70 8 1 0 77 48 71 44 35 44 33 34 8 25 3 9 3 11 1 0 0 0 0 0 0 0 0 0 0 0 0 0 0 0
8 14 2 2 0 0 9 27 1 0 22 16 15 11 37 12 84 58 18 44 10 8 16 15 1 0 3 11 9 3 0 0 0 0 0 0 0 0 0 0 0 0 0 0 0
0 0 0 0 1 5 12 11 0 0 9 2 5 0 24 15 19 27 18 22 9 7 13 5 13 31 21 8 12 3 0 0 0 0 0 0 0 0 0 0 0 0 0 0 0
0 0 0 0 1 2 0 0 0 13 3 14 6 22 7 23 8 13 23 10 5 3 3 8 1 0 0 0 4 0 0 0 0 0 0 0 0 0 0 0 0 0 0 0 0
10 0 0 0 0 0 0 0 4 6 4 22 10 15 10 29 7 1 9 7 5 5 16 9 8 0 0 0 0 0 0 11 2 3 0 0 0 0 0 0 0 0 0 0 0
2 0 0 0 0 0 0 1 2 6 3 5 22 21 13 6 14 8 7 2 0 0 7 8 10 8 7 0 1 0 0 4 0 0 0 0 0 0 0 0 0 0 0 0 0
0 0 0 0 0 0 2 9 8 3 3 15 1 1 16 8 4 1 0 0 0 0 0 0 4 0 0 0 0 0 0 0 0 0 0 0 0 0 0 0 0 0 0 0 0
0 0 0 0 0 2 8 10 5 2 0 0 0 1 3 6 1 1 0 0 0 0 0 0 4 0 0 0 0 0 0 0 0 0 0 0 0 0 0 0 0 0 0 0 0
0 0 0 0 0 1 9 18 17 12 0 0 0 0 5 3 2 1 0 0 0 0 0 0 0 1 0 0 0 0 0 0 0 0 0 0 0 0 0 0 0 0 0 0 0
0 0 0 0 0 1 17 1 0 3 0 0 0 0 0 0 0 0 0 0 0 0 0 0 0 3 3 0 0 0 0 0 0 0 0 0 0 0 0 0 0 0 0 0 0
0 0 0 0 0 6 1 1 0 0 0 0 0 0 0 0 0 0 0 0 0 0 0 0 0 3 5 0 0 0 0 0 0 0 0 0 0 0 0 0 0 0 0 0 0
0 0 0 0 0 0 0 0 0 0 0 0 0 0 0 0 0 0 0 0 0 0 0 0 0 0 0 0 0 0 0 0 0 0 0 0 0 0 0 0 0 0 0 0 0
3 1 0 1 0 0 0 0 0 0 0 0 0 0 0 0 0 0 0 0 0 0 0 0 0 0 0 0 0 0 0 0 0 0 0 0 0 0 0 0 0 0 0 0 0
1 2 1 1 0 0 0 0 0 0 0 0 0 0 0 0 0 0 0 0 0 0 0 0 2 0 0 0 0 0 0 0 0 0 0 0 0 0 0 0 0 0 0 0 0
0 0 9 0 0 0 0 0 0 0 0 0 0 2 0 0 0 0 0 0 0 0 0 0 0 0 0 0 0 0 0 0 0 0 0 0 0 0 0 0 0 0 0 0 0

GFSSW_con_sbcape_033.txt.gz
CAPE
76 82 81 87 56 64 97 98 86 96 100 102 8 0 4 10 0 4 15 13 1 0 83 0 17 259 2 0 8 9 40 60 66 22 9 11 0 0 0 0 0 0 0 0 662
71 76 88 76 82 81 75 83 96 94 93 102 22 0 1 6 0 0 0 111 49 1 66 0 45 244 12 0 5 0 72 64 33 30 7 11 0 0 0 0 0 0 0 98 535
73 79 112 101 108 80 124 132 146 119 93 95 58 57 0 0 1 0 3 228 241 41 52 0 26 254 36 2 0 0 0 0 38 0 1 0 0 0 0 0 0 0 0 172 426
92 95 123 125 126 47 115 175 183 146 95 108 87 27 0 0 0 16 202 443 301 67 51 20 23 172 71 12 0 0 0 0 8 0 0 0 0 0 0 0 0 0 0 0 321
106 93 113 138 129 135 175 157 171 180 99 114 90 26 2 3 0 209 126 479 294 80 39 62 11 116 70 20 1 0 0 0 0 0 0 0 0 0 0 0 0 0 0 0 0
157 199 137 109 58 102 194 123 171 133 79 112 69 8 2 12 0 59 14 0 96 244 55 48 2 107 57 25 10 4 3 0 0 0 0 0 0 0 0 0 0 0 0 0 0
172 197 179 63 0 1 46 143 148 173 135 140 118 63 33 15 56 239 70 0 1 211 48 54 23 133 24 35 31 17 12 1 0 0 0 0 0 0 0 0 0 0 0 0 0
151 181 170 82 72 43 67 90 169 176 168 135 99 38 17 0 0 0 77 15 1 197 32 105 74 62 37 35 45 25 23 4 0 0 0 0 0 0 0 0 0 0 0 0 0
142 157 157 53 22 26 78 145 220 245 165 57 92 85 10 96 0 0 36 72 0 241 190 376 210 110 57 40 45 36 0 0 0 0 0 0 0 0 0 0 0 0 0 0 0
98 128 96 7 17 29 71 93 183 207 218 129 140 29 0 37 39 143 117 6 165 263 271 250 262 31 45 38 2 0 0 0 0 0 0 0 0 0 0 0 0 0 0 0 0
38 33 31 16 30 40 82 201 216 153 93 25 9 24 69 41 141 88 68 109 113 214 170 344 210 44 0 0 0 0 0 0 0 0 0 0 0 0 0 0 0 0 0 0 0
4 0 2 6 26 0 62 44 53 37 31 0 0 0 0 0 75 79 60 16 64 103 37 41 102 5 14 7 1 0 0 0 0 0 0 0 0 0 0 0 0 0 0 0 0
5 0 0 0 0 2 12 17 50 20 39 16 16 0 3 77 42 47 15 20 24 43 56 21 8 23 11 10 17 6 0 0 0 0 0 0 0 0 0 0 0 0 0 0 0
11 0 0 0 2 4 7 9 2 0 35 22 9 5 68 80 78 48 8 0 0 38 67 18 15 17 19 20 14 14 1 0 0 0 0 0 0 0 0 0 0 0 0 0 0
16 1 0 0 0 2 3 2 2 15 129 35 1 1 11 62 6 7 16 50 3 2 8 5 0 18 17 12 19 28 0 0 0 0 0 0 0 0 0 0 0 0 0 0 0
7 6 0 3 0 0 0 0 3 22 20 6 3 15 9 24 17 19 15 28 8 6 0 6 0 0 0 12 17 0 0 0 0 0 0 0 0 0 0 0 0 0 0 0 0
4 7 0 0 2 0 0 4 10 17 3 7 15 23 21 15 7 10 10 8 4 3 3 4 5 2 0 0 0 2 13 31 18 15 1 0 0 0 0 0 0 0 0 0 0
5 3 0 0 0 0 11 7 35 6 25 4 16 19 32 9 2 6 13 14 2 3 13 21 5 6 1 0 0 1 24 34 7 3 0 0 0 0 0 0 0 0 0 0 0
0 0 0 1 0 7 2 12 32 15 2 12 8 8 7 2 14 18 9 1 1 0 3 10 13 10 4 0 0 5 0 0 0 0 0 0 0 0 0 0 0 0 0 0 0
0 0 0 0 1 3 7 13 11 0 10 7 10 2 1 1 10 17 13 0 0 0 0 0 7 8 4 2 0 1 0 0 0 0 0 0 0 0 0 0 0 0 0 0 0
0 1 0 0 5 10 7 23 15 7 0 1 2 5 2 1 1 2 1 0 0 0 0 0 0 3 3 2 0 0 0 0 0 0 0 0 0 0 0 0 0 0 0 0 0
0 12 0 0 10 15 27 8 4 6 0 0 0 2 7 3 7 6 0 0 0 0 0 0 3 4 2 0 0 0 0 0 0 0 0 0 0 0 0 0 0 0 0 0 0
1 0 0 0 20 1 0 3 3 0 0 0 0 0 0 2 6 3 0 0 0 0 0 0 0 6 1 0 0 0 0 0 0 0 0 0 0 0 0 0 0 0 0 0 0
1 4 2 0 0 2 0 0 0 0 0 0 0 0 0 0 0 0 0 0 0 0 0 0 0 0 0 1 0 0 0 0 0 0 0 0 0 0 0 0 0 0 0 0 0
4 1 1 13 2 2 0 0 0 1 0 0 0 0 0 0 0 0 0 0 0 0 0 0 0 0 0 0 0 0 0 0 0 0 0 0 0 0 0 0 0 0 0 0 0
1 9 2 3 0 0 0 0 0 0 0 0 1 0 0 0 0 0 0 0 0 0 0 0 0 0 0 0 0 0 0 0 0 0 0 0 0 0 0 0 0 0 0 0 0
2 2 6 0 0 0 2 2 3 0 0 0 3 9 3 0 0 0 0 0 0 0 0 1 1 0 1 0 0 0 0 0 0 0 0 0 0 0 0 0 0 0 0 0 0

GFSSW_con_sbcape_036.txt.gz
CAPE
54 70 73 87 86 96 96 73 79 95 57 65 112 9 0 1 9 4 0 9 34 171 10 0 0 226 340 115 43 83 49 20 3 21 34 15 3 0 0 0 0 0 14 689 838
71 78 87 93 112 135 103 96 99 107 99 77 79 73 0 0 0 0 0 72 306 168 6 0 2 283 117 56 49 40 32 1 0 7 62 35 0 0 0 0 0 0 7 612 686
87 102 131 105 151 157 126 80 142 142 113 65 107 80 0 0 0 0 0 108 440 218 17 0 2 219 235 37 12 11 0 0 4 0 0 1 0 0 0 0 0 0 15 161 417
139 166 191 160 149 167 141 148 165 148 113 98 68 95 10 0 1 80 0 163 671 158 75 68 1 149 159 14 0 0 0 3 14 0 0 0 0 0 0 0 0 0 0 186 304
119 162 204 210 174 137 118 166 158 154 130 127 117 129 24 5 0 102 177 236 344 241 23 109 0 48 74 13 0 0 0 0 5 0 0 0 0 0 0 0 0 0 0 0 0
104 142 211 192 103 28 41 49 151 82 103 114 110 74 1 11 5 126 132 189 241 146 8 72 0 13 110 96 0 0 1 0 6 0 0 0 0 0 0 0 0 0 0 0 0
100 94 160 131 19 3 5 32 117 154 147 90 103 51 8 0 67 155 52 1 78 107 43 5 12 19 93 90 20 15 0 0 0 0 0 1 0 0 0 0 0 0 0 0 0
69 96 132 119 7 13 51 63 123 177 160 146 91 9 6 0 0 0 65 54 1 37 106 62 41 19 171 10 24 24 7 4 0 0 0 0 0 0 0 0 0 0 0 0 0
38 52 40 25 21 25 50 88 146 249 176 85 15 10 0 20 0 0 0 16 20 81 60 65 88 40 126 17 35 31 0 0 0 0 0 0 0 0 0 0 0 0 0 0 0
11 2 6 10 16 36 37 94 160 185 159 56 21 8 0 0 4 0 0 155 88 110 23 73 70 40 62 19 5 0 0 0 0 0 0 0 0 0 0 0 0 0 0 0 0
0 0 30 0 7 0 23 223 199 140 81 11 3 1 4 11 110 35 244 181 47 118 55 64 27 1 0 0 0 0 0 0 0 0 0 0 0 0 0 0 0 0 0 0 0
8 1 3 16 0 10 37 4 5 12 14 0 0 0 0 0 80 163 154 12 51 73 80 65 6 0 4 0 0 1 0 0 0 0 0 0 0 0 0 0 0 0 0 0 0
22 2 0 1 0 27 9 6 7 4 35 58 2 0 34 31 62 74 7 1 13 61 19 5 9 24 1 0 0 0 0 0 0 0 0 0 0 0 0 0 0 0 0 0 0
7 14 2 0 0 0 0 2 2 0 9 8 25 53 72 79 49 76 46 7 2 20 29 5 23 26 18 20 1 0 0 0 0 0 0 0 0 0 0 0 0 0 0 0 0
7 8 9 0 1 6 0 0 0 7 13 5 0 0 42 30 12 39 15 0 0 18 17 0 12 23 28 14 9 9 2 0 0 0 0 0 0 0 0 0 0 0 0 0 0
4 11 2 1 9 0 0 0 4 4 21 1 1 9 31 34 16 4 6 0 0 0 0 2 0 0 0 2 3 19 0 0 0 0 0 0 0 0 0 0 0 0 0 0 0
6 2 4 0 4 0 0 2 1 1 0 2 18 20 11 8 9 3 4 4 2 0 0 1 3 0 0 0 2 0 0 5 18 0 0 0 0 0 0 0 0 0 0 0 0
3 1 0 0 1 0 1 4 0 0 3 2 16 4 2 3 1 8 8 7 7 0 6 2 0 1 0 0 0 5 0 14 0 0 0 0 0 0 0 0 0 0 0 0 0
0 0 0 0 0 1 1 1 1 0 0 6 3 12 1 0 0 10 12 11 15 3 7 10 11 7 1 0 0 5 0 0 0 0 0 0 0 0 0 0 0 0 0 0 0
0 0 0 0 0 0 3 1 1 0 1 0 4 0 4 2 5 16 0 1 2 0 0 0 10 9 2 0 0 0 0 0 0 0 0 0 0 0 0 0 0 0 0 0 0
0 0 0 0 0 1 2 8 0 0 0 0 4 0 0 0 0 1 0 0 0 0 0 0 0 23 5 6 1 0 0 0 0 0 0 0 0 0 0 0 0 0 0 0 0
0 0 0 0 7 19 10 0 0 0 0 0 0 0 0 0 0 1 1 0 0 0 0 0 0 3 3 0 0 0 0 0 0 0 0 0 0 0 0 0 0 0 0 0 0
0 0 0 0 8 0 0 0 0 0 0 0 0 0 0 0 0 0 0 0 0 0 0 0 0 0 0 0 0 0 0 0 0 0 0 0 0 0 0 0 0 0 0 0 0
1 0 7 6 0 10 6 1 1 0 0 0 0 0 0 0 0 0 0 0 0 0 0 0 0 0 0 0 0 0 0 0 0 0 0 0 0 0 0 0 0 0 0 0 0
0 0 0 6 2 0 0 6 9 10 0 0 0 0 0 0 0 0 0 0 0 0 0 0 0 0 0 0 0 0 0 0 0 0 0 0 0 0 0 0 0 0 0 0 0
1 2 0 0 0 0 0 1 8 2 0 0 1 0 0 1 0 0 0 0 0 0 0 0 0 0 0 0 0 0 0 0 0 0 0 0 0 0 0 0 0 0 0 0 0
0 3 2 0 1 0 0 0 1 0 0 0 6 12 4 1 0 0 0 0 0 0 0 0 0 0 0 0 0 0 0 0 0 0 0 0 0 0 0 0 0 0 0 0 0

GFSSW_con_sbcape_039.txt.gz
CAPE
58 92 102 106 130 151 186 127 99 106 89 81 53 73 5 0 3 0 3 0 51 119 0 0 0 45 184 56 18 9 12 2 0 5 8 1 0 0 0 0 0 0 277 633 624
100 122 142 179 180 154 183 154 110 122 93 79 76 93 6 4 1 0 0 17 146 359 0 0 0 124 149 39 33 24 30 0 0 0 0 1 0 0 0 0 0 388 676 684 505
81 77 118 172 194 147 156 133 123 118 110 100 85 121 40 0 0 0 0 4 244 434 2 0 0 265 147 32 4 5 0 0 0 0 15 0 0 0 0 0 0 92 578 477 438
53 113 136 180 214 158 151 129 148 136 85 116 92 116 56 10 0 0 2 32 374 318 0 0 6 141 164 27 5 0 0 1 10 29 4 0 0 0 0 0 0 0 129 256 371
86 85 88 160 167 92 64 31 109 100 79 98 139 165 5 2 0 0 4 103 319 222 11 17 0 58 94 37 13 0 0 4 11 0 0 0 0 0 0 0 0 0 17 161 210
42 44 69 104 27 1 2 15 81 47 67 94 154 199 19 11 10 75 131 94 228 197 27 20 0 6 88 47 20 0 3 0 2 0 0 0 0 0 0 0 0 0 0 0 0
51 54 63 15 30 10 20 24 81 131 128 80 115 60 9 1 1 70 92 28 130 179 71 17 1 17 18 60 52 1 23 0 0 0 2 0 0 0 0 0 0 0 0 0 0
27 21 19 7 3 27 51 60 94 149 121 107 77 6 4 0 0 0 42 36 6 7 72 46 0 2 14 12 3 21 4 4 0 0 0 0 0 0 0 0 0 0 0 0 0
7 39 7 3 0 6 9 37 95 169 149 39 0 3 0 6 0 0 0 15 2 39 88 109 45 7 12 29 14 9 0 0 0 0 0 0 0 0 0 0 0 0 0 0 0
6 1 33 26 14 0 14 78 94 107 60 15 5 2 0 0 0 0 0 110 60 52 11 62 36 9 17 8 1 0 0 0 0 0 0 0 0 0 0 0 0 0 0 0 0
33 4 0 0 21 12 0 0 0 0 0 3 1 0 0 4 66 0 216 87 52 22 0 23 93 0 0 0 0 0 0 0 0 0 0 0 0 0 0 0 0 0 0 0 0
11 20 11 0 13 7 1 0 3 0 0 0 0 0 0 5 64 143 175 22 29 15 21 18 5 0 0 0 0 0 0 0 0 0 0 0 0 0 0 0 0 0 0 0 0
4 6 13 1 0 0 0 0 3 1 11 14 0 0 37 47 55 70 17 1 4 18 30 3 0 0 0 0 0 0 0 0 0 0 0 0 0 0 0 0 0 0 0 0 0
10 4 4 8 0 0 0 0 0 0 2 8 16 17 1 0 54 55 6 7 45 6 29 2 2 0 0 0 0 0 0 0 0 0 0 0 0 0 0 0 0 0 0 0 0
11 6 3 11 0 0 0 0 0 0 0 1 28 23 35 31 11 3 16 5 27 22 18 1 0 4 0 0 0 0 0 0 0 0 0 0 0 0 0 0 0 0 0 0 0
2 4 2 0 0 0 0 0 0 0 0 2 14 13 37 13 25 11 24 0 0 0 0 2 0 0 0 0 12 2 0 0 0 0 0 0 0 0 0 0 0 0 0 0 0
0 3 1 0 0 0 0 0 0 0 0 1 11 14 12 23 10 4 2 0 1 0 0 0 2 0 0 0 0 0 0 0 1 0 0 0 0 0 0 0 0 0 0 0 0
0 0 0 0 0 0 0 0 0 0 0 0 16 5 3 7 5 4 7 11 0 0 4 0 0 0 0 0 0 0 0 0 0 0 0 0 0 0 0 0 0 0 0 0 0
0 0 0 0 0 0 1 0 0 0 0 1 3 0 0 0 0 11 11 18 8 0 0 3 0 2 0 0 0 0 0 0 0 0 0 0 0 0 0 0 0 0 0 0 0
0 0 0 0 0 0 0 0 0 0 0 0 0 0 0 0 3 5 7 3 5 0 0 0 4 6 2 0 0 0 0 0 0 1 0 0 0 0 0 0 0 0 0 0 0
0 0 0 0 0 0 0 0 0 0 0 0 0 0 0 0 0 0 0 0 0 0 0 0 0 15 8 4 3 0 0 0 0 0 0 0 0 0 0 0 0 0 0 0 0
0 1 0 0 0 0 0 0 0 0 0 0 0 0 0 0 0 0 0 0 0 0 0 0 0 5 11 2 0 0 0 0 0 1 0 0 0 0 0 0 0 0 0 0 0
0 0 0 0 3 0 0 0 0 0 0 0 0 0 0 0 0 0 0 0 0 0 0 0 0 0 1 0 0 0 0 0 0 0 0 0 0 0 0 0 0 0 0 0 0
0 0 0 0 0 4 0 0 0 0 0 0 0 0 0 0 0 0 0 0 0 0 0 0 0 0 0 0 0 0 0 0 0 0 0 0 0 0 0 0 0 0 0 0 0
0 0 0 0 0 0 1 8 8 5 0 0 0 0 0 0 0 0 0 0 0 0 0 0 0 0 0 0 0 0 0 0 0 0 0 0 0 0 0 0 0 0 0 0 0
0 0 0 0 0 0 0 15 6 0 0 0 3 0 0 1 0 0 0 0 0 0 0 0 0 0 0 0 0 0 0 0 0 0 0 0 0 0 0 0 0 0 0 0 0
0 0 0 0 0 0 0 0 3 0 1 5 8 8 0 0 0 0 0 0 0 0 0 0 0 0 0 0 0 0 0 0 0 0 0 0 0 0 0 0 0 0 0 0 0

GFSSW_con_sbcape_042.txt.gz
CAPE
50 33 55 111 139 221 196 209 172 159 133 121 93 59 63 47 15 6 0 0 28 363 234 0 0 0 135 41 0 0 0 2 0 0 0 0 0 0 0 0 18 142 375 448 402
49 57 65 97 143 181 179 160 144 141 175 135 94 77 63 4 0 0 0 1 58 245 0 0 0 51 177 46 30 4 0 0 0 0 0 0 0 0 0 0 125 689 599 469 349
34 23 28 67 146 159 161 139 136 116 150 147 129 124 77 5 0 0 0 0 56 259 0 0 0 290 39 15 6 2 0 0 0 0 0 0 0 0 0 0 41 645 700 408 196
37 31 24 58 111 122 126 107 67 167 79 147 128 164 50 0 0 0 42 21 89 211 36 0 0 129 58 25 4 0 0 0 4 58 5 5 0 0 0 0 0 190 436 262 279
24 27 18 18 35 47 71 35 58 51 101 72 124 156 7 0 0 1 87 7 19 170 145 0 2 23 40 0 0 0 2 15 21 56 53 0 0 0 0 0 0 124 268 190 237
16 18 17 17 8 21 52 59 92 125 91 156 221 89 15 2 0 0 0 0 85 166 100 0 0 24 120 11 12 0 5 31 32 41 36 3 0 0 0 0 0 18 140 142 123
11 15 8 9 3 5 81 74 73 176 157 113 188 6 18 0 0 0 5 11 101 110 64 10 0 42 0 25 0 0 34 5 0 0 0 3 4 0 0 0 0 0 0 0 1
3 4 5 2 0 0 0 40 80 114 81 70 40 8 0 0 0 0 8 16 7 63 104 9 0 0 3 0 1 1 0 0 0 0 0 3 0 0 0 0 0 0 0 0 0
18 3 1 1 0 0 0 12 12 76 63 15 0 0 0 4 0 0 0 6 40 71 103 134 10 11 0 0 11 0 0 0 0 0 0 0 0 0 0 0 0 0 0 0 0
11 21 6 0 1 7 19 4 0 2 5 4 0 0 0 0 0 0 3 53 42 74 110 95 29 5 0 5 5 0 0 0 0 0 0 0 0 0 0 0 0 0 0 0 0
5 5 13 16 0 14 2 0 0 0 0 0 0 0 0 0 12 125 58 0 8 72 1 28 7 0 0 0 0 0 0 0 0 0 0 0 0 0 0 0 0 0 0 0 0
15 5 9 12 0 7 0 0 0 0 0 0 0 0 0 0 51 111 7 0 25 1 2 15 4 0 0 0 0 0 0 0 0 0 4 0 0 0 0 0 0 0 0 0 0
11 4 7 6 4 0 0 0 0 0 5 3 2 1 25 9 28 79 67 3 24 0 4 5 2 0 0 1 0 0 0 0 0 0 0 0 0 0 0 0 0 0 0 0 0
17 7 10 3 0 0 0 0 0 0 0 6 18 8 1 1 11 50 62 34 46 45 22 4 5 0 0 0 0 0 0 0 0 0 0 0 0 0 0 0 0 0 0 0 0
14 9 8 5 0 0 0 0 0 0 0 4 26 10 6 3 5 16 41 3 28 43 0 1 9 0 0 0 0 0 0 0 0 0 0 0 0 0 0 0 0 0 0 0 0
7 5 3 0 0 0 0 0 0 0 0 1 10 2 0 7 7 33 34 3 5 0 1 2 0 0 0 0 0 0 0 0 0 0 0 0 0 0 0 0 0 0 0 0 0
2 3 1 0 0 0 0 0 0 0 0 0 18 5 2 5 22 11 4 3 22 3 1 1 0 0 0 14 4 0 0 0 0 0 0 0 0 0 0 0 0 0 0 0 0
0 0 0 0 0 0 0 0 0 0 0 8 14 12 7 14 25 7 12 20 0 0 1 0 20 0 0 0 1 0 0 0 0 0 0 0 0 0 0 0 0 0 0 0 0
0 0 0 0 0 0 0 0 0 0 0 0 0 0 8 11 15 12 4 4 3 0 0 0 0 1 0 0 0 0 0 0 0 0 0 0 0 0 0 0 0 0 0 0 0
0 0 0 0 0 0 0 0 0 0 0 0 0 0 0 3 11 10 19 4 4 0 0 0 1 4 0 0 0 0 0 0 0 0 0 0 0 0 0 0 0 0 0 0 0
0 0 0 0 0 0 0 0 0 0 0 0 0 0 0 0 0 0 0 4 0 0 0 0 0 6 1 4 1 0 0 0 0 0 0 0 0 0 0 0 0 0 0 0 0
0 0 0 0 2 0 0 0 0 0 0 0 0 0 0 0 0 0 0 0 0 0 0 0 1 8 5 1 0 0 0 0 0 0 0 0 0 0 0 0 0 0 0 0 0
0 0 0 0 0 0 0 0 0 0 0 0 0 0 0 0 0 0 0 0 0 0 0 0 0 0 2 0 1 7 0 0 0 0 0 0 0 0 0 0 0 0 0 0 0
0 0 0 0 0 0 0 0 0 0 0 0 0 0 0 0 0 0 0 0 0 0 0 0 0 0 0 0 0 0 0 0 0 0 0 0 0 0 0 0 0 0 0 0 0
0 0 0 0 0 0 0 1 5 4 0 0 0 0 0 0 0 0 0 0 0 0 0 0 0 0 0 0 0 0 0 0 0 0 0 0 0 0 0 0 0 0 0 0 0
0 0 0 0 0 0 0 3 20 0 0 0 3 0 0 0 0 0 0 0 0 0 0 0 0 0 0 0 0 0 0 0 0 0 0 0 0 0 0 0 0 0 0 0 0
0 0 0 0 0 0 0 0 0 0 0 0 7 3 0 0 0 0 0 0 0 0 0 0 0 0 0 0 0 0 0 0 0 0 0 0 0 0 0 0 0 0 0 0 0

GFSSW_con_sbcape_045.txt.gz
CAPE
27 40 35 42 63 111 212 228 172 135 169 158 176 139 83 66 95 50 9 0 4 220 206 0 0 0 64 22 1 1 4 0 0 0 0 0 0 0 0 0 0 254 244 226 37
31 32 28 29 49 148 124 163 171 170 135 168 158 150 129 82 12 0 0 0 65 289 0 0 0 79 186 26 32 26 4 0 0 0 0 0 0 0 0 0 9 551 478 221 189
16 16 21 25 46 100 130 96 66 96 126 144 137 178 197 28 1 0 0 8 0 144 7 0 0 212 190 64 13 11 1 0 0 0 0 0 0 0 0 0 0 10 727 298 133
21 18 16 14 15 32 68 87 90 62 43 83 157 252 171 37 17 4 46 57 12 3 54 0 0 66 42 135 61 12 0 0 10 0 0 0 0 0 0 0 0 0 43 283 257
18 14 11 8 11 17 38 62 120 99 139 91 138 210 44 5 0 0 0 0 7 6 78 0 1 38 10 19 3 0 1 6 57 21 33 0 0 0 0 0 0 0 174 308 339
18 19 10 8 5 13 46 28 63 135 97 120 124 71 14 10 0 0 0 0 5 11 95 0 0 20 45 0 56 0 4 25 9 13 17 6 0 0 0 0 0 142 234 58 248
21 9 16 15 2 3 3 21 43 92 111 118 13 9 15 2 0 0 0 51 10 54 104 0 0 33 2 0 0 0 25 26 31 30 39 23 20 0 0 0 0 0 52 122 54
33 28 10 8 6 0 2 2 9 40 22 26 36 47 2 0 0 0 0 54 139 158 113 23 0 6 1 0 0 2 1 0 2 23 37 2 0 0 0 0 0 0 0 0 0
9 28 38 6 8 0 11 2 5 6 26 0 0 0 0 1 0 0 0 33 79 87 86 35 7 18 0 2 0 0 0 0 0 0 3 0 0 0 0 0 0 0 0 0 0
16 9 20 27 23 12 18 0 0 0 0 0 0 0 0 0 0 0 3 15 58 35 86 79 27 8 0 1 2 0 0 0 0 0 0 0 0 0 0 0 0 0 0 0 0
15 8 7 14 16 17 0 0 0 0 0 0 0 0 0 0 0 126 3 2 0 52 6 66 8 1 0 0 0 0 0 0 0 0 0 0 0 0 0 0 0 0 0 0 0
23 14 8 9 3 13 0 0 0 0 0 0 0 0 0 0 37 34 0 0 7 11 2 0 9 0 0 0 0 0 0 0 0 0 1 0 0 0 0 0 0 0 0 0 0
18 20 4 8 5 0 0 0 0 0 2 0 1 4 31 4 32 39 0 0 2 9 1 2 4 0 1 11 1 0 0 0 0 0 0 0 0 0 0 0 0 0 0 0 0
14 12 6 12 0 0 0 0 0 0 0 4 6 4 22 0 15 67 0 0 34 9 5 1 3 0 0 21 0 0 0 0 0 0 0 0 0 0 0 0 0 0 0 0 0
12 11 5 12 0 0 0 0 0 0 0 10 14 4 2 20 2 15 43 10 19 13 7 3 1 0 0 0 0 0 0 0 0 0 0 0 0 0 0 0 0 0 0 0 0
7 6 5 2 1 0 0 0 0 0 0 1 4 2 8 25 4 30 16 35 12 15 15 4 0 0 0 0 0 0 0 0 0 0 0 0 0 0 0 0 0 0 0 0 0
5 6 1 0 0 0 0 0 0 0 0 4 7 3 3 25 32 36 10 28 5 8 8 4 0 0 0 1 0 0 0 0 2 0 0 0 0 0 0 0 0 0 0 0 0
3 0 1 0 0 0 0 0 0 0 1 1 2 2 8 6 8 2 4 9 1 0 9 1 0 0 0 0 0 0 0 0 0 0 0 0 0 0 0 0 0 0 0 0 0
0 0 0 0 0 0 0 0 0 0 0 0 9 5 10 37 2 8 0 2 0 0 0 0 2 0 0 0 0 0 0 0 0 0 0 0 0 0 0 0 0 0 0 0 0
0 0 0 0 0 0 0 0 0 0 0 0 0 0 9 2 6 17 3 0 0 0 0 0 0 3 0 0 0 0 0 0 0 0 0 0 0 0 0 0 0 0 0 0 0
0 0 0 0 0 0 0 0 0 0 0 0 0 0 0 1 1 0 0 0 5 0 0 0 0 4 0 0 0 0 0 0 0 0 0 0 0 0 0 0 0 0 0 0 0
0 0 0 0 6 0 0 0 0 0 0 0 0 0 0 0 0 0 0 0 1 0 0 0 0 0 0 0 0 0 0 0 0 0 0 0 0 0 0 0 0 0 0 0 0
0 0 0 0 0 0 0 0 0 0 0 0 0 0 0 0 0 0 0 0 0 0 0 0 0 1 2 14 0 3 0 0 0 0 0 0 0 0 0 0 0 0 0 0 0
0 0 0 1 0 0 0 0 0 0 0 0 0 0 0 0 0 0 0 0 0 0 0 0 0 0 0 0 0 1 3 0 0 0 0 0 0 0 0 0 0 0 0 0 0
0 0 0 0 0 0 0 0 2 2 0 0 0 0 0 0 0 0 0 0 0 0 0 0 0 0 0 0 0 0 0 1 0 0 0 0 0 0 0 0 0 0 0 0 0
0 0 0 0 0 0 0 0 2 5 0 0 1 0 0 0 0 0 0 0 0 0 0 0 0 0 0 0 0 0 0 0 0 0 0 0 0 0 0 0 0 0 0 0 0
0 0 0 0 0 0 0 0 0 0 1 0 2 0 0 0 0 0 0 0 0 0 0 0 0 0 0 0 0 0 0 0 0 0 0 0 0 0 0 0 0 0 0 0 0

GFSSW_con_sbcape_048.txt.gz
CAPE
19 29 31 26 29 23 52 100 146 122 110 135 138 179 169 111 93 58 36 0 16 208 285 0 0 11 114 58 18 5 1 0 0 0 0 0 0 0 0 0 0 224 212 152 81
18 16 17 14 15 26 52 73 66 67 92 138 139 161 184 147 67 50 31 13 99 265 6 0 0 61 214 83 94 42 21 0 0 0 0 0 0 0 0 0 0 0 0 30 209
22 25 22 15 16 17 13 58 93 77 70 99 105 129 178 96 18 0 4 166 78 64 16 0 0 52 87 113 49 40 1 0 0 0 0 0 0 0 0 0 0 0 0 0 4
18 25 19 15 15 25 22 29 51 64 76 47 96 288 274 49 15 46 30 89 123 23 51 0 0 0 30 60 72 5 11 0 0 6 0 0 0 0 0 0 0 0 0 0 12
17 13 15 16 12 13 24 23 38 100 138 90 136 226 22 10 18 0 2 0 0 9 40 1 0 0 13 35 81 33 0 0 17 3 25 9 0 0 0 0 0 0 0 0 130
48 12 11 10 16 7 4 4 8 69 76 81 86 86 68 7 0 0 0 3 0 30 22 0 0 4 13 50 103 14 8 58 50 32 22 5 0 0 0 0 0 0 0 6 33
31 35 28 16 20 11 8 0 1 4 50 78 33 5 24 26 1 0 0 14 38 11 120 0 1 25 29 58 13 12 88 53 45 7 28 10 0 0 0 0 0 0 0 0 0
14 22 34 50 12 11 21 56 0 0 9 1 22 8 1 0 0 0 0 69 42 32 146 74 0 19 1 0 0 10 73 80 28 0 32 0 0 0 0 0 0 0 0 0 0
29 10 14 26 38 14 25 54 0 0 0 0 0 0 0 0 1 0 0 59 207 145 135 134 5 32 0 11 2 1 3 0 17 0 7 0 0 0 0 0 0 0 0 0 0
33 24 10 20 27 30 19 6 0 0 0 0 0 0 0 0 0 0 2 6 51 115 27 67 39 16 0 11 1 0 0 0 0 0 0 0 0 0 0 0 0 0 0 0 0
20 25 7 19 14 20 0 0 0 0 0 0 0 0 0 0 28 10 0 0 29 31 1 1 15 11 0 0 0 0 0 0 0 0 0 0 0 0 0 0 0 0 0 0 0
12 24 8 6 12 15 0 0 0 0 0 0 0 0 0 0 0 8 0 11 23 16 1 4 3 0 8 0 0 0 0 0 0 0 0 1 0 0 0 0 0 0 0 0 0
30 20 6 14 11 0 0 0 0 0 0 0 0 1 4 1 9 12 0 1 5 3 2 7 0 0 24 4 0 0 0 0 0 0 0 0 0 0 0 0 0 0 0 0 0
23 13 16 14 1 0 0 0 0 0 0 1 5 2 1 0 16 27 0 32 28 5 10 2 1 1 22 33 0 0 0 0 0 0 0 0 1 0 0 0 0 0 0 0 0
12 11 3 22 0 0 0 0 0 0 0 8 10 0 0 17 0 18 0 1 2 7 6 1 4 0 0 30 6 0 0 0 0 0 0 0 0 0 0 0 0 0 0 0 0
13 7 8 7 4 0 0 0 0 0 0 3 1 3 0 15 4 24 18 2 32 16 9 8 0 0 0 0 0 0 0 0 0 0 0 0 0 0 0 0 0 0 0 0 0
5 9 6 0 0 0 0 0 0 0 0 10 15 0 2 7 10 5 6 5 16 1 1 7 1 0 0 0 0 0 0 0 0 0 0 0 0 0 0 0 0 0 0 0 0
4 1 1 0 0 0 0 0 0 0 2 6 5 1 7 2 1 0 4 11 0 0 0 12 0 0 0 0 0 0 0 0 0 0 0 0 0 0 0 0 0 0 0 0 0
0 0 0 0 0 0 0 0 0 0 0 8 16 27 3 27 4 8 0 1 0 0 0 0 3 0 0 0 0 0 0 0 0 0 0 0 0 0 0 0 0 0 0 0 0
0 0 0 0 0 0 0 0 0 0 0 1 9 5 17 22 1 2 0 0 0 0 0 0 3 4 0 0 0 0 0 0 0 0 0 0 0 0 0 0 0 0 0 0 0
0 0 0 0 0 0 0 0 0 0 0 0 0 0 2 7 2 8 0 0 0 0 0 0 0 5 0 0 0 0 0 0 0 0 0 0 0 0 0 0 0 0 0 0 0
0 0 0 0 6 0 0 0 0 0 0 0 0 0 0 0 2 0 0 0 0 0 0 0 0 0 16 0 0 0 0 0 0 0 0 0 0 0 0 0 0 0 0 0 0
0 0 0 0 0 0 0 0 0 0 0 0 0 0 0 0 0 0 0 0 0 0 0 0 0 0 0 0 0 0 0 0 0 0 0 0 0 0 0 0 0 0 0 0 0
0 0 0 3 0 0 0 0 0 0 0 0 0 0 0 0 0 0 0 0 0 0 0 0 0 0 0 0 0 0 0 0 0 1 0 0 0 0 0 0 0 0 0 0 0
0 0 0 0 0 0 0 0 0 0 0 0 0 0 0 0 0 0 0 0 0 2 0 0 0 0 0 0 0 0 0 0 0 0 0 0 0 0 0 0 0 0 0 0 0
0 0 0 0 0 0 0 0 0 2 0 0 1 0 0 0 0 0 0 0 0 0 0 0 0 0 0 0 0 0 0 0 0 0 0 0 0 0 0 0 0 0 0 0 0
0 0 0 0 0 0 0 0 0 0 0 3 8 0 0 0 0 0 0 0 0 0 0 0 0 0 0 0 0 0 0 0 0 0 0 0 0 0 0 0 0 0 0 0 0

GFSSW_con_sbcape_051.txt.gz
CAPE
27 21 16 22 18 14 25 23 31 46 70 128 127 78 132 149 127 67 70 10 33 185 208 0 0 214 128 76 88 35 38 9 0 0 0 0 0 0 0 0 0 12 0 47 109
9 34 22 23 16 21 12 17 33 40 58 81 86 108 141 172 74 33 61 91 135 129 8 0 0 222 243 154 92 49 6 14 0 0 0 0 0 0 0 0 0 0 0 0 110
20 9 22 20 20 18 20 40 25 11 20 21 29 82 123 97 2 0 66 121 165 87 21 0 0 27 124 128 104 38 6 17 1 0 0 0 2 0 0 0 0 0 0 0 65
52 21 2 21 20 7 30 30 34 34 50 36 94 252 219 6 0 62 88 40 151 78 84 0 0 27 0 63 57 122 0 2 6 20 0 0 0 0 0 0 0 0 0 0 0
37 46 29 4 23 8 5 26 20 24 23 97 102 92 1 0 0 1 2 0 0 0 7 1 0 6 15 13 56 14 2 40 29 2 1 0 0 0 0 0 0 0 0 0 0
9 30 41 28 11 14 11 8 16 8 10 14 7 44 36 14 0 0 0 0 0 5 21 5 0 0 4 33 39 3 44 29 43 8 8 4 0 0 0 0 0 0 0 0 0
51 11 26 25 50 12 13 45 6 0 0 0 49 11 36 16 0 0 0 0 7 91 45 3 0 6 0 12 20 33 69 79 67 51 40 5 0 0 0 0 0 0 0 0 0
40 34 13 23 24 39 10 42 5 0 1 0 0 0 3 0 1 5 0 0 5 118 152 13 1 7 13 0 5 59 78 70 43 23 28 2 0 0 0 0 0 0 0 0 0
44 38 17 23 26 34 36 35 0 0 0 0 0 0 0 0 8 0 0 62 120 81 198 41 39 29 4 26 8 30 9 31 90 20 19 0 0 0 0 0 0 0 0 0 0
35 38 31 19 24 17 32 0 0 0 0 0 0 0 0 0 0 0 2 86 33 117 110 118 37 5 0 3 6 1 0 0 1 20 12 0 0 0 0 0 0 0 0 0 0
34 31 39 12 20 19 0 0 0 0 0 0 0 0 0 0 16 0 0 13 52 35 34 4 13 4 0 0 0 0 0 0 0 22 5 0 0 0 0 0 0 0 0 0 0
43 34 34 5 18 11 0 0 0 0 0 0 0 0 0 0 0 2 0 10 60 8 4 4 2 0 0 0 0 0 0 0 0 24 22 6 7 0 0 0 0 0 0 0 0
36 28 27 7 20 0 0 0 0 0 0 0 0 0 0 0 0 11 0 5 6 1 2 7 0 0 3 0 5 0 0 0 0 0 0 2 1 0 0 0 0 0 0 0 0
31 26 20 10 1 0 0 0 0 0 0 0 0 0 1 0 7 7 0 18 6 5 1 2 0 5 23 4 1 2 0 0 0 0 1 0 0 0 0 0 0 0 0 0 0
19 16 10 13 0 0 0 0 0 0 0 10 14 0 0 8 0 6 0 9 7 4 1 1 11 7 23 10 0 0 0 0 0 0 0 0 0 0 0 0 0 0 0 0 0
10 5 13 10 2 0 0 0 0 0 0 5 2 0 1 3 15 19 0 7 26 4 4 7 0 0 1 0 0 0 0 0 0 0 1 0 0 0 0 0 0 0 0 0 0
4 12 6 0 0 0 0 0 0 0 3 8 10 0 0 6 12 5 12 18 8 1 2 5 10 0 0 0 0 0 0 0 1 0 0 0 0 0 0 0 0 0 0 0 0
3 1 0 0 0 0 0 0 0 0 8 3 1 0 11 3 0 2 16 25 0 0 5 5 19 0 0 0 0 0 0 0 0 0 0 0 0 0 0 0 0 0 0 0 0
0 0 0 0 0 0 0 0 0 0 5 0 2 0 2 6 0 0 0 0 0 0 0 8 7 0 0 0 0 0 0 0 0 0 0 0 0 0 0 0 0 0 0 0 0
0 0 0 0 0 0 0 0 0 0 1 0 6 4 0 0 0 0 0 0 0 0 0 0 6 1 0 0 0 0 0 0 0 0 0 0 0 0 0 0 0 0 0 0 0
0 0 0 0 0 0 0 0 0 0 0 1 1 10 3 0 0 0 0 0 0 0 0 0 0 9 4 0 0 0 0 0 0 0 0 0 0 0 0 0 0 0 0 0 0
0 0 0 0 8 0 0 0 0 0 0 0 0 0 2 4 0 0 0 0 0 0 0 0 0 0 14 2 0 0 0 0 0 0 0 0 0 0 0 0 0 0 0 0 0
0 0 0 0 1 0 0 0 0 0 0 0 0 0 0 0 0 0 0 0 0 0 0 0 0 0 0 0 0 2 0 0 0 0 0 0 0 0 0 0 0 0 0 0 0
0 0 0 4 0 0 0 0 0 0 0 0 0 0 0 0 0 0 0 0 0 0 0 0 0 0 0 0 0 0 0 0 0 0 0 0 0 0 0 0 0 0 0 0 0
0 0 0 0 0 0 0 0 0 0 0 0 0 0 0 0 0 0 0 0 0 1 0 0 0 0 0 0 0 0 0 0 0 0 0 0 0 0 0 0 0 0 0 0 0
0 0 0 0 0 0 0 0 0 0 0 0 0 0 0 0 0 0 0 0 0 0 0 0 0 0 0 0 0 0 0 0 0 0 0 0 0 0 0 0 0 0 0 0 0
0 0 0 0 0 0 0 0 0 0 0 0 3 0 0 0 0 0 0 0 0 0 0 0 0 0 0 0 0 0 0 0 0 0 0 1 0 0 0 0 0 0 0 0 0

GFSSW_con_sbcape_054.txt.gz
CAPE
24 15 19 12 15 16 14 14 18 12 24 75 86 73 54 88 126 95 43 36 76 168 201 166 89 388 265 393 286 180 106 48 8 0 0 0 11 0 0 0 0 0 0 0 404
52 31 14 21 15 15 24 38 21 4 5 4 10 25 68 140 15 18 24 195 183 109 140 174 103 341 149 281 334 156 71 56 47 10 0 0 12 0 0 0 0 0 0 6 425
36 58 15 2 20 12 17 15 22 25 8 20 17 146 64 114 27 1 11 83 241 144 74 67 84 124 45 71 256 134 97 28 4 13 10 23 17 3 0 0 0 0 0 0 308
14 25 43 10 5 15 9 20 14 19 9 54 50 157 156 74 30 125 135 76 46 92 85 7 74 99 55 61 100 63 100 35 4 45 24 19 17 11 0 0 0 0 0 0 0
56 8 13 41 14 8 11 8 8 11 13 1 12 80 71 47 27 0 3 3 0 48 37 32 72 24 11 54 95 35 0 12 13 31 48 4 12 8 2 0 0 0 0 0 0
47 48 5 20 37 32 8 8 12 0 1 5 13 1 110 19 0 0 0 0 7 18 23 54 37 21 19 29 45 54 79 14 7 17 3 18 19 4 0 0 0 0 0 0 0
52 40 27 16 23 35 11 3 26 0 0 0 3 0 61 15 5 0 0 0 0 33 52 38 45 28 24 45 58 104 142 110 74 23 4 12 16 1 2 0 0 0 0 0 0
57 47 33 18 18 32 33 7 20 0 0 0 0 0 2 0 4 23 2 0 0 5 74 36 52 67 79 58 76 110 116 106 106 124 49 51 0 0 0 0 0 0 0 0 0
46 40 34 22 18 30 13 24 0 0 0 0 0 0 5 4 1 1 0 31 41 62 98 60 68 12 97 85 82 104 55 65 132 91 78 18 11 11 0 0 0 0 0 0 0
45 42 46 22 16 28 3 2 0 0 0 0 0 0 0 0 1 2 6 109 44 76 110 73 68 33 40 45 12 3 33 74 86 36 42 44 28 0 0 0 0 0 0 0 0
50 41 35 27 10 21 7 0 0 0 0 0 0 0 0 7 21 12 3 27 57 73 68 24 7 28 6 10 5 23 27 53 11 61 42 59 51 8 0 0 0 0 0 0 0
40 28 28 21 7 23 0 0 0 0 0 0 0 0 0 34 22 17 13 0 16 51 4 3 7 22 16 8 6 16 23 21 23 52 49 20 8 7 0 0 0 0 0 0 0
37 25 28 18 7 8 0 0 0 0 0 0 0 9 32 52 25 16 2 0 23 14 9 21 2 14 13 30 1 9 7 20 22 58 62 23 7 0 0 0 0 0 0 0 0
24 21 22 9 3 0 0 0 0 0 22 2 1 4 30 59 27 19 9 6 12 26 4 4 2 15 8 17 4 0 0 0 0 0 0 0 0 0 0 0 0 0 0 0 0
19 21 16 5 0 0 0 0 0 0 24 6 1 0 4 44 9 4 7 18 16 15 5 2 15 21 36 18 5 1 0 0 0 3 10 0 4 0 0 0 0 0 0 0 0
18 14 12 16 7 0 0 0 1 10 6 9 4 2 11 26 25 9 25 37 15 2 0 4 1 3 12 0 1 0 0 2 10 33 17 3 8 0 0 0 0 0 0 0 0
12 6 2 0 3 0 0 0 16 20 6 1 1 7 9 22 46 4 34 17 44 55 69 11 6 0 1 0 0 4 27 33 27 38 10 0 0 0 0 0 0 0 0 0 0
5 4 0 0 0 0 0 0 6 5 7 4 0 0 6 8 6 14 14 21 7 0 6 50 23 5 0 6 1 7 11 9 7 9 7 0 0 0 0 0 0 0 0 0 0
1 0 0 0 0 0 1 8 2 4 2 2 1 0 0 5 0 0 2 16 20 5 23 16 20 2 0 0 3 2 11 0 0 0 0 0 0 0 0 0 0 0 0 0 0
1 0 2 0 0 0 1 1 0 0 0 0 4 1 0 1 0 0 1 6 5 1 0 1 37 29 0 2 1 11 0 3 2 0 0 0 0 0 0 0 0 0 0 0 0
0 1 1 0 0 3 2 1 0 0 1 6 23 5 3 0 0 0 0 0 1 0 0 0 1 28 35 59 32 0 6 1 2 0 1 0 0 0 0 0 0 0 0 0 0
0 4 1 0 29 0 1 0 0 1 0 3 1 4 6 0 0 0 0 0 1 0 0 0 7 17 38 3 0 1 8 8 19 5 0 0 0 0 0 0 0 0 0 0 0
1 7 1 1 11 1 0 0 0 0 0 0 0 0 2 0 0 0 0 0 0 0 0 0 1 16 27 4 0 13 0 0 0 0 3 10 5 0 0 0 0 0 0 0 0
0 4 4 7 3 0 0 2 3 0 0 0 0 0 0 0 0 0 2 0 0 0 0 0 0 0 3 0 0 3 5 0 0 12 2 5 0 0 0 0 0 0 0 0 0
0 0 1 2 3 0 0 0 0 3 0 0 0 0 0 0 0 0 0 0 0 2 0 0 0 0 0 0 0 0 0 0 0 0 11 0 1 0 0 0 0 0 0 0 0
0 0 0 0 0 0 0 0 0 0 0 0 0 0 0 0 0 0 0 0 6 0 0 0 3 0 0 0 0 0 0 0 0 0 2 0 0 0 0 0 0 0 0 0 0
0 0 0 0 0 0 0 0 0 0 0 0 2 0 2 0 0 0 0 0 0 1 1 0 0 0 0 0 0 0 0 0 0 0 0 2 0 0 0 0 0 0 0 0 0

GFSSW_con_sbcape_057.txt.gz
CAPE
19 50 32 19 23 17 31 26 26 17 7 2 1 11 51 60 46 58 4 52 89 77 272 130 206 45 172 513 392 223 152 64 47 16 35 0 1 0 0 80 58 0 0 13 675
4 22 47 28 6 16 11 26 32 32 12 7 0 23 22 86 69 41 55 126 199 167 143 183 186 184 164 293 309 284 186 39 63 45 78 10 8 2 21 54 42 0 1 643 714
45 7 28 42 12 7 16 19 17 20 9 13 5 78 42 60 63 27 127 173 152 170 138 124 179 179 0 125 244 192 152 164 26 31 33 15 13 9 24 45 15 0 0 642 560
32 58 12 8 45 8 13 15 13 23 11 1 1 45 93 153 59 162 237 205 110 78 157 141 152 121 104 9 84 181 126 175 141 56 3 34 35 16 26 5 0 0 0 68 643
40 56 37 5 23 32 13 7 24 3 1 1 0 5 120 109 72 75 3 41 43 27 105 61 127 138 54 4 0 78 167 131 68 59 96 20 31 0 1 0 0 0 0 0 244
57 53 38 24 8 20 39 2 16 31 0 0 0 5 116 71 28 0 0 1 59 13 43 99 76 124 52 67 3 12 69 134 134 86 59 63 50 1 0 0 0 0 0 0 0
57 44 37 30 14 13 34 47 15 31 0 0 0 3 24 30 19 15 0 0 49 14 5 41 106 85 27 45 75 26 0 92 32 20 15 2 0 0 0 2 0 0 0 0 0
40 40 39 29 12 4 29 29 34 12 0 0 0 0 20 0 20 31 16 16 8 9 12 0 23 53 54 65 138 69 134 62 5 1 12 0 0 0 0 3 0 0 0 0 0
32 39 49 24 24 8 23 12 26 0 0 0 1 1 19 24 4 7 5 29 39 27 34 51 126 52 93 75 77 72 36 39 63 15 37 0 0 1 0 0 0 0 0 0 0
35 38 35 24 22 12 20 0 2 0 0 0 0 6 4 12 0 0 18 1 59 52 31 64 47 66 69 108 45 32 13 15 36 75 53 9 0 1 7 6 0 0 0 0 0
31 31 31 26 21 11 12 7 8 3 0 0 0 0 0 36 62 30 35 91 47 42 43 11 34 53 15 4 0 9 1 41 42 52 71 3 0 11 21 2 0 0 2 0 4
22 28 31 25 15 13 13 5 0 0 0 0 0 0 0 66 24 11 18 0 30 48 13 11 3 48 34 18 3 12 2 24 40 108 75 56 48 46 19 16 0 0 0 0 0
17 22 19 20 9 12 10 0 0 0 9 9 0 2 16 85 23 38 27 12 23 35 38 22 5 3 29 17 2 26 7 29 56 80 72 30 32 0 0 4 0 0 0 0 1
12 19 20 16 0 6 1 0 0 0 11 6 19 23 52 56 36 1 5 0 13 24 25 5 13 4 46 26 19 17 23 35 36 75 13 18 1 0 0 0 0 0 0 0 0
10 20 18 17 3 5 0 0 0 0 67 8 16 0 26 55 8 20 14 1 17 33 4 24 10 13 33 27 10 17 0 19 25 35 11 25 2 0 0 0 0 0 0 0 0
9 13 15 6 6 4 0 0 5 5 4 30 12 11 25 30 24 4 31 22 19 32 3 7 1 21 23 31 27 3 2 6 12 14 10 0 0 0 0 0 0 0 0 0 0
3 7 1 1 2 0 0 6 29 26 7 0 8 12 13 16 4 6 34 37 27 54 5 8 4 4 7 16 3 37 35 34 15 22 12 0 2 0 0 0 0 0 0 0 0
0 3 1 2 1 0 10 6 14 7 12 6 5 5 13 10 4 12 18 36 18 24 6 33 5 6 8 14 2 1 21 5 2 5 5 0 0 0 0 0 0 0 0 0 0
1 4 5 0 0 3 6 25 17 12 6 0 1 7 7 5 4 15 14 42 27 21 37 28 20 1 14 1 1 4 36 0 1 0 7 4 0 0 0 0 0 0 0 0 0
3 6 6 0 0 21 15 10 8 0 5 0 9 3 11 6 10 8 32 16 11 5 0 3 33 25 2 0 0 25 3 2 1 0 0 0 0 0 0 0 0 0 0 0 0
4 19 5 0 11 21 15 15 0 2 0 2 9 1 6 1 4 1 4 14 1 0 0 16 3 30 13 32 23 6 4 21 19 3 15 0 0 0 0 0 0 0 0 0 0
16 12 2 2 16 11 0 11 1 3 13 11 13 11 5 0 0 4 6 11 15 6 5 0 6 5 11 3 0 9 19 21 19 10 0 0 0 0 0 0 0 0 0 0 0
4 7 4 5 25 10 2 6 3 4 3 7 2 3 1 8 1 9 13 0 7 6 0 0 9 27 17 5 1 6 0 0 13 12 17 12 3 0 0 0 0 0 0 0 0
17 5 18 22 3 8 18 18 8 0 0 0 0 0 2 4 1 4 9 2 1 4 0 1 1 10 7 7 0 0 0 0 1 10 1 1 0 0 0 0 0 0 0 0 0
1 9 1 6 6 7 1 17 10 9 0 0 0 0 0 3 6 3 3 6 3 0 0 2 16 0 0 0 0 0 0 2 7 0 15 0 8 10 0 1 0 0 0 0 0
0 0 0 8 1 7 2 20 15 13 17 0 1 0 0 6 0 4 2 12 4 4 6 0 0 0 0 0 0 0 0 1 14 11 13 9 7 0 0 0 0 0 0 0 0
0 0 0 0 2 23 12 0 1 6 9 9 6 17 3 3 0 0 0 3 5 7 22 18 0 0 10 0 0 0 0 0 0 0 1 3 4 0 1 1 0 0 0 0 0

GFSSW_con_sbcape_060.txt.gz
CAPE
38 11 15 56 25 14 11 19 32 20 20 10 6 4 7 8 11 39 5 1 62 104 208 155 124 117 51 274 378 247 87 1 1 39 62 36 2 0 0 113 13 3 0 260 826
13 49 21 23 49 18 11 8 34 29 17 11 9 5 30 11 8 25 27 65 278 229 133 137 159 155 44 206 282 226 72 7 43 60 25 32 22 0 60 45 12 49 585 761 918
24 42 52 15 14 45 13 13 8 26 17 4 4 0 31 9 8 18 173 211 201 167 122 135 174 183 4 62 164 183 14 0 19 155 47 17 12 10 56 58 2 0 362 690 843
27 45 51 37 11 4 38 16 3 16 3 5 3 0 5 39 31 119 249 242 196 108 39 134 175 160 80 78 133 90 108 113 84 154 54 34 12 38 96 2 0 0 71 685 632
21 48 40 28 24 6 14 48 4 27 5 0 0 0 0 66 53 73 31 96 75 92 29 94 193 106 77 3 126 89 44 154 160 139 5 18 18 1 8 0 0 0 0 111 682
24 38 30 23 37 13 11 31 36 8 37 0 0 0 36 44 15 18 7 1 83 74 37 82 100 123 53 50 75 1 8 27 49 45 86 6 24 0 0 0 0 0 0 0 4
18 20 33 38 41 17 4 28 34 28 8 0 0 0 6 16 2 10 9 0 22 48 25 1 4 62 43 52 79 0 2 3 59 49 26 1 0 0 0 0 0 0 0 0 0
18 21 34 39 40 29 4 24 13 27 3 0 16 0 7 0 2 26 27 13 2 53 11 0 3 12 34 79 20 0 0 1 44 54 5 0 0 0 0 0 0 0 0 0 0
12 27 31 32 31 28 4 16 3 2 1 0 0 19 12 6 0 0 6 9 11 40 2 9 23 79 62 55 39 18 1 5 17 24 12 0 0 0 0 0 0 0 0 0 0
9 29 25 27 29 21 3 1 0 0 0 0 0 1 6 17 0 3 29 14 23 49 46 2 33 38 35 35 18 12 3 2 0 2 7 0 0 13 0 0 0 0 0 0 0
20 19 23 27 28 13 4 0 1 0 0 0 0 0 0 30 31 33 63 4 68 48 3 4 3 0 0 0 0 0 0 0 0 28 18 1 0 0 0 0 0 0 0 0 0
13 19 17 14 20 3 13 2 2 0 4 0 0 0 0 14 45 64 4 1 8 21 7 6 9 0 2 27 5 25 6 0 41 66 41 18 1 0 0 0 0 0 0 0 0
15 14 12 13 15 2 1 7 0 0 24 0 0 2 0 60 40 50 4 0 8 9 9 7 8 13 12 16 1 0 1 7 52 78 60 16 2 0 0 0 0 0 0 0 0
13 8 10 22 0 1 3 0 0 0 22 3 7 4 20 10 15 3 1 1 24 7 22 6 0 0 0 1 4 31 16 105 66 45 11 8 0 0 0 0 0 0 0 0 0
7 5 14 22 0 2 0 0 0 2 27 0 0 0 6 16 2 9 15 7 8 11 0 5 2 3 12 12 16 29 33 4 56 54 10 2 0 0 0 0 0 0 0 0 0
2 8 15 0 2 1 0 0 1 6 1 0 0 2 8 15 1 15 10 0 36 9 21 23 13 5 31 15 5 0 9 0 0 0 0 0 0 0 0 0 0 0 0 0 0
0 2 0 1 9 0 0 1 10 18 1 0 0 5 16 0 1 12 12 13 21 1 2 3 6 2 1 9 18 0 3 0 0 0 0 0 0 0 0 0 0 0 0 0 0
0 0 1 1 2 0 1 11 6 2 21 0 1 0 15 8 0 16 2 0 0 2 6 11 1 2 28 16 7 4 5 1 0 0 0 0 0 0 0 0 0 0 0 0 0
0 0 0 0 0 0 14 9 10 4 0 0 2 7 6 0 0 10 12 6 3 18 5 11 7 7 3 0 1 4 9 0 0 0 1 0 0 0 0 0 0 0 0 0 0
1 3 0 0 0 6 17 9 2 5 0 0 7 0 0 0 0 5 9 7 3 2 0 1 16 2 0 0 0 0 0 0 1 0 0 0 0 0 0 0 0 0 0 0 0
0 13 0 0 1 15 9 1 8 7 0 3 0 0 0 0 3 1 17 2 8 2 0 2 1 13 0 7 0 0 0 0 0 0 4 0 0 0 0 0 0 0 0 0 0
20 17 2 5 8 17 7 11 4 6 6 7 0 2 5 0 0 1 12 12 9 0 0 0 0 4 13 1 0 0 6 1 5 0 0 0 0 0 0 0 0 0 0 0 0
10 2 3 6 19 1 2 1 3 2 8 15 4 0 4 3 0 1 6 0 9 0 1 2 1 0 0 0 0 1 0 0 1 0 0 0 0 0 0 0 0 0 0 0 0
5 3 4 11 1 0 6 4 0 0 0 1 1 4 3 1 1 4 3 9 3 3 0 0 2 2 0 0 0 0 0 0 0 0 0 0 0 0 0 0 0 0 0 0 0
4 0 0 7 1 0 15 7 0 0 0 0 0 1 1 3 1 0 0 1 4 0 0 0 1 0 0 0 0 0 0 0 0 0 0 0 0 0 0 0 0 0 0 0 0
0 0 0 0 0 3 1 11 17 0 9 0 1 0 0 1 0 0 0 0 3 0 0 0 0 0 0 0 0 0 0 1 2 5 0 0 0 0 0 0 0 0 0 0 0
0 0 0 0 5 4 2 0 7 0 0 1 7 3 0 0 0 0 0 0 3 2 2 3 0 0 0 0 0 0 0 0 0 0 0 0 0 0 0 0 0 0 0 0 0

GFSSW_con_sbcape_063.txt.gz
CAPE
16 22 41 22 20 41 20 11 4 31 30 14 14 14 10 9 10 0 0 1 5 26 280 121 198 124 166 118 300 99 73 1 0 0 11 0 10 0 0 6 55 7 74 617 751
23 40 37 41 17 18 39 17 5 11 32 15 6 7 3 9 0 0 14 155 106 193 83 92 124 117 99 62 210 150 47 0 3 45 0 0 1 0 23 1 306 700 893 793 848
26 30 49 37 25 14 1 36 18 7 10 2 2 3 3 0 3 0 127 151 189 114 100 47 131 123 41 24 147 79 27 0 22 156 0 0 0 4 12 0 0 513 653 909 699
30 33 42 33 21 31 11 3 56 6 46 0 0 0 0 1 3 50 180 172 179 93 70 56 177 114 138 45 95 90 84 15 231 130 7 9 0 1 0 0 0 315 679 835 746
33 32 34 37 26 36 20 10 34 30 7 27 0 0 0 21 23 72 45 94 129 120 27 19 55 115 74 0 47 75 51 72 117 144 0 0 0 0 0 0 0 60 605 661 741
34 32 19 34 35 50 16 2 34 44 4 9 0 3 2 10 4 62 9 3 87 90 5 0 51 65 78 0 117 25 33 133 75 64 11 1 0 0 0 0 0 0 4 334 636
30 35 23 38 43 44 15 2 23 15 11 2 0 0 0 0 2 14 1 6 18 63 36 11 30 8 28 47 7 18 47 0 29 56 50 9 0 0 0 0 0 0 0 0 191
28 19 23 33 33 36 20 2 5 2 2 0 0 0 0 0 0 0 19 57 1 53 53 28 13 3 35 31 28 14 9 3 0 1 5 0 0 0 0 0 0 0 0 0 0
17 7 26 26 30 26 10 0 0 0 0 0 0 2 0 8 0 0 0 31 28 48 3 3 1 36 52 39 12 10 2 3 0 4 6 0 0 0 0 0 0 0 0 0 0
5 12 21 27 29 27 0 0 0 0 0 0 0 0 0 1 0 7 25 16 30 45 1 3 0 15 13 20 12 1 0 0 0 13 0 0 0 0 0 0 0 0 0 0 0
8 7 11 22 14 5 0 0 0 0 0 0 0 0 0 54 17 32 69 5 40 44 1 2 0 2 0 0 4 0 0 0 0 0 12 4 0 0 0 0 0 0 0 0 0
10 4 10 6 7 0 0 0 0 0 0 0 0 0 0 38 54 53 3 0 27 22 5 2 0 0 0 0 2 17 6 0 3 1 27 0 0 0 0 0 0 0 0 0 0
6 3 3 3 0 0 0 0 0 0 0 0 0 0 8 49 24 66 1 0 7 7 7 1 0 22 0 0 26 4 0 0 7 39 26 7 1 0 0 0 0 0 0 0 0
2 2 3 3 0 0 0 0 0 0 0 0 3 3 9 6 9 23 1 0 20 5 9 10 7 1 0 11 0 0 0 32 53 34 22 1 0 0 0 0 0 0 0 0 0
2 0 5 2 0 2 0 0 0 0 0 0 0 0 0 12 6 17 15 6 10 4 9 2 3 14 20 3 0 0 0 0 5 12 0 0 0 0 0 0 0 0 0 0 0
0 1 12 0 0 2 0 0 0 0 0 0 0 0 3 11 9 23 7 0 22 6 10 10 2 2 8 0 0 0 0 0 0 0 0 0 0 0 0 0 0 0 0 0 0
0 2 0 0 4 0 0 0 0 0 0 0 0 0 2 0 5 2 0 1 0 1 5 2 1 0 0 0 0 0 0 0 0 0 0 0 0 0 0 0 0 0 0 0 0
0 0 0 0 0 0 0 1 0 0 0 0 0 0 0 0 0 0 0 0 0 0 5 5 1 0 0 0 0 0 0 0 0 0 0 0 0 0 0 0 0 0 0 0 0
0 0 0 0 0 0 0 1 0 0 0 0 0 0 0 0 0 0 0 4 0 0 0 12 6 0 0 0 0 0 0 0 0 0 0 0 0 0 0 0 0 0 0 0 0
0 0 3 0 0 0 1 2 0 1 0 0 0 0 0 0 0 1 0 0 0 0 0 0 2 0 0 0 0 0 0 0 0 0 0 0 0 0 0 0 0 0 0 0 0
0 1 0 0 0 0 0 2 8 0 0 1 0 0 0 0 0 2 0 2 0 0 0 0 0 1 0 0 0 0 0 0 0 0 0 0 0 0 0 0 0 0 0 0 0
0 0 0 0 2 0 0 6 2 2 4 0 0 0 0 0 0 0 6 1 0 0 0 0 0 0 3 0 0 0 0 0 0 0 0 0 0 0 0 0 0 0 0 0 0
0 3 4 3 0 0 1 5 18 2 18 0 0 0 0 0 0 6 2 2 15 0 0 0 0 0 1 0 0 0 0 0 0 0 0 0 0 0 0 0 0 0 0 0 0
0 2 11 11 0 0 0 0 1 3 13 10 0 0 3 0 0 2 1 6 2 0 0 0 0 0 0 0 0 0 0 0 0 0 0 0 0 0 0 0 0 0 0 0 0
0 0 0 1 0 0 4 0 0 0 0 0 1 2 1 0 0 5 0 6 0 0 0 0 0 0 0 0 0 0 0 0 0 0 0 0 0 0 0 0 0 0 0 0 0
0 0 0 0 0 0 0 5 0 1 0 0 2 0 0 0 0 0 0 0 0 0 0 0 0 0 0 0 0 0 0 0 0 0 0 0 0 0 0 0 0 0 0 0 0
0 0 0 0 0 0 0 4 3 0 0 0 1 0 0 0 0 0 0 0 0 0 0 0 0 0 0 0 0 0 0 0 0 0 0 0 0 0 0 0 0 0 0 0 0

GFSSW_con_sbcape_066.txt.gz
CAPE
13 20 32 25 18 19 19 43 18 1 4 24 10 12 12 11 3 0 0 0 0 67 109 0 62 142 134 182 70 266 65 3 0 0 0 0 0 0 0 85 256 22 197 137 194
7 19 26 43 26 12 13 2 44 18 3 5 1 6 9 8 0 0 0 45 187 96 31 0 164 201 114 106 251 246 36 4 0 0 0 0 0 5 30 226 578 869 768 514 326
11 24 27 40 26 19 24 14 4 52 4 46 0 0 0 0 0 0 29 115 88 112 63 56 42 164 97 138 104 104 44 22 27 134 0 0 0 12 24 9 150 676 804 760 664
17 22 25 33 32 23 25 22 8 38 10 37 3 0 0 0 0 0 56 124 167 95 47 24 97 167 93 36 107 105 66 13 79 81 3 0 0 26 0 0 78 606 855 866 751
13 17 27 20 27 25 36 17 8 41 25 13 7 0 0 0 0 0 33 1 156 78 25 4 85 68 102 18 0 59 2 39 30 135 22 0 0 0 0 0 192 741 696 841 775
16 19 30 15 25 37 42 15 2 33 31 21 0 0 0 0 0 40 29 0 77 58 29 3 97 54 81 22 0 47 76 46 29 86 31 2 0 0 0 0 201 371 556 600 581
9 15 15 16 20 22 40 13 1 6 14 7 1 0 0 0 0 1 0 2 32 74 39 45 20 8 55 32 37 44 28 11 86 2 42 0 0 0 0 0 0 0 37 330 393
9 10 5 19 22 24 11 9 0 2 3 4 0 0 0 0 0 0 0 20 30 71 48 53 4 0 17 19 69 18 1 10 0 29 18 0 0 0 0 0 0 0 0 0 233
6 0 3 19 20 20 13 3 2 0 1 2 0 0 0 0 0 0 0 12 79 57 33 31 0 1 79 102 49 39 3 0 5 0 33 1 0 0 0 0 0 0 0 0 0
3 0 5 3 11 5 0 0 0 0 0 0 0 0 0 0 0 8 16 7 55 56 10 37 4 4 11 58 20 1 5 4 1 20 0 36 4 0 0 0 0 0 0 0 0
1 2 1 5 1 0 0 0 0 0 0 0 0 0 0 9 24 39 34 31 31 28 1 17 10 10 1 0 0 0 0 0 12 49 13 8 3 0 0 0 0 0 0 0 0
0 0 0 0 0 0 0 0 0 0 0 0 0 0 0 8 17 67 5 45 26 32 2 6 10 2 5 6 7 4 0 0 21 26 12 12 0 0 0 0 0 0 0 0 0
0 0 0 0 0 0 0 0 0 0 0 0 0 0 0 2 9 65 1 0 19 17 7 2 0 0 6 0 34 0 0 0 0 0 42 17 2 0 0 0 0 0 0 0 0
0 0 0 0 0 0 0 0 0 0 0 0 0 0 0 4 17 48 2 5 9 17 14 13 6 0 12 0 0 4 0 48 13 0 0 0 0 0 0 0 0 0 0 0 0
0 0 0 0 0 0 0 0 0 0 0 0 0 0 4 10 4 30 14 18 7 2 11 2 10 0 2 0 0 0 0 47 29 2 0 2 0 0 0 0 0 0 0 0 0
0 0 7 1 0 0 0 0 0 0 0 0 0 0 2 5 15 2 19 11 19 4 2 21 13 0 9 0 0 0 0 0 0 1 0 0 0 0 0 0 0 0 0 0 0
0 1 1 0 0 0 0 0 0 0 0 0 0 0 0 0 1 1 2 4 3 0 0 3 2 16 9 1 3 0 0 0 1 0 0 0 0 0 0 0 0 0 0 0 0
0 1 0 0 0 0 0 0 0 0 0 0 0 0 0 0 0 0 0 2 3 0 0 1 0 11 0 0 0 0 0 0 0 0 0 0 0 0 0 0 0 0 0 0 0
9 0 0 0 0 0 0 0 0 0 0 0 0 0 0 0 0 0 0 0 0 0 0 1 3 0 0 0 0 0 0 0 0 0 0 0 0 0 0 0 0 0 0 0 0
0 0 0 0 0 0 0 0 0 0 0 0 0 0 0 0 0 0 0 0 0 0 0 0 0 0 0 0 0 0 0 0 0 0 0 0 0 0 0 0 0 0 0 0 0
0 0 0 0 0 0 0 0 0 0 0 0 0 0 0 0 0 0 0 0 0 0 0 0 0 0 0 0 0 0 0 0 0 0 0 0 0 0 0 0 0 0 0 0 0
0 0 0 0 0 0 0 3 0 0 0 0 0 0 0 0 0 3 0 0 0 0 0 0 0 0 0 0 0 0 0 0 0 0 0 0 0 0 0 0 0 0 0 0 0
0 8 2 0 2 0 1 10 4 0 0 0 0 0 0 0 0 7 0 0 0 0 0 0 0 0 0 0 0 0 0 0 0 0 0 0 0 0 0 0 0 0 0 0 0
0 4 17 8 0 0 0 5 17 2 0 0 0 0 0 0 0 3 6 8 0 0 0 0 0 0 0 0 0 0 0 0 0 0 0 0 0 0 0 0 0 0 0 0 0
0 0 0 1 1 0 0 0 2 1 0 0 0 0 0 0 0 1 3 4 0 0 0 0 0 0 0 0 0 0 0 0 0 0 0 0 0 0 0 0 0 0 0 0 0
0 0 0 0 0 0 0 0 0 0 0 0 0 0 0 0 0 0 0 0 0 0 0 0 0 0 0 0 0 0 0 0 0 0 0 0 0 0 0 0 0 0 0 0 0
0 0 0 0 0 0 0 2 0 0 0 0 0 0 0 0 0 0 0 0 0 0 0 0 0 0 0 0 0 0 0 0 0 0 0 0 0 0 0 0 0 0 0 0 0

GFSSW_con_sbcape_069.txt.gz
CAPE
5 9 14 14 31 22 14 20 10 48 22 5 13 6 9 15 11 0 0 0 0 6 52 0 0 0 48 105 119 257 195 104 3 0 0 0 0 0 9 55 171 0 60 5 23
8 9 21 14 28 30 25 27 13 4 48 4 43 2 1 5 0 0 0 28 72 88 0 0 0 46 38 71 88 174 69 0 1 0 0 0 0 37 220 379 388 692 513 349 183
9 13 22 18 18 28 29 27 21 8 23 14 41 1 0 2 0 0 26 53 91 105 7 20 47 93 65 94 54 79 77 1 7 48 96 0 1 13 260 235 210 284 233 425 335
11 15 20 21 9 20 30 29 19 10 36 16 31 1 0 0 0 0 30 18 89 80 22 18 47 28 111 53 86 168 45 66 34 175 34 0 11 48 59 116 31 413 599 403 340
14 16 19 25 16 15 35 44 20 8 39 31 16 0 0 0 0 0 42 1 70 98 12 13 16 58 130 3 104 71 77 136 175 192 107 12 12 7 0 8 673 948 888 608 335
15 18 19 10 3 17 20 36 13 1 23 38 17 0 0 0 0 0 19 0 29 43 10 0 12 27 104 31 16 42 3 84 139 201 86 4 0 0 0 17 754 876 618 683 645
15 20 12 0 7 15 14 12 16 2 5 29 22 0 0 0 0 0 0 1 23 103 43 1 15 16 24 51 2 43 7 118 103 89 55 0 0 0 0 118 385 675 571 553 781
13 17 4 0 5 22 12 5 6 8 3 21 19 0 0 0 0 0 0 0 28 126 94 33 33 2 52 31 9 1 0 22 0 0 61 1 2 0 0 0 0 0 9 293 439
13 7 0 0 5 12 4 0 1 2 2 27 0 0 0 0 0 0 0 0 35 74 78 56 21 12 12 80 34 2 0 2 2 0 43 2 0 0 0 0 0 0 0 0 1
17 0 0 0 0 2 0 0 0 0 0 0 0 0 0 0 0 0 3 7 41 44 34 49 6 16 2 65 41 0 0 3 4 20 31 9 0 0 0 0 0 0 0 0 0
5 0 4 0 0 4 0 0 0 0 0 0 0 0 0 0 0 0 12 4 39 35 27 18 24 0 1 1 0 0 1 3 7 25 5 6 13 0 0 0 0 0 0 0 0
2 1 2 0 0 0 0 0 0 0 0 0 0 0 0 0 1 67 0 58 38 30 7 9 32 3 0 0 0 1 2 5 20 34 0 4 2 0 0 0 0 0 0 0 0
1 4 0 0 0 0 0 0 0 0 0 0 0 0 0 0 1 66 6 8 4 21 11 0 0 0 0 0 1 0 0 3 3 30 3 16 1 0 0 0 0 0 0 0 0
4 7 0 0 0 0 0 0 0 0 0 0 0 0 0 3 17 66 11 13 12 11 0 11 4 3 0 1 0 0 0 0 45 0 3 6 0 0 0 0 0 0 0 0 0
15 6 0 0 0 0 0 0 0 0 0 0 0 0 2 7 5 33 14 19 5 13 4 8 4 0 2 3 0 0 14 0 11 22 8 4 1 0 0 0 0 0 0 0 0
23 5 3 2 0 0 0 0 0 0 0 0 0 0 0 6 9 3 8 19 27 16 29 24 21 0 16 4 0 0 0 2 0 3 2 0 0 0 0 0 0 0 0 0 0
31 12 9 0 0 0 0 0 0 0 0 0 0 0 0 0 4 2 3 15 13 2 2 9 1 0 15 3 0 0 0 0 0 0 0 0 0 0 0 0 0 0 0 0 0
31 13 2 0 0 0 0 0 0 0 0 0 0 0 0 0 0 0 0 4 3 0 5 4 7 1 0 0 0 0 0 0 0 0 0 0 0 0 0 0 0 0 0 0 0
28 0 0 0 0 0 0 0 0 0 0 0 0 0 0 0 0 0 0 2 5 0 0 1 0 1 2 0 0 0 0 0 0 0 0 0 0 0 0 0 0 0 0 0 0
1 0 0 0 0 0 0 0 0 0 0 0 0 0 0 0 0 0 0 0 0 0 0 0 0 0 0 0 0 0 0 0 0 0 0 0 0 0 0 0 0 0 0 0 0
0 1 0 0 0 2 0 0 0 0 0 0 0 0 0 0 0 0 0 0 0 0 0 0 0 0 0 0 0 0 0 0 0 0 0 0 0 0 0 0 0 0 0 0 0
4 5 0 0 0 1 0 0 0 0 0 0 0 0 0 0 0 0 0 0 0 0 0 0 0 0 0 0 0 0 0 0 0 0 0 0 0 0 0 0 0 0 0 0 0
8 15 1 0 0 0 0 7 0 0 0 0 0 0 0 0 0 0 0 0 0 0 0 0 0 0 0 0 0 0 0 0 0 0 0 0 0 0 0 0 0 0 0 0 0
2 12 26 8 0 0 3 8 0 0 0 0 0 0 0 0 0 0 0 0 0 0 0 0 0 0 0 0 0 0 0 0 0 0 0 0 0 0 0 0 0 0 0 0 0
0 0 1 2 2 0 0 5 0 7 0 0 0 0 0 0 0 2 1 0 0 0 0 0 0 0 0 0 0 0 0 0 0 0 0 0 0 0 0 0 0 0 0 0 0
3 0 0 0 0 0 0 1 5 0 0 0 0 0 0 0 0 0 0 0 0 0 0 0 0 0 0 0 0 0 0 0 0 0 0 0 0 0 0 0 0 0 0 0 0
0 0 0 1 0 0 0 0 0 0 0 0 0 0 0 0 0 0 0 0 0 0 0 0 0 0 0 0 0 0 0 0 0 0 0 0 0 0 0 0 0 0 0 0 0

GFSSW_con_sbcape_072.txt.gz
CAPE
6 8 11 13 5 19 36 25 23 13 8 47 15 32 1 6 11 0 0 0 0 1 10 0 0 0 0 32 122 233 175 69 53 3 0 0 0 5 8 37 34 0 0 18 1
10 11 18 14 12 11 31 32 26 19 11 10 24 51 3 3 0 0 0 1 68 66 39 4 0 0 3 18 36 75 50 2 0 0 0 0 0 3 329 204 356 2 114 41 2
15 15 21 15 12 9 17 29 30 10 11 18 29 40 1 0 0 0 19 51 54 63 0 0 4 15 10 6 22 18 2 0 34 17 12 0 0 33 309 205 381 11 103 0 1
54 17 17 17 20 9 10 15 30 22 1 44 22 23 0 0 0 0 40 13 30 38 15 4 14 36 31 20 0 41 0 37 43 79 307 127 6 14 399 162 245 174 244 185 28
230 14 13 18 19 11 4 10 18 22 3 30 38 5 0 0 0 0 61 0 65 98 21 13 5 26 22 18 28 86 18 45 104 238 392 152 39 0 40 242 540 474 389 240 33
201 8 7 25 12 15 9 5 32 21 1 8 35 0 0 0 0 0 0 0 2 46 97 53 11 29 0 17 93 30 10 49 173 99 323 151 7 0 2 115 868 386 441 384 206
170 13 8 16 24 15 14 14 14 31 2 4 36 0 0 0 0 0 0 0 0 39 86 53 29 33 32 20 0 40 55 25 86 107 225 62 33 0 0 419 705 608 428 417 360
54 8 9 13 11 17 8 14 16 21 6 4 22 0 0 0 0 0 0 0 0 49 88 61 32 36 17 14 35 46 35 37 29 154 199 14 2 0 0 112 341 204 319 298 352
53 4 6 4 6 12 2 5 0 19 7 8 0 0 0 0 0 0 0 0 0 16 56 42 24 35 32 1 11 12 0 2 1 47 0 4 21 0 0 0 0 0 0 218 319
15 10 3 0 10 4 0 0 0 15 0 0 0 0 0 0 0 0 1 0 18 21 50 39 30 37 4 2 0 13 0 1 3 22 17 0 0 0 0 0 0 0 0 0 0
5 13 3 0 0 0 0 0 0 0 0 0 0 0 0 0 0 3 4 0 10 22 18 32 34 13 1 2 0 0 0 0 18 27 31 3 0 0 0 0 0 0 0 0 0
9 16 7 28 3 2 0 0 0 0 0 0 0 0 0 0 2 22 2 6 5 9 14 23 39 0 17 8 3 0 0 0 9 23 9 1 1 0 0 0 0 0 0 0 0
35 40 17 19 20 2 0 0 0 0 0 0 0 0 0 0 0 14 1 11 15 20 14 16 7 0 2 0 25 0 0 3 2 10 6 0 3 4 0 0 0 0 0 0 0
54 48 22 21 5 0 0 0 0 0 0 0 0 0 0 0 12 36 16 0 4 8 8 8 13 1 0 0 0 1 0 0 4 0 1 0 3 4 1 0 0 0 0 0 0
29 60 28 7 0 0 0 0 0 0 0 0 0 0 0 1 1 25 12 15 7 3 15 13 13 6 0 2 1 0 0 0 3 16 8 2 1 0 0 0 0 0 0 0 0
17 54 37 18 0 0 0 0 0 0 0 0 0 0 0 4 3 0 12 9 9 19 20 17 6 1 0 4 0 0 0 0 0 1 0 0 0 0 0 0 0 0 0 0 0
44 28 38 8 0 0 0 0 0 0 0 0 0 0 0 0 11 5 8 17 26 3 2 5 8 0 9 1 0 0 0 0 0 0 0 0 0 0 0 0 0 0 0 0 0
69 35 27 3 0 0 0 0 0 0 0 0 0 0 0 0 0 4 10 15 0 0 9 0 0 0 0 0 1 0 0 0 0 0 0 0 0 0 0 0 0 0 0 0 0
26 28 24 11 0 0 0 0 0 0 0 0 0 0 0 0 0 2 0 12 3 0 0 6 1 1 0 0 0 0 0 0 0 0 0 0 0 0 0 0 0 0 0 0 0
14 10 23 0 0 0 0 0 0 0 0 0 0 0 0 0 0 0 0 0 0 0 0 0 6 0 0 0 0 0 0 0 0 0 0 0 0 0 0 0 0 0 0 0 0
13 19 10 0 3 5 0 0 0 0 0 0 0 0 0 0 0 0 0 0 0 0 0 0 0 0 0 0 0 0 0 0 0 0 0 0 0 0 0 0 0 0 0 0 0
24 5 1 0 37 1 0 0 0 0 0 0 0 0 0 0 0 0 0 0 0 0 0 0 0 0 0 0 0 0 0 0 0 0 0 0 0 0 0 0 0 0 0 0 0
13 16 2 6 8 2 0 0 0 0 0 0 0 0 0 0 0 0 0 0 0 0 0 0 0 0 0 0 0 0 0 0 0 0 0 0 0 0 0 0 0 0 0 0 0
7 1 20 19 0 0 0 0 0 0 0 0 0 0 0 0 0 0 0 0 0 0 0 0 0 0 0 0 0 0 0 0 0 0 0 0 0 0 0 0 0 0 0 0 0
7 5 10 7 8 0 0 0 0 0 0 0 0 0 0 0 0 0 0 0 0 0 0 0 0 0 0 0 0 0 0 0 0 0 0 0 0 0 0 0 0 0 0 0 0
5 1 0 0 0 0 0 0 0 0 0 0 0 0 0 0 0 0 0 0 0 0 0 0 0 0 0 0 0 0 0 0 0 0 0 0 0 0 0 0 0 0 0 0 0
0 0 0 2 0 0 0 1 1 0 0 0 0 0 0 0 0 0 0 0 0 0 0 0 0 0 0 0 0 0 0 0 0 0 0 0 0 0 0 0 0 0 0 0 0

GFSSW_con_sbcape_075.txt.gz
CAPE
107 10 10 11 13 12 9 15 20 28 25 11 18 21 29 1 0 0 0 0 0 4 60 0 0 0 0 2 34 101 62 20 0 13 0 2 0 0 22 77 56 43 0 27 60
108 120 25 14 13 11 6 7 22 26 23 13 23 25 22 0 0 0 0 0 30 59 22 15 2 0 0 17 32 66 21 0 0 0 0 7 1 7 194 181 126 27 302 118 10
83 99 84 12 16 14 12 12 10 16 23 4 59 23 7 0 0 0 2 52 44 41 0 0 0 1 10 13 46 39 7 0 0 0 4 45 76 23 234 241 314 20 149 120 33
46 38 164 19 17 6 20 14 16 23 15 0 49 28 0 0 0 0 18 0 0 4 4 0 1 3 14 4 3 24 0 0 4 4 157 97 51 61 37 91 137 44 202 171 6
18 48 106 8 10 9 10 5 7 2 4 0 33 11 0 0 0 0 0 5 50 24 24 18 8 25 33 18 9 32 0 11 3 0 182 291 263 52 16 1 8 249 297 138 43
12 32 26 6 10 4 7 16 11 18 0 2 10 1 0 0 0 0 0 0 2 42 36 33 6 42 18 37 22 1 6 8 5 12 134 189 177 112 2 13 0 424 335 247 98
11 5 69 6 4 0 10 13 10 6 4 9 10 0 0 0 0 0 0 0 0 0 5 34 54 59 18 8 12 25 38 2 9 2 120 213 161 65 23 12 0 320 490 399 146
14 19 64 7 6 0 16 4 10 3 0 9 36 0 0 0 0 0 0 0 0 0 27 38 63 33 3 6 19 28 57 28 0 46 129 110 4 55 1 0 3 228 123 251 225
18 11 8 8 4 18 19 4 0 0 0 19 4 0 0 0 0 0 0 0 0 0 11 68 30 6 8 13 3 30 8 1 64 110 207 114 20 0 0 1 0 0 34 109 39
23 14 10 8 12 6 1 0 0 2 6 13 0 0 0 0 0 0 0 0 2 10 35 37 24 12 22 22 6 3 31 32 14 60 10 8 5 0 0 0 0 0 0 55 78
14 10 18 6 17 13 0 0 0 0 0 0 0 0 0 0 0 0 0 0 11 20 1 30 46 15 23 2 3 7 1 2 7 18 14 10 2 0 0 0 0 0 0 0 0
6 14 6 5 28 19 0 0 0 0 0 0 0 0 0 0 1 0 0 2 1 1 15 13 30 9 8 3 3 8 1 21 1 29 28 5 4 2 0 0 0 0 0 0 0
3 19 2 18 28 7 0 0 0 0 0 0 0 0 0 0 0 0 0 2 4 6 30 36 9 5 3 1 11 1 0 2 3 9 5 10 3 10 0 0 0 0 0 0 0
0 17 0 25 9 0 0 0 0 0 0 0 0 0 0 0 6 14 2 0 4 3 18 18 18 11 0 2 1 22 0 0 0 5 4 2 1 0 0 0 0 0 0 0 0
11 7 3 25 0 0 0 0 0 0 0 0 0 0 0 0 2 25 9 4 9 9 10 6 26 17 0 2 1 3 1 0 0 0 1 5 1 0 0 0 0 0 0 0 0
21 19 9 5 0 0 0 0 0 0 0 0 0 0 0 8 13 3 13 11 14 14 12 11 3 5 1 0 0 0 2 1 0 1 0 5 0 0 0 0 0 0 0 0 0
20 19 55 1 2 0 0 0 0 0 0 0 0 0 0 0 6 10 5 11 4 2 12 2 4 19 4 6 0 0 0 3 0 0 2 1 0 0 0 0 0 0 0 0 0
45 175 70 2 0 0 0 0 0 0 0 0 0 0 0 0 2 11 14 31 1 0 2 0 0 5 6 2 1 0 0 0 0 0 8 1 0 0 0 0 0 0 0 0 0
40 43 3 8 0 0 0 0 0 0 0 0 0 0 0 0 2 6 5 10 1 0 0 9 10 6 0 0 0 0 0 0 0 0 0 0 0 0 0 0 0 0 0 0 0
1 6 12 8 0 2 9 0 0 0 0 0 0 0 0 0 0 0 0 0 7 0 0 0 15 0 0 0 0 0 0 0 0 0 0 0 0 0 0 0 0 0 0 0 0
2 7 38 3 1 17 2 0 0 0 0 0 0 0 0 0 0 0 0 0 0 0 0 0 0 0 0 0 0 0 0 0 0 0 0 0 0 0 0 0 0 0 0 0 0
7 3 15 1 8 25 0 0 0 0 0 0 0 0 0 0 0 0 0 0 0 0 0 0 0 0 0 0 0 0 0 0 0 0 0 0 0 0 0 0 0 0 0 0 0
6 18 19 19 14 12 0 0 0 0 0 0 0 0 0 0 0 0 0 0 0 0 0 0 0 0 0 0 0 0 0 0 0 0 0 0 0 0 0 0 0 0 0 0 0
4 1 11 31 0 0 1 0 0 0 0 0 0 0 0 0 0 0 0 0 0 0 0 0 0 0 0 0 0 0 0 0 0 0 0 0 0 0 0 0 0 0 0 0 0
4 8 11 2 5 0 0 0 0 0 0 0 0 0 0 0 0 0 0 0 0 0 0 0 0 0 0 0 0 0 0 0 0 0 0 0 0 0 0 0 0 0 0 0 0
6 5 1 0 0 0 0 0 0 0 0 0 0 0 0 0 0 0 0 0 0 0 0 0 0 0 0 0 0 0 0 0 0 0 0 0 0 0 0 0 0 0 0 0 0
0 0 0 0 0 1 0 0 0 0 0 0 0 0 0 0 0 0 0 0 0 0 0 0 0 0 0 0 0 0 0 0 0 0 0 0 0 0 0 0 0 0 0 0 0

GFSSW_con_sbcape_078.txt.gz
CAPE
43 72 71 99 22 6 13 6 2 13 10 9 0 2 7 5 0 0 0 0 0 0 43 27 17 17 2 0 24 48 61 33 6 0 0 3 24 80 50 83 116 128 156 144 157
24 28 52 48 38 13 7 0 1 12 10 0 0 14 5 0 0 0 0 0 0 41 0 2 4 3 14 11 0 24 28 13 0 0 0 7 78 146 154 81 162 253 189 269 268
15 20 16 12 147 16 1 0 0 3 12 0 5 28 1 0 0 0 0 0 33 8 0 0 0 0 8 12 21 0 14 0 0 0 4 25 54 109 120 104 164 160 223 391 257
13 8 29 39 94 18 7 1 5 2 16 0 0 22 0 0 0 0 0 3 77 0 0 0 1 6 8 8 20 34 7 0 0 9 11 22 73 244 139 15 98 151 197 354 388
16 10 21 4 64 28 4 9 0 0 11 0 0 4 0 0 0 0 0 15 15 7 0 0 4 11 8 5 14 32 0 6 2 16 29 71 132 128 107 40 18 40 70 424 417
17 15 25 3 135 16 10 0 0 0 10 0 0 2 0 0 0 0 0 0 0 8 3 0 1 22 24 21 30 6 14 8 17 25 32 28 114 215 25 44 70 68 113 466 451
25 14 23 12 87 14 10 11 0 0 5 0 3 2 0 0 0 0 0 0 0 0 5 4 17 32 31 19 14 28 35 24 16 17 48 23 135 121 104 196 130 91 83 390 425
29 18 19 1 71 4 16 7 0 0 0 0 21 0 1 0 0 0 0 0 0 0 8 3 36 47 39 43 38 34 12 41 12 17 6 82 8 21 137 167 109 81 79 193 339
32 19 19 0 22 15 14 11 4 1 0 13 2 3 0 0 0 0 0 0 3 7 13 22 42 52 39 50 38 31 34 25 18 7 21 90 31 110 155 183 96 67 53 139 123
26 26 12 3 8 10 11 2 2 10 14 9 0 0 0 0 0 0 0 2 13 41 35 40 68 55 26 67 23 84 15 6 41 17 5 100 50 194 156 94 136 115 32 6 1
19 8 10 25 6 20 3 17 0 1 13 0 0 0 0 0 0 0 2 19 39 43 43 57 43 20 15 18 33 6 25 28 0 0 67 15 41 0 0 54 102 7 28 99 118
45 12 1 12 54 13 0 0 0 0 0 0 0 0 0 0 0 0 6 25 14 25 33 31 18 4 15 22 26 14 16 97 69 76 80 11 13 0 0 12 2 0 0 0 0
87 39 13 26 33 15 0 0 0 0 0 0 0 0 0 0 6 6 11 19 14 8 6 40 3 3 20 9 28 9 68 17 17 9 15 35 27 2 0 4 1 0 0 0 0
101 101 27 30 27 3 3 0 0 0 0 0 0 0 0 1 7 11 27 13 8 6 15 14 11 14 21 4 18 5 12 4 4 5 130 2 51 8 0 27 5 4 0 0 0
120 102 99 26 10 5 0 0 0 0 0 0 0 0 0 5 24 23 10 3 15 12 8 36 19 27 16 5 12 19 14 2 5 7 28 10 23 14 10 9 6 0 0 0 0
136 102 89 39 42 1 0 0 0 1 0 0 0 0 5 27 24 2 19 9 12 8 10 14 16 24 4 0 2 2 30 19 13 13 20 12 31 8 0 0 1 0 0 0 0
56 43 44 70 23 0 0 2 10 2 0 0 0 0 13 3 24 13 8 3 23 29 116 13 7 1 0 15 12 7 27 38 48 53 37 11 2 7 0 0 0 0 0 0 0
73 48 11 56 35 0 7 12 2 0 0 0 0 0 16 10 0 4 6 4 3 11 4 13 18 8 4 2 18 6 1 11 13 44 28 0 9 2 0 0 0 0 0 0 0
53 70 48 79 1 2 21 10 0 0 0 0 0 7 1 0 0 0 1 17 8 10 16 42 9 15 0 0 1 2 0 0 2 0 3 5 0 0 0 0 0 0 0 0 0
23 30 27 21 4 23 27 5 0 0 0 0 1 0 0 0 0 3 1 1 9 5 0 0 9 1 0 0 0 0 0 1 0 2 7 4 0 0 0 0 0 0 0 0 0
17 8 19 20 35 18 14 1 0 0 0 0 0 0 0 0 0 0 4 2 2 0 0 0 0 0 0 1 0 0 0 0 0 0 2 1 0 0 0 0 0 0 0 0 0
6 16 29 29 14 13 15 0 0 0 0 0 0 0 0 0 1 1 6 3 0 0 0 0 0 4 1 0 0 0 0 0 0 0 0 0 0 0 0 0 0 0 0 0 0
8 16 36 42 24 15 11 2 0 0 0 0 0 0 0 0 0 1 1 0 0 0 0 0 0 0 0 0 0 0 0 0 0 0 0 0 0 0 0 0 0 0 0 0 0
12 5 11 9 13 1 33 1 0 0 0 0 0 0 0 0 0 1 0 0 0 0 0 0 0 0 0 0 0 0 0 0 0 0 0 0 0 0 0 0 0 0 0 0 0
6 12 10 20 17 2 0 0 0 0 0 0 0 0 0 0 0 0 0 0 0 0 0 0 0 0 0 0 0 0 0 0 0 0 0 0 0 0 0 0 0 0 0 0 0
8 13 6 7 6 4 2 7 0 0 0 0 0 0 0 0 0 0 0 0 0 0 0 0 0 0 0 0 0 0 0 0 0 0 0 0 0 0 0 0 0 0 0 0 0
2 0 1 1 1 7 9 10 0 0 0 0 0 0 0 0 0 0 0 0 0 0 0 0 0 0 0 0 0 0 0 0 0 0 0 0 0 0 0 0 0 0 0 0 0

GFSSW_con_sbcape_081.txt.gz
CAPE
31 29 41 47 41 64 12 9 3 1 4 2 0 0 21 5 0 1 0 0 0 0 6 22 15 14 2 0 0 9 38 18 2 3 0 0 3 17 29 46 74 62 84 92 533
20 20 15 31 60 46 47 10 1 1 1 0 0 2 5 0 0 0 0 0 0 34 24 20 16 16 13 5 3 6 7 3 1 5 6 6 1 15 66 69 102 114 117 146 687
30 34 19 21 33 13 99 7 1 0 0 1 0 0 0 0 0 0 0 0 22 7 0 0 0 1 6 20 22 1 0 0 3 5 7 15 14 34 72 73 111 142 199 253 592
34 38 35 24 32 14 81 7 5 0 0 0 0 0 0 0 0 0 0 8 59 0 0 0 0 3 3 7 16 19 16 24 1 0 15 31 11 9 50 78 53 116 191 219 465
47 35 38 31 28 12 115 17 9 0 0 0 0 0 0 1 0 0 0 2 18 0 0 0 0 4 4 0 3 12 16 11 12 35 2 7 24 32 51 49 53 103 54 192 397
28 44 23 42 13 12 112 22 1 0 3 0 0 0 2 0 0 0 0 0 4 12 9 7 4 9 7 8 8 8 18 25 31 18 35 16 13 34 11 29 90 116 40 26 127
33 40 32 24 6 15 43 1 8 4 7 15 0 7 2 0 0 0 0 0 4 10 18 25 15 17 16 11 6 22 26 12 9 17 7 14 34 28 2 114 169 29 106 29 104
19 33 21 16 11 26 3 13 9 6 0 7 1 14 1 0 0 0 0 0 0 3 17 23 12 29 22 19 31 46 40 34 4 18 8 68 19 0 2 85 139 174 88 16 105
31 34 19 4 8 32 10 19 25 6 7 9 14 10 0 0 0 0 0 1 8 23 17 20 25 43 43 53 17 34 21 31 13 40 50 56 0 4 54 18 151 192 189 91 163
84 56 32 5 22 26 22 6 11 7 14 13 1 4 0 0 0 0 0 0 10 16 31 66 65 22 20 37 15 26 55 9 14 39 30 29 15 193 246 293 127 153 135 134 247
95 72 50 3 11 74 13 29 0 2 12 0 0 0 0 0 0 0 0 17 43 22 25 68 28 48 61 41 14 7 40 36 25 16 20 12 57 55 45 76 240 124 139 234 225
114 89 79 38 14 32 22 0 0 0 0 0 0 0 0 0 0 1 0 19 26 31 55 29 21 15 15 13 27 13 20 33 19 43 73 22 121 54 41 1 26 168 120 222 162
147 122 90 59 36 37 1 0 0 0 2 0 0 0 0 0 1 9 13 20 17 24 18 33 7 2 18 16 46 26 5 15 10 24 46 123 110 42 25 0 0 70 11 177 150
200 195 147 100 105 10 3 0 0 0 28 4 1 0 0 0 0 14 12 36 32 15 21 16 6 19 24 3 10 14 1 14 5 91 145 64 80 4 1 0 37 14 5 2 1
207 196 178 78 53 17 16 0 0 11 43 0 2 0 2 0 4 15 7 14 22 16 11 47 1 25 37 7 17 19 9 11 3 26 18 12 60 5 1 10 61 20 4 5 1
144 128 113 85 73 3 0 0 15 27 7 0 0 7 0 1 24 13 28 11 20 16 8 8 30 33 25 13 8 13 4 12 12 42 64 37 10 10 18 9 0 0 0 0 0
57 66 58 63 6 40 0 17 50 52 0 0 1 2 3 1 34 8 7 18 28 31 2 15 9 0 0 6 0 14 5 44 232 127 50 7 0 26 12 0 0 0 3 0 0
45 60 18 13 10 54 23 12 72 2 0 0 2 4 10 8 0 14 11 14 4 5 11 24 38 5 13 11 23 32 0 14 64 107 18 2 5 13 7 1 0 0 0 0 0
56 17 21 26 37 64 7 37 38 0 0 1 9 7 14 19 9 5 11 13 7 23 44 36 13 1 3 0 0 9 7 0 6 3 3 5 7 5 4 3 1 1 0 0 0
12 23 20 41 41 29 8 26 4 0 0 1 3 2 10 9 15 15 19 3 13 12 7 11 29 5 0 0 0 0 0 4 19 10 8 1 7 3 5 1 0 1 0 0 0
19 10 78 72 29 8 47 27 0 0 1 1 0 0 10 6 19 11 4 2 2 4 0 0 5 0 0 4 0 1 0 0 0 0 8 5 4 3 0 0 0 0 0 0 0
3 3 26 15 4 6 18 16 0 0 0 0 0 5 11 3 7 8 11 9 0 0 2 0 3 4 0 0 0 0 0 0 3 0 0 0 0 0 0 0 0 0 0 0 0
15 7 3 38 55 33 19 8 8 0 0 0 1 0 0 5 3 7 8 0 0 0 0 0 0 35 10 4 0 0 0 0 0 0 0 0 0 0 0 0 0 0 0 0 0
23 17 5 2 4 13 25 0 0 0 0 0 0 0 0 1 0 7 1 0 0 0 0 0 0 0 3 0 0 0 0 0 0 0 0 0 0 0 0 0 0 0 0 0 0
10 20 8 47 14 39 10 3 0 6 0 0 0 0 0 1 1 0 0 0 0 0 0 0 0 0 0 0 0 0 0 0 0 0 0 0 0 0 0 0 0 0 0 0 0
7 20 10 8 2 9 1 1 0 0 3 0 0 0 0 0 0 0 0 0 0 0 0 0 0 0 0 0 0 0 0 0 0 0 0 0 0 0 0 0 0 0 0 0 0
5 0 12 1 10 13 7 0 0 2 0 1 1 0 0 0 0 0 0 0 0 0 0 0 0 0 0 0 0 0 0 0 0 0 0 0 0 0 0 0 0 0 0 0 0

GFSSW_con_sbcape_084.txt.gz
CAPE
18 8 12 9 8 14 71 85 45 5 4 3 0 0 0 0 0 0 0 0 0 0 0 2 15 5 1 0 0 0 11 5 1 0 0 0 0 0 0 0 0 0 0 0 370
40 46 41 28 16 8 54 23 106 5 3 3 0 0 1 0 0 0 0 0 0 0 0 13 6 15 4 0 0 0 0 0 0 0 0 0 0 0 0 0 1 0 0 32 381
30 49 37 41 26 27 44 16 96 0 2 3 0 0 0 0 0 0 0 0 0 2 0 0 0 1 0 9 0 1 0 0 0 0 0 0 0 0 0 0 0 9 18 6 354
34 38 60 52 31 42 14 3 70 0 0 3 0 0 0 0 0 0 0 1 10 0 0 0 0 0 2 0 14 0 0 0 0 0 0 0 0 0 0 0 0 4 24 92 70
34 35 52 41 36 14 5 11 63 4 4 8 0 0 0 0 0 0 0 9 0 0 0 0 0 0 0 0 0 4 4 0 3 2 0 0 0 0 0 0 0 6 13 52 85
45 46 30 33 30 20 35 14 83 4 11 3 0 0 0 0 0 0 0 0 0 0 0 0 0 2 2 0 0 0 0 0 0 1 3 5 0 2 0 0 0 2 16 36 12
71 61 20 24 26 20 12 20 6 6 13 11 0 0 1 0 0 0 0 0 0 0 0 3 3 4 5 1 1 5 2 0 0 0 0 1 0 0 0 0 0 0 8 1 21
79 58 49 43 27 8 21 37 7 10 20 20 4 5 0 0 0 0 0 0 0 0 0 0 1 5 4 13 2 3 1 0 0 0 0 10 1 0 0 0 0 0 32 11 37
94 76 56 48 14 37 106 32 9 9 6 12 8 6 0 0 0 0 0 0 0 1 7 8 22 13 20 24 12 6 1 0 0 6 25 6 0 0 0 0 0 0 43 78 68
107 81 60 48 22 2 91 40 27 4 20 18 2 1 0 0 0 0 0 0 0 2 6 21 38 19 33 24 0 0 12 21 27 1 19 14 0 0 13 180 181 0 30 152 155
141 110 65 36 39 29 7 9 1 2 17 0 0 0 0 0 0 0 0 0 2 1 9 25 27 3 4 1 0 0 1 7 0 0 10 2 3 0 4 184 91 209 239 111 96
192 174 106 93 54 12 54 0 0 2 6 0 0 0 0 0 0 2 0 0 10 2 2 23 32 0 2 17 17 8 15 3 11 2 34 2 0 13 33 62 27 154 256 301 261
259 274 169 125 29 109 48 0 3 0 6 0 0 0 0 0 2 6 0 4 0 0 5 19 0 9 7 3 39 0 15 24 8 4 25 28 5 7 91 88 25 105 160 221 308
257 271 224 200 69 23 3 18 0 5 2 1 5 0 0 1 5 16 0 0 1 2 23 30 5 1 1 16 13 12 1 6 12 2 1 2 5 8 0 0 3 148 162 101 272
169 215 210 183 88 2 6 1 0 3 2 1 4 0 1 8 7 14 0 0 0 13 17 0 1 12 39 13 9 6 9 1 4 44 12 10 34 3 0 0 0 96 28 9 0
41 11 127 139 177 20 2 1 2 7 6 0 1 5 9 8 8 16 9 0 0 20 10 4 0 6 4 8 10 3 10 6 6 14 13 10 23 7 6 5 0 2 0 5 7
56 33 32 66 63 4 0 0 12 17 0 0 3 12 10 7 6 0 0 2 25 17 1 0 4 0 1 5 11 10 16 2 2 2 3 4 0 3 10 4 2 5 2 1 1
76 49 33 38 71 8 13 7 6 0 0 0 10 15 8 1 0 15 0 3 4 3 32 10 7 5 4 0 26 1 3 3 2 1 2 0 1 10 8 9 2 3 1 1 0
42 20 33 53 59 43 2 6 10 4 0 2 21 5 6 1 0 0 0 19 10 17 13 21 3 1 0 2 1 0 3 0 9 0 0 6 7 13 12 10 4 2 2 2 0
11 25 33 45 51 12 9 26 0 0 0 7 0 2 0 0 1 5 5 0 0 11 0 8 12 1 0 1 2 0 0 0 3 5 6 1 2 28 12 9 9 3 2 0 0
2 15 28 44 13 15 35 31 0 0 0 0 0 0 2 3 7 9 1 0 1 4 0 0 5 2 5 3 0 0 0 0 0 0 0 0 1 0 12 6 4 3 0 0 0
0 0 37 22 17 11 4 32 1 0 1 0 0 5 0 0 2 7 4 0 0 0 0 0 0 4 0 0 0 0 0 0 0 0 0 0 0 0 0 0 0 0 0 0 0
4 6 9 16 50 16 6 18 24 3 0 0 0 0 0 0 0 2 0 0 0 0 0 0 0 4 0 0 0 0 0 0 0 0 0 0 0 0 0 0 0 0 0 0 0
3 3 14 4 18 2 3 6 1 0 0 0 0 0 0 1 0 3 0 0 0 0 0 0 0 0 0 0 0 0 0 0 0 0 0 0 0 0 0 0 0 0 0 0 0
1 8 3 3 6 12 4 10 0 0 0 0 0 0 0 1 1 0 0 0 0 0 0 0 0 0 0 0 0 0 0 0 0 0 0 0 0 0 0 0 0 0 0 0 0
0 6 0 0 0 0 0 0 0 0 0 0 0 0 0 0 0 0 0 0 0 0 0 0 0 0 0 0 0 0 0 0 0 0 0 0 0 0 0 0 0 0 0 0 0
0 0 0 0 0 0 0 0 0 0 0 0 0 0 0 0 0 0 0 0 0 0 0 0 0 0 0 0 0 0 0 0 0 0 0 0 0 0 0 0 0 0 0 0 0

GFSSW_con_sbcape_087.txt.gz
CAPE
42 45 43 37 6 8 8 26 77 96 9 3 0 0 0 0 3 0 0 0 0 0 0 0 0 0 0 0 0 0 0 0 0 0 0 0 0 0 0 0 0 0 0 46 214
38 43 55 51 31 23 5 18 68 37 24 1 0 0 0 0 0 0 0 0 0 0 0 0 2 0 0 0 0 0 0 0 0 0 0 0 0 0 0 0 0 0 0 264 222
46 31 45 38 55 30 30 11 8 32 20 3 0 0 0 0 0 0 0 0 0 0 0 0 0 0 0 0 0 0 0 0 0 0 0 0 0 0 0 0 0 0 0 118 243
60 47 53 40 32 44 25 13 0 45 30 5 4 0 0 0 0 0 0 0 0 0 0 0 0 0 0 0 0 0 0 0 0 0 0 0 0 0 0 0 0 0 0 0 232
67 64 52 46 32 25 23 29 21 49 31 13 4 0 0 0 0 0 4 16 0 0 0 0 0 0 0 0 0 0 0 0 1 0 0 0 0 0 0 0 0 0 0 5 20
81 60 51 41 41 38 31 34 35 37 19 11 1 0 0 0 0 0 0 0 0 0 0 0 0 0 0 0 0 0 0 0 0 0 0 0 0 0 0 0 0 0 0 0 0
109 76 73 48 44 24 17 37 4 84 22 0 1 0 0 0 0 0 0 0 0 0 0 0 0 0 0 0 0 0 0 0 0 0 0 0 0 0 0 0 0 0 0 0 0
138 127 88 74 45 6 0 154 210 31 21 9 7 0 0 0 0 0 0 0 0 0 0 0 0 0 0 0 0 0 0 0 0 0 0 0 0 0 0 0 0 0 0 0 0
141 139 103 86 50 7 18 61 49 35 23 14 2 0 0 0 0 0 0 0 0 0 0 0 6 0 1 8 2 2 0 0 0 0 0 5 0 0 0 0 0 0 0 0 0
165 175 157 88 51 42 64 68 57 56 17 20 7 6 0 0 0 0 0 0 0 0 3 6 3 12 8 9 0 0 0 0 0 0 0 12 0 0 0 0 0 0 0 0 0
205 197 161 111 60 28 0 21 5 20 12 0 0 0 0 0 0 0 0 0 0 1 0 11 0 0 0 0 0 0 0 0 0 0 18 1 5 0 0 0 0 0 0 38 71
199 217 197 133 124 45 30 27 14 9 1 4 1 0 0 0 0 0 0 1 5 0 0 5 1 0 0 0 2 11 5 1 0 0 20 0 3 0 0 0 0 3 87 196 266
233 259 207 165 115 61 45 32 20 9 7 10 8 0 0 0 6 4 1 4 0 0 0 0 0 0 0 0 8 0 13 0 0 6 10 3 1 0 0 42 14 16 126 172 263
122 187 192 189 35 12 23 24 0 6 0 17 9 0 0 0 18 17 5 2 2 0 0 0 0 0 0 0 8 22 3 10 18 49 0 0 0 0 0 0 0 32 93 88 299
72 72 127 97 16 2 2 1 1 11 0 2 5 1 0 7 2 21 0 0 0 0 0 0 0 0 5 4 11 8 0 1 3 12 34 2 5 2 0 0 0 0 91 3 1
52 26 39 7 6 0 1 0 0 0 0 1 2 14 6 11 19 20 5 0 0 0 1 0 0 0 6 0 4 9 12 6 9 28 4 0 4 2 0 1 0 1 3 5 5
35 23 0 9 8 0 0 0 0 0 0 0 1 11 6 6 5 0 1 0 0 4 0 0 1 0 0 2 3 5 8 0 2 4 7 0 0 2 7 2 1 3 3 2 1
63 45 16 21 4 0 0 0 0 5 0 0 0 1 11 17 7 1 0 0 0 0 5 2 0 0 0 0 7 11 6 1 0 0 0 0 1 12 8 4 3 3 2 2 3
33 6 0 21 0 0 0 0 1 0 0 1 3 11 6 4 0 0 0 1 4 4 13 5 0 1 0 0 1 1 14 2 8 0 0 1 5 5 7 12 6 6 4 3 1
0 0 6 9 0 0 0 15 0 0 0 0 0 0 0 0 0 0 1 0 1 8 0 6 6 0 1 0 0 0 0 0 1 0 3 9 7 15 4 9 11 3 3 2 1
0 4 6 2 0 0 1 7 8 4 0 0 0 1 0 0 0 3 0 0 0 0 0 0 7 1 0 0 0 0 0 0 0 0 0 0 7 19 13 12 10 2 0 0 0
0 0 11 0 0 4 3 3 1 0 0 0 0 0 0 0 0 0 0 0 0 0 0 0 0 0 0 0 0 0 0 0 0 0 0 0 1 4 0 0 0 0 0 0 0
0 17 0 0 0 1 1 1 0 0 0 0 0 0 0 0 0 0 0 0 0 0 0 0 0 0 0 0 0 0 0 0 0 0 0 0 0 0 0 0 0 0 0 0 0
0 0 0 0 0 0 0 0 0 0 0 0 0 0 0 0 0 0 0 0 0 0 0 0 0 0 0 0 0 0 0 0 0 0 0 0 0 0 0 0 0 0 0 0 0
0 0 0 0 0 0 0 0 0 0 0 0 0 0 0 0 0 0 0 0 0 0 0 0 0 0 0 0 0 0 0 0 0 0 0 0 0 0 0 0 0 0 0 0 0
0 0 0 0 0 0 0 0 0 0 0 0 0 0 0 0 0 0 0 0 0 0 0 0 0 0 0 0 0 0 0 0 0 0 0 0 0 0 0 0 0 0 0 0 0
0 0 0 0 0 0 0 0 0 0 0 0 0 0 0 0 0 0 0 0 0 0 0 0 0 0 0 0 0 0 0 0 0 0 0 0 0 0 0 0 0 0 0 0 0

GFSSW_con_sbcape_090.txt.gz
CAPE
45 53 51 47 57 30 17 5 5 70 86 61 13 1 0 0 0 0 0 0 0 0 0 0 0 0 0 0 0 0 0 0 0 0 0 0 0 0 0 0 0 0 0 23 64
62 59 37 36 45 59 37 15 10 31 37 96 25 2 0 0 0 0 0 0 0 0 0 0 0 0 0 0 0 0 0 0 0 0 0 0 0 0 0 0 0 0 0 8 138
67 71 61 41 39 35 36 37 7 5 5 120 15 1 0 0 0 0 0 1 3 0 0 0 0 0 0 0 0 0 0 0 0 0 0 0 0 0 0 0 0 0 0 0 4
99 96 68 65 45 13 25 25 25 6 2 127 17 0 2 0 0 0 0 2 0 0 0 0 0 0 0 0 0 0 0 0 0 0 0 0 0 0 0 0 0 0 0 0 0
118 142 86 56 36 21 22 23 21 19 8 98 6 2 0 0 0 0 0 0 0 0 0 0 0 0 0 0 0 0 0 0 0 0 0 0 0 0 0 0 0 0 0 0 0
128 117 107 95 60 28 17 20 31 29 19 128 10 9 0 0 0 0 0 0 0 0 0 0 0 0 0 0 0 0 0 0 0 0 0 0 0 0 0 0 0 0 0 0 0
168 127 115 101 71 45 30 16 13 41 50 206 5 1 0 0 0 0 9 0 0 0 0 0 0 0 0 0 0 0 0 0 0 0 0 0 0 0 0 0 0 0 0 0 0
187 183 145 138 72 33 21 50 120 121 142 70 3 0 0 0 0 0 0 0 0 0 0 0 0 0 0 0 0 0 0 0 0 0 0 0 0 0 0 0 0 0 0 0 0
220 220 164 165 66 45 2 224 407 243 60 36 14 0 1 0 0 0 0 0 0 0 0 0 0 0 0 0 0 0 0 0 0 0 0 0 0 0 0 0 0 0 0 0 0
258 269 193 143 51 36 0 32 43 61 16 6 1 0 0 0 0 0 0 0 0 0 0 0 0 0 0 0 0 0 0 0 0 0 0 0 0 0 0 0 0 0 0 0 0
232 186 197 152 57 39 0 0 0 2 5 10 0 0 0 0 0 0 0 0 0 0 0 2 0 0 0 0 0 0 0 0 0 0 0 0 0 0 0 0 0 0 0 0 0
154 163 147 135 58 60 1 11 14 5 2 20 3 0 0 0 0 0 0 0 0 0 0 11 5 0 0 0 0 0 4 3 0 0 9 3 0 0 0 0 0 0 0 3 49
114 141 97 101 60 23 4 11 13 10 10 9 5 0 0 0 0 0 0 1 0 0 0 0 0 0 0 0 0 0 6 1 3 2 0 1 2 0 0 0 0 25 2 16 77
35 66 83 102 1 3 0 13 2 0 1 17 13 7 0 0 9 5 0 0 5 0 0 0 0 0 0 0 0 9 0 7 19 21 4 2 0 0 0 0 0 7 18 7 130
51 75 103 5 0 0 15 8 1 5 0 7 3 8 0 2 0 19 0 0 0 1 0 0 0 0 0 0 1 2 5 9 12 4 4 0 16 0 0 0 0 0 0 0 4
77 47 11 0 0 0 0 0 0 0 0 19 1 9 1 19 15 3 1 0 0 3 0 0 0 0 0 3 5 0 5 11 10 8 2 0 0 0 1 0 0 2 1 3 4
27 0 0 0 0 0 0 0 0 0 2 1 17 0 7 10 0 0 0 0 0 3 0 0 0 0 0 1 1 3 6 0 1 0 0 3 0 2 1 3 1 3 3 5 2
1 0 0 0 0 0 0 0 0 4 0 0 0 0 2 12 1 0 0 0 0 0 1 2 0 1 0 0 4 13 6 1 0 0 0 1 0 2 14 8 5 3 5 3 2
0 0 0 0 0 0 0 0 0 0 3 3 24 4 11 10 0 0 0 1 1 10 3 4 0 0 0 0 3 5 16 5 15 0 0 0 5 7 4 10 4 5 3 1 3
0 0 0 0 0 0 0 1 0 0 0 0 0 0 0 0 0 0 0 0 2 2 0 5 3 0 0 0 0 0 0 0 2 0 1 1 9 7 7 6 6 4 3 5 3
0 0 0 0 0 0 0 4 5 0 0 0 0 0 0 0 0 1 0 0 0 0 0 0 1 0 0 0 0 0 0 0 0 0 0 0 1 13 6 5 6 3 2 2 2
0 0 0 0 0 1 2 2 0 0 0 0 0 0 0 0 0 0 0 0 0 0 0 0 0 0 0 0 0 0 0 0 0 0 0 0 0 9 9 6 0 0 0 0 0
0 0 0 0 0 0 0 0 0 0 0 0 0 0 0 0 0 0 0 0 0 0 0 0 0 0 0 0 0 0 0 0 0 0 0 0 0 0 0 0 0 0 0 0 0
0 0 0 0 0 0 0 0 0 0 0 0 0 0 0 0 0 0 0 0 0 0 0 0 0 0 0 0 0 0 0 0 0 0 0 0 0 0 0 0 0 0 0 0 0
0 0 0 0 0 0 0 0 0 0 0 0 0 0 0 0 0 0 0 0 0 0 0 0 0 0 0 0 0 0 0 0 0 0 0 0 0 0 0 0 0 0 0 0 0
0 0 0 0 0 0 0 0 0 0 0 0 0 0 0 0 0 0 0 0 0 0 0 0 0 0 0 0 0 0 0 0 0 0 0 0 0 0 0 0 0 0 0 0 0
0 0 0 0 0 0 0 0 0 0 0 0 0 0 0 0 0 0 0 0 0 0 0 0 0 0 0 0 0 0 0 0 0 0 0 0 0 0 0 0 0 0 0 0 0

GFSSW_con_sbcape_093.txt.gz
CAPE
52 58 62 60 31 38 49 11 4 11 12 49 71 23 0 0 0 0 0 0 0 0 0 0 0 0 0 0 0 0 0 0 0 0 0 0 0 0 0 0 0 0 0 0 0
66 111 117 84 50 24 43 23 15 6 0 10 13 34 0 0 0 0 0 0 0 0 0 0 0 0 0 0 0 0 0 0 0 0 0 0 0 0 0 0 0 0 0 0 0
77 80 116 123 113 82 49 12 24 7 0 0 55 22 0 0 0 0 0 0 1 0 0 0 0 0 0 0 0 0 0 0 0 0 0 0 0 0 0 0 0 0 0 0 0
64 85 102 102 115 70 60 52 44 25 8 3 70 4 3 0 0 0 0 1 6 0 0 0 0 0 0 0 0 0 0 0 0 0 0 0 0 0 0 0 0 0 0 0 0
77 96 100 110 90 83 57 36 42 37 16 6 28 4 0 0 0 0 2 9 0 0 0 0 0 0 0 0 0 0 0 0 0 0 0 0 0 0 0 0 0 0 0 0 0
89 161 118 120 113 96 82 34 35 37 33 14 124 5 0 0 0 0 0 0 0 0 0 0 0 0 0 0 0 0 0 0 0 0 0 0 0 0 0 0 0 0 0 0 0
146 188 190 173 114 88 69 24 28 31 46 26 140 0 0 0 0 0 0 0 0 0 0 0 0 0 0 0 0 0 0 0 0 0 0 0 0 0 0 0 0 0 0 0 0
223 258 263 214 120 67 49 15 20 87 100 79 28 0 0 0 0 1 0 0 0 0 0 0 0 0 0 0 0 0 0 0 0 0 0 0 0 0 0 0 0 0 0 0 0
120 215 149 248 162 76 1 0 210 273 190 188 1 0 2 1 3 0 0 0 0 0 0 0 0 0 0 0 0 0 0 0 0 0 0 0 0 0 0 0 0 0 0 0 0
33 124 222 216 114 82 0 0 26 7 2 0 0 0 0 0 0 0 0 0 0 0 0 0 0 0 0 0 0 0 0 0 0 0 0 0 0 0 0 0 0 0 0 0 0
106 120 134 110 58 0 0 0 0 0 1 7 0 0 0 0 0 0 0 0 0 0 0 0 0 0 0 0 0 0 0 0 0 0 0 0 0 0 0 0 0 0 0 0 0
78 71 66 63 33 11 0 4 13 9 16 23 6 4 0 0 0 0 0 0 0 0 0 0 0 0 0 0 0 0 0 0 0 0 3 0 0 0 0 0 0 0 0 0 1
21 8 41 33 39 1 10 0 45 8 2 9 19 1 5 0 0 0 0 0 0 0 0 0 0 0 0 0 0 0 3 0 0 0 0 2 1 0 0 0 0 2 0 18 32
28 0 63 7 1 1 9 13 12 0 0 3 8 15 0 1 10 0 0 0 0 0 0 0 0 0 0 1 0 10 0 0 1 9 1 0 0 0 0 0 0 0 4 32 88
56 37 74 0 0 0 16 15 3 5 0 5 9 5 0 4 0 25 0 0 0 5 0 0 0 0 2 0 1 0 2 8 11 13 1 0 0 0 0 0 0 0 1 1 30
79 77 2 0 0 0 2 0 4 0 0 21 4 2 14 11 16 7 0 0 0 0 0 0 0 0 0 1 3 0 10 7 8 15 1 0 0 0 1 3 1 8 3 4 4
0 7 0 0 0 0 0 0 0 0 1 25 18 0 2 10 0 0 0 0 0 0 0 0 0 0 0 3 2 1 6 0 0 0 0 1 0 0 2 0 16 17 5 5 4
0 0 0 0 0 0 0 0 0 7 0 0 0 0 0 0 0 0 0 0 0 1 4 1 0 0 0 0 2 6 5 3 0 0 0 5 0 0 4 3 7 3 4 3 2
0 0 0 0 0 0 0 0 0 0 0 0 9 0 0 2 0 0 0 0 0 0 9 5 0 0 0 0 0 7 16 12 15 0 0 0 6 5 6 7 6 3 2 2 2
0 0 0 0 0 0 0 1 0 0 0 0 0 0 0 0 0 0 0 0 2 0 0 4 3 0 0 0 0 9 13 8 9 0 0 0 7 11 6 7 6 7 9 9 2
0 0 0 0 0 0 0 2 1 0 0 0 0 0 0 0 0 0 0 0 0 2 0 0 1 0 0 0 0 0 1 2 1 2 1 0 0 12 5 5 4 10 8 4 2
0 0 0 0 0 0 1 2 0 0 0 0 0 0 0 0 0 0 0 0 0 0 0 0 0 0 0 0 0 0 0 0 0 0 0 0 0 0 8 7 6 9 7 2 1
0 0 0 0 0 0 0 0 0 0 0 0 0 0 0 0 0 0 0 0 0 0 0 0 0 0 0 0 0 0 0 0 0 0 0 0 0 0 0 0 0 0 0 0 0
0 0 0 0 0 0 0 0 0 0 0 0 0 0 0 0 0 0 0 0 0 0 0 0 0 0 0 0 0 0 0 0 0 0 0 0 0 0 0 0 0 0 0 0 0
0 0 0 0 0 0 0 0 0 0 0 0 0 0 0 0 0 0 0 0 0 0 0 0 0 0 0 0 0 0 0 0 0 0 0 0 0 0 0 0 0 0 0 0 0
0 0 0 0 0 0 0 0 0 0 0 0 0 0 0 0 0 0 0 0 0 0 0 0 0 0 0 0 0 0 0 0 0 0 0 0 0 0 0 0 0 0 0 0 0
0 0 0 0 0 0 0 0 0 0 0 0 0 0 0 0 0 0 0 0 0 0 0 0 0 0 0 0 0 0 0 0 0 0 0 0 0 0 0 0 0 0 0 0 0

GFSSW_con_sbcape_096.txt.gz
CAPE
8 20 57 70 61 46 23 13 9 0 10 0 4 20 18 1 0 0 0 0 0 0 0 0 0 0 0 0 0 0 0 0 0 0 0 0 0 0 0 0 0 0 0 0 0
23 22 43 48 72 48 58 41 7 0 5 4 0 10 13 0 0 0 0 0 0 0 0 0 0 0 0 0 0 0 0 0 0 0 0 0 0 0 0 0 0 0 0 0 0
77 60 57 74 82 95 54 75 18 17 8 5 0 29 0 0 0 0 0 0 1 0 0 0 0 0 0 0 0 0 0 0 0 0 0 0 0 0 0 0 0 0 0 0 0
87 55 75 94 95 88 50 57 66 38 40 9 11 56 0 0 0 0 0 11 2 0 0 0 0 0 0 0 0 0 0 0 0 0 0 0 0 0 0 0 0 0 0 0 0
27 33 86 161 151 83 66 73 73 38 15 38 0 57 0 0 0 0 4 22 0 0 0 0 0 0 0 0 0 0 0 0 0 0 0 0 0 0 0 0 0 0 0 0 0
67 62 85 209 198 101 70 84 80 67 25 27 21 43 0 0 0 0 0 0 0 0 0 0 0 0 0 0 0 0 0 0 0 0 0 0 0 0 0 0 0 0 0 0 0
51 66 108 222 263 171 115 70 79 100 69 33 17 0 0 0 1 0 0 0 0 0 0 0 0 0 0 0 0 0 0 0 0 0 0 0 0 0 0 0 0 0 0 0 0
71 43 131 106 199 184 81 41 54 71 40 43 50 0 1 0 0 0 0 0 0 0 0 0 0 0 0 0 0 0 0 0 0 0 0 0 0 0 0 0 0 0 0 0 0
62 3 68 112 120 97 19 1 1 272 231 92 5 0 0 0 17 0 0 0 0 0 0 0 0 0 0 0 0 0 0 0 0 0 0 0 0 0 0 0 0 0 0 0 0
35 21 103 117 103 22 0 0 0 134 96 3 0 0 0 1 0 0 0 0 0 0 0 0 0 0 0 0 0 0 0 0 0 0 0 0 0 0 0 0 0 0 0 0 0
56 45 68 58 15 0 0 0 0 1 2 10 7 0 0 0 0 0 0 0 0 0 0 0 0 0 0 0 0 0 0 0 0 0 0 0 0 0 0 0 0 0 0 0 0
79 59 43 27 22 0 0 2 4 11 5 17 0 0 0 0 0 0 0 0 0 0 0 0 0 0 0 0 0 0 1 1 0 0 0 0 0 0 0 0 0 0 0 0 0
30 23 8 33 48 0 0 0 1 12 2 17 4 8 5 0 0 1 0 0 0 0 0 0 0 0 0 0 0 0 2 0 0 0 0 0 0 0 0 0 0 0 1 38 71
2 6 3 1 2 6 15 23 31 6 0 4 20 5 14 8 9 0 0 0 0 0 0 0 0 0 0 0 0 5 0 0 0 14 0 0 0 0 0 0 0 0 0 1 99
60 15 0 0 0 1 11 9 6 7 0 5 7 1 7 1 0 13 0 0 0 1 0 0 0 0 0 0 0 0 0 4 4 12 6 0 0 0 0 0 0 0 0 2 3
0 0 0 0 0 0 0 5 2 0 0 19 6 1 6 9 12 9 0 0 0 0 0 0 0 0 0 0 0 0 2 3 7 20 0 0 0 0 1 3 2 5 3 3 5
2 0 0 0 4 0 0 0 0 0 2 31 0 1 1 0 0 0 0 0 0 0 0 0 0 0 0 0 0 2 9 0 0 0 0 0 0 0 0 0 16 17 4 4 2
0 0 0 0 0 0 0 0 0 11 10 0 0 0 0 0 0 0 0 0 0 0 0 0 0 0 0 0 9 12 5 0 0 0 0 5 1 0 3 4 2 5 2 2 2
0 0 0 0 0 0 0 0 0 0 0 0 0 0 0 0 0 0 0 0 0 0 1 1 0 0 0 0 0 13 13 9 15 8 0 0 1 2 5 4 2 3 2 4 4
0 0 0 0 0 0 0 5 0 0 0 0 0 0 0 0 0 0 0 0 0 0 0 1 5 0 0 0 0 7 4 23 7 0 0 0 0 15 2 6 7 5 7 13 5
0 0 0 0 0 0 0 2 0 0 0 0 0 0 0 0 0 0 0 0 0 2 0 0 2 0 0 0 0 0 0 4 5 9 0 0 0 18 11 7 8 9 10 14 10
0 0 0 0 0 0 0 0 0 0 0 0 0 0 0 0 0 0 0 0 0 0 0 0 0 0 0 0 0 0 0 0 0 0 0 0 0 3 2 7 6 8 11 3 1
0 0 0 0 0 0 0 0 0 0 0 0 0 0 0 0 0 0 0 0 0 0 0 0 0 0 0 0 0 0 0 0 0 0 0 0 0 0 0 0 1 1 0 0 0
0 0 0 0 0 0 0 0 0 0 0 0 0 0 0 0 0 0 0 0 0 0 0 0 0 0 0 0 0 0 0 0 0 0 0 0 0 0 0 0 0 0 0 0 0
0 0 0 0 0 0 0 0 0 0 0 0 0 0 0 0 0 0 0 0 0 0 0 0 0 0 0 0 0 0 0 0 0 0 0 0 0 0 0 0 0 0 0 0 0
0 0 0 0 0 0 0 0 0 0 0 0 0 0 0 0 0 0 0 0 0 0 0 0 0 0 0 0 0 0 0 0 0 0 0 0 0 0 0 0 0 0 0 0 0
0 0 0 0 0 0 0 0 0 0 0 0 0 0 0 0 0 0 0 0 0 0 0 0 0 0 0 0 0 0 0 0 0 0 0 0 0 0 0 0 0 0 0 0 0

GFSSW_con_sbcape_099.txt.gz
CAPE
60 56 21 18 39 53 61 14 2 1 0 0 0 0 20 4 0 0 0 0 0 0 0 0 0 0 0 0 0 0 0 0 0 0 0 0 0 0 0 0 0 0 0 0 0
86 85 83 49 59 58 74 65 34 8 0 2 0 0 54 0 0 0 0 0 0 0 0 0 0 0 0 0 0 0 0 0 0 0 0 0 0 0 0 0 0 0 0 0 0
75 89 95 82 60 69 94 51 69 23 13 4 5 3 10 0 0 0 0 0 0 0 0 0 0 0 0 0 0 0 0 0 0 0 0 0 0 0 0 0 0 0 0 0 0
48 62 64 49 69 99 116 86 69 47 16 4 23 21 3 0 0 0 0 26 0 0 0 0 0 0 0 0 0 0 0 0 0 0 0 0 0 0 0 0 0 0 0 0 0
87 67 59 44 58 95 85 82 107 89 36 0 29 52 0 0 0 0 51 19 0 0 0 0 0 0 0 0 0 0 0 0 0 0 0 0 0 0 0 0 0 0 0 0 0
128 76 28 33 73 119 78 56 65 78 59 19 5 30 0 4 0 0 0 0 0 0 0 0 0 0 0 0 0 0 0 0 0 0 0 0 0 0 0 0 0 0 0 0 0
189 135 98 86 100 113 161 44 38 75 67 75 32 18 0 0 0 0 0 0 0 0 0 0 0 0 0 0 0 0 0 0 0 0 0 0 0 0 0 0 0 0 0 0 0
197 84 64 72 37 98 153 75 41 83 62 63 57 1 5 0 0 0 0 0 0 0 0 0 0 0 0 0 0 0 0 0 0 0 0 0 0 0 0 0 0 0 0 0 0
158 39 34 41 6 157 22 2 0 92 216 115 38 3 3 14 0 0 0 0 0 0 0 0 0 0 0 0 0 0 0 0 0 0 0 0 0 0 0 0 0 0 0 0 0
52 55 22 41 136 0 0 0 20 93 90 58 22 2 9 3 0 0 0 0 0 0 0 0 0 0 0 0 0 0 0 0 0 0 0 0 0 0 0 0 0 0 0 0 0
89 39 22 94 0 0 0 0 6 50 9 58 12 10 3 0 0 0 0 0 0 0 0 0 0 0 0 0 0 0 0 0 0 0 0 0 0 0 0 0 0 0 0 1 0
47 35 46 125 0 0 0 0 0 0 0 8 2 8 0 0 0 0 0 0 0 0 0 0 0 0 0 0 0 0 1 0 0 0 0 0 0 0 0 0 0 0 1 4 27
32 26 70 41 0 0 0 0 1 13 2 4 24 17 8 0 0 0 0 0 0 0 0 0 0 0 0 0 0 0 0 0 0 0 0 0 0 0 0 0 0 0 0 2 77
26 1 0 56 0 0 9 13 9 1 0 0 9 6 5 1 1 0 0 0 0 0 0 0 0 0 0 0 0 0 0 0 0 5 5 0 6 0 0 0 0 0 0 0 5
0 0 5 0 0 1 0 8 0 8 0 8 8 0 11 0 0 7 0 0 0 0 0 0 0 0 0 0 0 0 0 0 1 14 19 8 2 0 0 0 0 3 3 3 6
0 0 0 0 0 1 0 0 0 0 0 0 10 16 19 1 1 0 0 0 0 0 0 0 0 0 0 0 0 0 0 0 5 21 7 0 0 0 0 1 2 13 2 6 2
0 0 0 0 0 0 0 0 0 0 3 1 24 6 0 0 0 0 0 0 0 0 0 0 0 0 0 0 0 2 13 0 0 0 0 0 0 0 0 0 4 17 2 3 4
0 0 0 0 0 0 0 0 0 8 4 0 0 0 0 0 0 0 0 0 0 0 0 0 0 0 0 0 7 8 14 1 0 0 0 2 0 0 0 4 2 1 1 4 5
0 0 0 0 0 0 0 0 0 0 0 0 0 0 0 0 0 0 0 0 0 0 0 0 0 0 0 0 0 10 5 4 14 1 3 0 1 2 5 9 3 5 8 8 11
0 0 0 0 0 0 0 4 0 0 0 0 0 0 0 0 0 0 0 0 0 0 0 3 5 0 0 0 0 6 4 11 13 0 0 0 0 9 3 8 7 7 7 11 12
0 0 0 0 0 0 0 0 0 0 0 0 0 0 0 0 0 0 0 0 0 0 0 0 1 0 0 0 0 1 0 0 5 10 2 0 0 15 6 9 9 7 12 12 11
0 0 0 0 0 0 0 0 0 0 0 0 0 0 0 0 0 0 0 0 0 0 0 0 0 0 0 0 0 0 0 0 0 0 0 0 0 0 3 6 5 9 10 10 1
0 0 0 0 0 0 0 0 0 0 0 0 0 0 0 0 0 0 0 0 0 0 0 0 0 0 0 0 0 0 0 0 0 0 0 0 0 0 0 0 2 4 1 0 0
0 0 0 0 0 0 0 0 0 0 0 0 0 0 0 0 0 0 0 0 0 0 0 0 0 0 0 0 0 0 0 0 0 0 0 0 0 0 0 0 0 0 0 0 0
0 0 0 0 0 0 0 0 0 0 0 0 0 0 0 0 0 0 0 0 0 0 0 0 0 0 0 0 0 0 0 0 0 0 0 0 0 0 0 0 0 0 0 0 0
0 0 0 0 0 0 0 0 0 0 0 0 0 0 0 0 0 0 0 0 0 0 0 0 0 0 0 0 0 0 0 0 0 0 0 0 0 0 0 0 0 0 0 0 0
0 0 0 0 0 0 0 0 0 0 0 0 0 0 0 0 0 0 0 0 0 0 0 0 0 0 0 0 0 0 0 0 0 0 0 0 0 0 0 0 0 0 0 0 0

GFSSW_con_sbcape_102.txt.gz
CAPE
69 102 113 98 37 27 26 59 4 0 0 0 2 0 2 3 0 0 0 0 0 0 0 0 0 0 0 0 0 0 0 0 0 0 0 0 0 0 0 0 0 0 0 0 0
84 117 114 112 104 66 56 62 67 31 0 1 4 0 103 0 0 0 0 0 0 0 0 0 0 0 0 0 0 0 0 0 0 0 0 0 0 0 0 0 0 0 0 0 0
53 95 85 95 85 85 77 82 77 76 5 18 14 15 8 0 0 0 0 0 1 0 0 0 0 0 0 0 0 0 0 0 0 0 0 0 0 0 0 0 0 0 0 0 0
92 73 68 60 52 60 80 85 118 75 45 2 21 37 0 0 1 0 0 17 0 0 0 0 0 0 0 0 0 0 0 0 0 0 0 0 0 0 0 0 0 0 0 0 0
145 102 90 80 33 33 29 47 77 95 39 1 13 72 0 0 0 0 39 4 0 0 0 0 0 0 0 0 0 0 0 0 0 0 0 0 0 0 0 0 0 0 0 0 0
229 107 72 24 18 5 5 50 63 46 55 35 39 94 0 0 0 0 0 0 0 0 0 0 0 0 0 0 0 0 0 0 0 0 0 0 0 0 0 0 0 0 0 0 0
298 161 120 55 35 23 41 28 1 1 9 50 62 80 41 7 0 0 0 0 0 0 0 0 0 0 0 0 0 0 0 0 0 0 0 0 0 0 0 0 0 0 0 0 0
242 211 12 15 10 19 84 46 54 13 57 30 80 12 18 1 0 0 0 0 0 0 0 0 0 0 0 0 0 0 0 0 0 0 0 0 0 0 0 0 0 0 0 0 0
128 59 19 19 7 48 1 0 1 70 96 63 55 14 35 34 0 0 0 0 0 0 0 0 0 0 0 0 0 0 0 0 0 0 0 0 0 0 0 0 0 0 0 0 0
4 36 52 98 32 0 0 125 224 290 103 0 9 25 35 3 0 0 0 0 0 0 0 0 0 0 0 0 0 0 0 0 0 0 0 0 0 0 0 0 0 0 1 1 2
66 79 78 0 0 0 0 0 24 4 55 0 0 25 1 0 0 0 0 0 0 0 0 0 0 0 0 0 0 0 0 0 0 0 0 0 0 0 0 0 0 3 0 5 9
39 75 62 0 0 0 0 0 0 0 0 2 21 11 7 0 3 0 0 0 0 0 0 0 0 0 0 0 0 0 0 0 0 0 0 0 0 0 0 0 0 3 4 12 24
2 55 22 2 7 4 4 12 0 0 2 5 18 18 8 1 0 0 0 0 0 0 0 0 0 0 0 0 0 0 0 0 0 0 1 0 0 0 0 0 0 6 4 1 11
26 13 23 38 12 3 10 21 6 2 8 3 7 3 7 2 0 0 0 0 0 0 0 0 0 0 0 0 0 0 0 0 1 7 6 1 4 0 0 0 0 5 7 4 0
16 8 9 0 0 1 7 5 2 6 1 8 16 2 1 0 0 1 0 0 0 0 0 0 0 0 0 0 0 0 0 1 4 1 15 1 13 0 0 0 1 4 7 6 3
0 0 0 0 0 0 0 1 0 2 4 6 6 18 15 3 2 0 0 0 0 0 0 0 0 0 0 0 0 0 0 4 9 3 13 0 5 5 0 0 4 12 12 9 9
0 0 0 0 0 0 0 0 1 10 3 14 42 11 2 1 0 0 0 0 0 0 2 0 0 0 0 1 2 1 1 5 5 5 7 0 1 0 1 8 17 8 5 6 5
0 0 0 0 0 0 0 0 1 11 15 5 9 0 1 0 0 0 0 0 0 0 2 3 3 0 0 0 0 2 13 16 9 12 15 1 1 6 3 7 2 3 3 4 4
0 0 0 0 0 0 0 1 7 0 0 7 0 1 3 0 0 0 0 3 1 0 1 2 5 0 0 1 0 8 37 7 23 0 11 2 6 4 4 5 5 5 8 8 8
0 0 0 0 0 0 0 3 0 0 0 0 0 0 0 0 0 0 0 0 3 0 0 0 2 0 0 0 0 6 16 11 16 11 3 1 1 5 3 8 7 8 7 7 9
0 0 0 0 0 0 9 6 0 0 0 0 0 0 0 0 0 0 0 0 0 0 1 3 0 0 0 1 4 16 13 4 7 1 10 3 0 7 4 7 7 6 6 7 8
0 0 0 0 0 1 2 0 0 0 0 0 0 0 0 0 0 0 0 0 0 0 0 0 0 1 0 0 0 0 0 0 1 0 0 0 0 0 3 5 6 6 6 6 4
0 0 0 0 2 0 0 0 0 0 0 0 0 0 0 0 0 0 0 0 0 0 0 0 0 0 0 0 0 0 0 0 0 0 0 0 0 1 1 0 6 2 7 5 0
0 0 0 0 0 0 0 0 0 0 0 0 0 0 0 0 0 0 0 0 0 0 0 0 0 0 0 0 0 0 0 0 0 0 0 0 0 0 0 2 2 3 0 0 0
0 0 0 0 0 0 0 0 0 0 0 0 0 0 0 0 0 0 0 0 0 0 0 0 0 0 0 0 0 0 0 0 0 0 0 0 0 0 0 0 0 0 0 0 0
0 0 0 0 0 0 0 0 0 0 0 0 0 0 0 0 0 0 0 0 0 0 0 0 0 0 0 0 0 0 0 0 0 0 0 0 0 0 0 0 0 0 0 0 0
0 0 0 0 0 0 0 0 0 0 0 0 0 0 0 0 0 0 0 0 0 0 0 0 0 0 0 0 0 0 0 0 0 0 0 0 0 0 0 0 0 0 0 0 0

GFSSW_con_sbcape_105.txt.gz
CAPE
105 104 110 122 137 82 41 41 77 2 0 0 9 0 11 45 0 0 0 0 0 0 0 0 0 0 0 0 0 0 0 0 0 0 0 0 0 0 0 0 0 0 0 0 0
9 47 115 127 56 76 67 40 59 46 0 0 0 1 7 0 0 0 0 0 0 0 0 0 0 0 0 0 0 0 0 0 0 0 0 0 0 0 0 0 0 0 0 0 0
48 72 111 63 71 50 72 74 86 64 6 11 0 0 193 0 0 0 0 0 1 0 0 0 0 0 0 0 0 0 0 0 0 0 0 0 0 0 0 0 0 0 0 0 0
131 136 116 75 67 23 58 75 120 80 50 0 41 47 8 0 44 0 0 7 0 0 0 0 0 0 0 0 0 0 0 0 0 0 0 0 0 0 0 0 0 0 0 0 0
160 164 131 102 52 28 24 34 79 88 54 0 17 113 1 0 0 0 19 4 0 0 0 0 0 0 0 0 0 0 0 0 0 0 0 0 0 0 0 0 0 0 0 0 0
189 148 89 32 16 24 11 63 94 90 63 20 36 95 35 39 0 0 8 0 0 0 0 0 0 0 0 0 0 0 0 0 0 0 0 0 0 0 0 0 0 0 0 0 0
188 132 114 108 62 40 20 5 1 25 7 13 11 65 53 25 0 0 0 0 0 0 0 0 0 0 0 0 0 0 0 0 0 0 0 0 0 0 0 0 0 0 0 0 0
171 20 52 38 28 18 40 51 35 0 0 6 44 48 52 6 3 0 0 0 0 0 0 0 0 0 0 0 0 0 0 0 0 0 0 0 0 0 0 0 0 0 0 0 0
186 65 12 28 11 40 0 0 0 33 36 44 49 40 75 1 0 0 0 0 0 0 0 0 0 0 0 0 0 0 0 0 0 0 0 0 0 0 0 0 0 0 0 0 0
75 117 143 41 5 2 61 113 87 50 46 36 33 9 9 5 0 7 0 0 0 0 0 0 0 0 0 0 0 0 0 0 0 0 0 0 0 0 0 0 0 0 0 0 0
150 63 0 0 0 0 32 40 59 0 22 27 1 25 4 0 0 0 0 0 0 0 0 0 0 0 0 0 0 0 0 0 0 0 0 0 0 0 0 0 0 0 0 1 5
86 45 14 2 0 0 2 17 5 2 2 4 19 16 17 16 12 0 0 0 0 0 0 0 0 0 0 0 0 0 0 0 0 0 0 0 0 0 0 0 0 0 1 0 5
73 47 19 29 3 24 0 3 0 0 3 1 15 14 7 5 3 1 0 0 0 0 0 0 0 0 0 0 0 0 0 0 0 0 0 0 0 0 0 0 0 0 2 3 4
29 46 22 14 1 13 14 28 8 5 26 2 8 1 7 5 2 0 0 0 0 0 0 0 0 0 0 0 0 0 0 0 1 2 1 0 0 0 0 0 0 4 3 2 2
5 2 21 0 3 15 2 0 1 3 10 7 14 1 4 0 0 0 0 0 0 0 0 0 0 0 0 0 0 0 0 0 4 1 2 0 3 0 0 0 0 1 6 9 3
0 0 0 1 1 0 2 1 0 3 7 8 16 18 9 1 0 0 0 0 0 0 0 0 0 0 1 0 0 0 1 2 0 1 2 0 1 0 0 0 0 2 4 8 5
1 0 0 0 12 0 0 0 5 17 3 20 20 9 1 0 0 0 0 0 1 4 2 1 0 0 0 1 0 1 5 5 7 7 5 0 0 0 0 0 1 3 3 6 2
0 0 0 0 0 0 0 0 10 18 15 12 7 2 1 0 0 0 0 1 0 1 3 8 7 0 0 1 1 1 6 7 3 10 5 0 2 0 0 3 7 4 3 3 3
0 0 0 0 0 0 0 8 26 8 4 4 2 0 0 0 0 3 4 6 3 1 0 1 4 0 0 6 6 2 22 9 8 2 4 0 0 0 0 0 0 4 7 5 6
0 0 0 0 0 0 8 2 3 1 0 0 0 1 0 0 0 3 2 2 0 0 1 1 7 0 0 0 3 2 0 12 22 5 3 2 0 0 1 12 5 6 5 4 6
0 0 0 0 0 0 42 16 0 0 1 1 0 0 0 0 3 2 0 0 1 0 1 4 2 0 0 1 4 3 4 4 3 0 6 2 1 0 1 6 6 6 4 4 3
0 0 0 0 5 2 9 5 1 0 0 0 0 0 0 0 6 4 2 2 0 3 3 0 0 0 0 0 0 0 4 0 2 6 4 0 0 0 0 2 6 8 6 4 2
0 0 0 0 23 7 0 0 0 0 0 0 0 0 0 0 0 0 0 0 0 3 3 0 0 0 0 0 0 0 0 0 0 0 0 0 0 0 0 0 1 2 4 7 5
0 0 0 0 0 0 0 0 0 0 0 0 0 0 0 0 0 0 0 0 0 0 0 0 0 0 0 0 0 0 0 0 0 1 0 0 0 0 0 0 0 1 2 2 0
0 0 0 0 0 0 0 0 0 0 0 0 0 0 0 0 0 0 0 0 0 0 0 0 0 0 0 0 0 0 0 0 0 0 0 0 0 0 0 0 0 0 0 0 0
0 0 0 0 0 0 0 0 0 0 0 0 0 0 0 0 0 0 0 0 0 0 0 0 0 0 0 0 0 0 0 0 0 0 0 0 0 0 0 0 0 0 0 0 0
0 0 0 0 0 0 0 0 0 0 0 0 0 0 0 0 0 0 0 0 0 0 0 0 0 0 0 0 0 0 0 0 0 0 0 0 0 0 0 0 0 0 0 0 0

GFSSW_con_sbcape_108.txt.gz
CAPE
119 129 94 117 127 117 12 30 61 2 0 0 0 0 0 116 0 0 0 0 0 0 0 0 0 0 0 0 0 0 0 0 0 0 0 0 0 0 0 0 0 0 0 0 0
89 28 37 105 103 58 37 24 48 41 2 0 0 0 1 6 0 12 0 0 0 0 0 0 0 0 0 0 0 0 0 0 0 0 0 0 0 0 0 0 0 0 0 0 0
77 95 77 67 97 85 84 61 52 80 12 6 0 0 7 0 6 1 0 0 0 0 0 0 0 0 0 0 0 0 0 0 0 0 0 0 0 0 0 0 0 0 0 0 0
150 108 120 81 78 74 70 61 58 73 18 0 4 128 78 38 26 0 0 5 0 0 0 0 0 0 0 0 0 0 0 0 0 0 0 0 0 0 0 0 0 0 0 0 0
172 119 114 131 158 122 62 63 152 142 62 0 0 135 36 26 6 0 20 0 0 0 0 0 0 0 0 0 0 0 0 0 0 0 0 0 0 0 0 0 0 0 0 0 0
192 138 100 117 134 107 146 127 149 123 74 0 23 141 54 66 0 0 2 0 0 0 0 0 0 0 0 0 0 0 0 0 0 0 0 0 0 0 0 0 0 0 0 0 0
166 152 138 199 186 127 76 20 66 84 51 23 0 126 69 30 2 0 0 0 0 0 0 0 0 0 0 0 0 0 0 0 0 0 0 0 0 0 0 0 0 0 0 0 0
81 151 124 143 73 61 74 58 6 1 3 43 24 65 92 17 0 0 0 0 0 0 0 0 0 0 0 0 0 0 0 0 0 0 0 0 0 0 0 0 0 0 0 0 0
132 162 143 75 87 39 10 22 61 41 11 14 29 29 45 0 0 1 0 0 0 0 0 0 0 0 0 0 0 0 0 0 0 0 0 0 0 0 0 0 0 0 0 0 0
60 18 13 9 3 11 122 12 44 46 36 6 1 16 2 1 0 0 0 0 0 0 0 0 0 0 0 0 0 0 0 0 0 0 0 0 0 0 0 0 0 0 0 0 0
1 18 0 0 0 1 57 47 21 2 1 10 5 14 0 0 0 5 0 0 0 0 0 0 0 0 0 0 0 0 0 0 0 0 0 0 0 0 0 0 0 0 0 0 0
1 15 8 0 0 0 14 9 2 0 0 3 9 13 14 0 4 0 0 0 0 0 0 0 0 0 0 0 0 0 0 0 0 0 0 0 0 0 0 0 0 0 0 0 0
38 11 8 0 0 0 0 1 3 0 1 4 16 10 8 7 3 0 0 0 0 0 0 0 0 0 0 0 0 0 0 0 0 0 0 0 0 0 0 0 0 0 0 0 0
30 17 20 7 4 5 1 4 5 1 4 1 7 1 9 5 2 0 0 0 0 0 0 0 0 0 0 0 0 0 0 0 0 0 0 0 0 0 0 0 0 0 0 0 0
4 0 0 0 0 11 0 0 0 1 0 7 14 1 12 0 0 2 0 0 0 0 0 0 0 0 0 0 0 0 0 0 1 0 0 0 0 0 0 0 0 0 0 0 0
0 0 0 12 2 0 0 0 4 5 5 4 9 13 3 2 0 1 0 0 0 0 0 0 0 0 0 0 0 0 0 0 0 0 0 0 0 0 0 0 0 0 0 0 0
0 0 0 0 1 0 0 0 1 2 2 13 32 10 1 0 0 0 0 0 0 0 0 0 0 0 0 1 0 0 0 0 0 0 0 0 0 0 0 0 0 0 0 0 0
0 0 0 0 0 0 0 1 0 20 5 8 1 0 1 0 0 0 0 0 0 0 0 0 0 0 0 0 1 3 0 0 0 0 0 0 0 0 0 0 0 0 0 2 1
0 0 0 0 0 0 0 0 18 0 2 0 5 0 0 0 0 1 1 0 0 0 0 0 0 0 0 0 1 0 3 0 0 0 0 0 0 0 0 0 0 0 0 0 1
0 0 0 0 0 0 0 1 0 1 0 0 0 0 0 0 0 1 0 0 0 0 0 0 0 0 0 0 0 6 0 3 2 0 0 0 0 0 0 0 0 0 1 4 2
0 0 0 0 0 0 3 1 0 0 0 0 0 0 0 0 1 0 0 0 1 0 0 0 0 0 0 0 0 1 0 0 1 0 1 0 0 0 0 0 0 0 0 0 2
0 0 0 0 0 1 0 0 0 0 0 0 0 0 0 0 0 1 0 0 0 0 0 0 0 0 0 0 0 0 0 0 0 0 0 0 0 0 0 0 0 0 0 0 0
0 0 0 0 0 0 0 0 0 0 0 0 0 0 0 0 0 0 0 0 0 0 0 0 0 0 0 0 0 0 0 0 0 0 0 0 0 0 0 0 0 0 0 0 0
0 0 0 0 0 0 0 0 0 0 0 0 0 0 0 0 0 0 0 0 0 0 0 0 0 0 0 0 0 0 0 0 0 0 0 0 0 0 0 0 0 0 0 0 0
0 0 0 0 0 0 0 0 0 0 0 0 0 0 0 0 0 0 0 0 0 0 0 0 0 0 0 0 0 0 0 0 0 0 0 0 0 0 0 0 0 0 0 0 0
0 0 0 0 0 0 0 0 0 0 0 0 0 0 0 0 0 0 0 0 0 0 0 0 0 0 0 0 0 0 0 0 0 0 0 0 0 0 0 0 0 0 0 0 0
0 0 0 0 0 0 0 0 0 0 0 0 0 0 0 0 0 0 0 0 0 0 0 0 0 0 0 0 0 0 0 0 0 0 0 0 0 0 0 0 0 0 0 0 0

GFSSW_con_sbcape_111.txt.gz
CAPE
202 221 150 27 113 64 71 100 86 5 0 0 0 0 0 67 0 0 0 0 0 0 0 0 0 0 0 0 0 0 0 0 0 0 0 0 0 0 0 0 0 0 0 0 0
153 106 232 245 128 100 180 141 138 37 0 0 0 0 81 36 0 0 0 0 0 0 0 0 0 0 0 0 0 0 0 0 0 0 0 0 0 0 0 0 0 0 0 0 0
92 127 142 100 104 162 211 107 158 74 39 0 0 0 50 27 0 0 0 0 0 0 0 0 0 0 0 0 0 0 0 0 0 0 0 0 0 0 0 0 0 0 0 0 0
80 134 107 82 70 130 149 107 127 140 47 0 14 209 102 18 0 0 0 1 0 0 0 0 0 0 0 0 0 0 0 0 0 0 0 0 0 0 0 0 0 0 0 0 0
64 125 129 152 154 90 91 58 213 167 45 0 20 118 3 15 0 0 3 6 0 0 0 0 0 0 0 0 0 0 0 0 0 0 0 0 0 0 0 0 0 0 0 0 0
165 144 126 119 160 201 205 238 223 180 43 8 15 78 23 5 0 0 0 0 0 0 0 0 0 0 0 0 0 0 0 0 0 0 0 0 0 0 0 0 0 0 0 0 0
258 171 167 180 238 229 170 182 83 110 82 17 9 62 25 16 1 0 0 0 0 0 0 0 0 0 0 0 0 0 0 0 0 0 0 0 0 0 0 0 0 0 0 0 0
203 141 129 62 144 243 261 98 66 61 84 40 31 21 34 2 0 0 0 0 0 0 0 0 0 0 0 0 0 0 0 0 0 0 0 0 0 0 0 0 0 0 0 0 0
247 265 182 151 56 43 55 40 49 15 85 9 0 18 32 0 0 0 0 0 0 0 0 0 0 0 0 0 0 0 0 0 0 0 0 0 0 0 0 0 0 0 0 0 0
32 0 1 0 3 133 8 2 3 0 0 1 0 2 0 8 0 0 0 0 0 0 0 0 0 0 0 0 0 0 0 0 0 0 0 0 0 0 0 0 0 0 0 0 0
10 34 0 0 3 91 4 0 0 0 1 10 13 7 5 0 0 0 0 0 0 0 0 0 0 0 0 0 0 0 0 0 0 0 0 0 0 0 0 0 0 0 0 0 0
1 0 0 0 0 0 0 0 5 0 1 1 0 9 11 11 10 0 0 0 0 0 0 0 0 0 0 0 0 0 0 0 0 0 0 0 0 0 0 0 0 0 0 0 0
3 0 0 0 0 0 0 1 0 0 1 1 6 2 1 2 5 0 0 0 0 0 0 0 0 0 0 0 0 0 0 0 0 0 0 0 0 0 0 0 0 0 0 0 0
0 0 0 0 0 0 0 1 0 0 0 0 6 2 3 2 5 0 0 0 0 0 0 0 0 0 0 0 0 0 0 0 0 0 0 0 0 0 0 0 0 0 0 0 0
0 0 0 0 0 0 0 0 0 0 0 3 8 1 2 0 0 0 0 0 0 0 0 0 0 0 0 0 0 0 0 0 0 0 0 0 0 0 0 0 0 0 0 0 0
0 0 0 0 0 0 0 0 0 0 0 1 6 15 8 0 0 0 0 0 0 0 0 0 0 0 0 0 0 0 0 0 0 0 0 0 0 0 0 0 0 0 0 0 0
0 0 0 0 0 0 0 0 0 0 4 6 27 7 1 1 0 0 0 0 0 0 0 0 0 0 0 0 0 0 0 0 0 0 0 0 0 0 0 0 0 0 0 0 0
0 0 0 0 0 0 0 0 0 13 26 7 0 1 3 0 0 0 0 0 0 0 0 0 0 0 0 0 0 2 0 0 0 0 0 0 0 0 0 0 0 0 0 0 0
0 0 0 0 0 0 0 0 0 0 0 0 0 1 0 0 0 0 0 0 0 0 0 0 0 0 0 0 0 0 0 0 0 0 0 0 0 0 0 0 0 0 0 0 0
0 0 0 0 0 0 0 0 0 0 0 0 0 0 0 0 0 0 0 0 0 0 0 0 0 0 0 0 0 4 0 0 0 0 0 0 0 0 0 0 0 0 0 0 0
0 0 0 0 0 0 0 0 0 0 0 0 0 0 0 0 0 0 0 0 0 0 0 0 0 0 0 0 0 0 0 0 0 0 0 0 0 0 0 0 0 0 0 0 0
0 0 0 0 0 0 0 0 0 0 0 0 0 0 0 0 0 0 0 0 0 0 0 0 0 0 0 0 0 0 0 0 0 0 0 0 0 0 0 0 0 0 0 0 0
0 0 0 0 0 0 0 0 0 0 0 0 0 0 0 0 0 0 0 0 0 0 0 0 0 0 0 0 0 0 0 0 0 0 0 0 0 0 0 0 0 0 0 0 0
0 0 0 0 0 0 0 0 0 0 0 0 0 0 0 0 0 0 0 0 0 0 0 0 0 0 0 0 0 0 0 0 0 0 0 0 0 0 0 0 0 0 0 0 0
0 0 0 0 0 0 0 0 0 0 0 0 0 0 0 0 0 0 0 0 0 0 0 0 0 0 0 0 0 0 0 0 0 0 0 0 0 0 0 0 0 0 0 0 0
0 0 0 0 0 0 0 0 0 0 0 0 0 0 0 0 0 0 0 0 0 0 0 0 0 0 0 0 0 0 0 0 0 0 0 0 0 0 0 0 0 0 0 0 0
0 0 0 0 0 0 0 0 0 0 0 0 0 0 0 0 0 0 0 0 0 0 0 0 0 0 0 0 0 0 0 0 0 0 0 0 0 0 0 0 0 0 0 0 0

GFSSW_con_sbcape_114.txt.gz
CAPE
229 144 197 316 173 87 95 71 225 43 0 0 7 25 28 114 3 0 0 0 0 0 0 0 0 0 0 0 0 0 0 0 0 0 0 0 0 0 0 0 0 0 0 0 0
85 71 152 267 285 11 23 117 228 102 14 1 0 0 6 40 1 0 0 0 0 0 0 0 0 0 0 0 0 0 0 0 0 0 0 0 0 0 0 0 0 0 0 0 0
96 154 228 258 212 135 130 113 280 161 59 0 0 0 133 4 5 0 0 0 0 0 0 0 0 0 0 0 0 0 0 0 0 0 0 0 0 0 0 0 0 0 0 0 0
96 193 166 179 150 87 99 108 265 300 130 12 79 199 75 4 6 0 24 0 0 0 0 0 0 0 0 0 0 0 0 0 0 0 0 0 0 0 0 0 0 0 0 0 0
163 200 209 149 59 45 77 87 121 246 47 13 36 234 11 14 0 0 16 0 0 0 0 0 0 0 0 0 0 0 0 0 0 0 0 0 0 0 0 0 0 0 0 0 0
209 166 121 95 143 154 188 172 164 192 31 16 5 72 15 0 0 0 0 0 0 0 0 0 0 0 0 0 0 0 0 0 0 0 0 0 0 0 0 0 0 0 0 0 0
257 199 171 158 227 247 302 255 198 172 77 7 17 32 22 46 1 0 0 0 0 0 0 0 0 0 0 0 0 0 0 0 0 0 0 0 0 0 0 0 0 0 0 0 0
214 126 98 202 298 274 234 164 50 35 40 73 24 4 55 1 3 0 0 0 0 0 0 0 0 0 0 0 0 0 0 0 0 0 0 0 0 0 0 0 0 0 0 0 0
176 156 92 70 126 121 198 174 86 35 52 4 0 0 4 2 0 0 0 0 0 0 0 0 0 0 0 0 0 0 0 0 0 0 0 0 0 0 0 0 0 0 0 0 0
0 0 0 82 94 39 28 5 3 0 0 0 0 0 0 13 1 0 0 0 0 0 0 0 0 0 0 0 0 0 0 0 0 0 0 0 0 0 0 0 0 0 0 0 0
3 0 4 6 84 72 0 0 0 0 1 24 12 7 2 3 0 0 0 0 0 0 0 0 0 0 0 0 0 0 0 0 0 0 0 0 0 0 0 0 0 0 0 0 0
0 0 2 0 0 0 0 0 3 0 1 0 4 13 19 1 0 1 0 0 0 0 0 0 0 0 0 0 0 0 0 0 0 0 0 0 0 0 0 0 0 0 0 0 0
0 0 0 0 0 0 0 0 0 0 1 2 7 2 2 0 0 0 0 0 0 0 0 0 0 0 0 0 0 0 0 0 0 0 0 0 0 0 0 0 0 0 0 0 0
0 0 0 0 0 0 0 0 0 0 0 0 6 7 14 19 0 0 0 0 0 0 0 0 0 0 0 0 0 0 0 0 0 0 0 0 0 0 0 0 0 0 0 0 0
0 0 0 0 0 0 0 0 0 0 0 0 6 0 12 1 0 0 0 0 0 0 0 0 0 0 0 0 0 0 0 0 0 0 0 0 0 0 0 0 0 0 0 0 0
0 0 0 0 0 0 0 0 0 0 0 1 14 7 1 0 0 0 0 0 0 0 0 0 0 0 0 0 0 0 0 0 0 0 0 0 0 0 0 0 0 0 0 0 0
0 0 0 0 0 0 0 0 0 0 0 25 13 0 0 0 0 0 0 0 0 0 0 0 0 0 0 0 0 0 0 0 0 0 0 0 0 0 0 0 0 0 0 0 0
0 0 0 0 0 0 0 0 0 5 22 4 7 1 0 0 0 0 0 0 0 0 0 0 0 0 0 0 0 0 0 0 0 0 0 0 0 0 0 0 0 0 0 0 0
0 0 0 0 0 0 0 0 0 0 0 0 0 0 0 0 0 0 0 0 0 0 0 0 0 0 0 1 0 0 0 0 0 0 0 0 0 0 0 0 0 0 0 0 0
0 0 0 0 0 0 0 0 0 0 0 0 0 0 0 0 0 0 0 0 0 0 0 0 0 0 0 0 0 0 0 0 0 0 0 0 0 0 0 0 0 0 0 0 0
0 0 0 0 0 0 0 0 0 0 0 0 0 0 0 0 0 0 0 0 0 0 0 0 0 0 0 0 0 0 0 0 0 0 0 0 0 0 0 0 0 0 0 0 0
0 0 0 0 0 0 0 0 0 0 0 0 0 0 0 0 0 0 0 0 0 0 0 0 0 0 0 0 0 0 0 0 0 0 0 0 0 0 0 0 0 0 0 0 0
0 0 0 0 0 0 0 0 0 0 0 0 0 0 0 0 0 0 0 0 0 0 0 0 0 0 0 0 0 0 0 0 0 0 0 0 0 0 0 0 0 0 0 0 0
0 0 0 0 0 0 0 0 0 0 0 0 0 0 0 0 0 0 0 0 0 0 0 0 0 0 0 0 0 0 0 0 0 0 0 0 0 0 0 0 0 0 0 0 0
0 0 0 0 0 0 0 0 0 0 0 0 0 0 0 0 0 0 0 0 0 0 0 0 0 0 0 0 0 0 0 0 0 0 0 0 0 0 0 0 0 0 0 0 0
0 0 0 0 0 0 0 0 0 0 0 0 0 0 0 0 0 0 0 0 0 0 0 0 0 0 0 0 0 0 0 0 0 0 0 0 0 0 0 0 0 0 0 0 0
0 0 0 0 0 0 0 0 0 0 0 0 0 0 0 0 0 0 0 0 0 0 0 0 0 0 0 0 0 0 0 0 0 0 0 0 0 0 0 0 0 0 0 0 0

GFSSW_con_sbcape_117.txt.gz
CAPE
184 101 61 173 245 71 16 69 218 143 14 0 52 101 146 150 4 0 0 0 0 0 0 0 0 0 0 0 0 0 0 0 0 0 0 0 0 0 0 0 0 0 0 0 0
62 65 149 198 309 161 35 84 64 155 5 8 10 58 25 107 5 1 0 0 0 0 0 0 0 0 0 0 0 0 0 0 0 0 0 0 0 0 0 0 0 0 0 0 0
222 228 166 140 200 126 133 32 61 76 63 0 0 0 56 67 3 0 10 1 0 0 0 0 0 0 0 0 0 0 0 0 0 0 0 0 0 0 0 0 0 0 0 0 0
319 291 264 212 121 175 163 154 97 188 96 9 102 105 166 20 1 0 6 90 0 0 0 0 0 0 0 0 0 0 0 0 0 0 0 0 0 0 0 0 0 0 0 0 0
297 231 166 151 128 115 106 66 70 228 65 57 24 127 18 1 8 0 34 0 0 0 0 0 0 0 0 0 0 0 0 0 0 0 0 0 0 0 0 0 0 0 0 0 0
262 171 144 203 215 236 159 132 158 183 73 6 42 43 4 0 2 0 0 0 0 0 0 0 0 0 0 0 0 0 0 0 0 0 0 0 0 0 0 0 0 0 0 0 0
153 102 129 222 213 263 293 259 217 200 71 95 79 3 9 0 3 5 0 0 0 0 0 0 0 0 0 0 0 0 0 0 0 0 0 0 0 0 0 0 0 0 0 0 0
154 156 211 179 227 254 172 159 143 81 106 39 53 0 31 3 2 1 1 0 0 0 0 0 0 0 0 0 0 0 0 0 0 0 0 0 0 0 0 0 0 0 0 0 0
15 20 11 80 139 261 291 171 90 15 19 0 0 1 23 3 1 0 0 0 0 0 0 0 0 0 0 0 0 0 0 0 0 0 0 0 0 0 0 0 0 0 0 0 0
0 0 9 34 46 184 150 13 9 0 0 0 0 0 0 9 0 0 0 0 0 0 0 0 0 0 0 0 0 0 0 0 0 0 0 0 0 0 0 0 0 0 0 0 0
0 1 18 46 25 13 0 0 0 0 0 20 14 5 3 3 0 0 0 0 0 0 0 0 0 0 0 0 0 0 0 0 0 0 0 0 0 0 0 0 0 0 0 0 0
0 7 14 12 12 0 0 0 1 0 0 1 1 4 6 0 1 2 0 0 0 0 0 0 0 0 0 0 0 0 0 0 0 0 0 0 0 0 0 0 0 0 0 0 0
0 0 0 0 0 0 0 0 0 0 0 0 8 4 11 2 11 12 2 0 0 0 0 0 0 0 0 0 0 0 0 0 0 0 0 0 0 0 0 0 0 0 0 0 0
0 0 0 0 0 0 0 0 0 0 0 0 8 11 2 7 0 0 0 0 0 0 0 0 0 0 0 0 0 0 0 0 0 0 0 0 0 0 0 0 0 0 0 0 0
0 0 0 0 0 0 0 0 0 0 0 0 6 6 16 0 0 0 0 0 0 0 0 0 0 0 0 0 0 0 0 0 0 0 0 0 0 0 0 0 0 0 0 0 0
0 0 0 0 0 0 0 0 0 0 0 1 14 11 7 0 0 0 0 0 0 0 0 0 0 0 0 0 0 0 0 0 0 0 0 0 0 0 0 0 0 0 0 0 0
0 0 0 0 0 0 0 0 0 0 0 0 14 6 1 0 0 0 0 0 0 0 0 0 0 0 0 0 0 0 0 0 0 0 0 0 0 0 0 0 0 0 0 0 0
0 0 0 0 0 0 0 0 0 2 10 1 3 0 0 0 0 0 0 0 0 0 0 0 0 0 0 0 0 0 0 0 0 0 0 0 0 0 0 0 0 0 0 0 0
0 0 0 0 0 0 0 0 0 0 0 0 0 0 0 0 0 0 0 0 0 0 0 0 0 0 0 0 0 0 0 0 0 0 0 0 0 0 0 0 0 0 0 0 0
0 0 0 0 0 0 0 0 0 0 0 0 0 0 0 0 0 0 0 0 0 0 0 0 0 0 0 0 0 0 0 0 0 0 0 0 0 0 0 0 0 0 0 0 0
0 0 0 0 0 0 0 0 0 0 0 0 0 0 0 0 0 0 0 0 0 0 0 0 0 0 0 0 0 0 0 0 0 0 0 0 0 0 0 0 0 0 0 0 0
0 0 0 0 0 0 0 0 0 0 0 0 0 0 0 0 0 0 0 0 0 0 0 0 0 0 0 0 0 0 0 0 0 0 0 0 0 0 0 0 0 0 0 0 0
0 0 0 0 0 0 0 0 0 0 0 0 0 0 0 0 0 0 0 0 0 0 0 0 0 0 0 0 0 0 0 0 0 0 0 0 0 0 0 0 0 0 0 0 0
0 0 0 0 0 0 0 0 0 0 0 0 0 0 0 0 0 0 0 0 0 0 0 0 0 0 0 0 0 0 0 0 0 0 0 0 0 0 0 0 0 0 0 0 0
0 0 0 0 0 0 0 0 0 0 0 0 0 0 0 0 0 0 0 0 0 0 0 0 0 0 0 0 0 0 0 0 0 0 0 0 0 0 0 0 0 0 0 0 0
0 0 0 0 0 0 0 0 0 0 0 0 0 0 0 0 0 0 0 0 0 0 0 0 0 0 0 0 0 0 0 0 0 0 0 0 0 0 0 0 0 0 0 0 0
0 0 0 0 0 0 0 0 0 0 0 0 0 0 0 0 0 0 0 0 0 0 0 0 0 0 0 0 0 0 0 0 0 0 0 0 0 0 0 0 0 0 0 0 0